[[{"header":{"parameterUnit":"m.s-1","parameterCategory":1,"la1":30.6,"la2":29.2853,"lo1":-89.7004,"lo2":-87.6739,"dy":0.0162,"dx":0.0183,"nx":112,"ny":82,"refTime":"2023-05-06T12:00:00:Z","depth":0,"parameterNumber":2,"parameterNumberName":"U-component_of_WINDS"},"data":[0.0,0.0,0.0,0.0,0.0,0.0,0.0,0.0,0.0,0.0,0.0,0.0,0.0,0.0,0.0,0.0,0.0,0.0,0.0,0.0,0.0,0.0,0.0,0.0,0.0,0.0,0.0,0.0,0.0,0.0,0.0,0.0,0.0,0.0,0.0,0.0,0.0,0.0,0.0,0.0,0.0,0.0,0.0,0.0,0.0,0.0,0.0,0.0,0.0,0.0,0.0,0.0,0.0,0.0,0.0,0.0,0.0,0.0,0.0,0.0,0.0,0.0,0.0,0.0,0.0,0.0,0.0,0.0,0.0,0.0,0.0,0.0,0.0,0.0,0.0,0.0,0.0,0.0,0.0,0.0,0.0,0.0,0.0,0.0,0.0,0.0,0.0,0.0,0.0,0.0,0.0,-0.7052,-0.7042,-0.7036,-0.7074,-0.6987,-0.7032,-0.7319,0.0,0.0,0.0,0.0,0.0,0.0,0.0,0.0,0.0,0.0,0.0,0.0,0.0,0.0,0.0,0.0,0.0,0.0,0.0,0.0,0.0,0.0,0.0,0.0,0.0,0.0,0.0,0.0,0.0,0.0,0.0,0.0,0.0,0.0,0.0,0.0,0.0,0.0,0.0,0.0,0.0,0.0,0.0,0.0,0.0,0.0,0.0,0.0,0.0,0.0,0.0,0.0,0.0,0.0,0.0,0.0,0.0,0.0,0.0,0.0,0.0,0.0,0.0,0.0,0.0,0.0,0.0,0.0,0.0,0.0,0.0,0.0,0.0,0.0,0.0,0.0,0.0,0.0,0.0,0.0,0.0,0.0,0.0,0.0,0.0,0.0,0.0,0.0,0.0,0.0,0.0,0.0,0.0,0.0,0.0,0.0,0.0,0.0,0.0,0.0,0.0,0.0,0.0,0.0,-0.6875,-0.6996,-0.6812,-0.6766,-0.7004,-0.6984,-0.7128,-0.7456,0.0,0.0,0.0,0.0,0.0,0.0,0.0,0.0,0.0,0.0,0.0,0.0,0.0,0.0,0.0,0.0,0.0,0.0,0.0,0.0,0.0,0.0,0.0,0.0,0.0,0.0,0.0,0.0,0.0,0.0,0.0,0.0,0.0,0.0,0.0,0.0,0.0,0.0,0.0,0.0,0.0,0.0,0.0,0.0,0.0,0.0,0.0,0.0,0.0,0.0,0.0,0.0,0.0,0.0,0.0,0.0,0.0,0.0,0.0,0.0,0.0,0.0,0.0,0.0,0.0,0.0,0.0,0.0,0.0,0.0,0.0,0.0,0.0,0.0,0.0,0.0,0.0,0.0,0.0,0.0,0.0,0.0,0.0,0.0,0.0,0.0,0.0,0.0,0.0,0.0,0.0,0.0,0.0,0.0,0.0,0.0,0.0,0.0,0.0,0.0,0.0,0.0,0.0,-0.6753,-0.6929,-0.7006,-0.6866,-0.6912,-0.7241,-0.7114,-0.7121,-0.7373,-0.7127,0.0,0.0,0.0,0.0,0.0,0.0,0.0,0.0,0.0,0.0,0.0,0.0,0.0,0.0,0.0,0.0,0.0,0.0,0.0,0.0,0.0,0.0,0.0,0.0,0.0,0.0,0.0,0.0,0.0,0.0,0.0,0.0,0.0,0.0,0.0,0.0,0.0,0.0,0.0,0.0,0.0,0.0,0.0,0.0,0.0,0.0,0.0,0.0,0.0,0.0,0.0,0.0,0.0,0.0,0.0,0.0,0.0,0.0,0.0,0.0,0.0,0.0,0.0,0.0,0.0,0.0,0.0,0.0,0.0,0.0,0.0,0.0,0.0,0.0,0.0,0.0,0.0,0.0,0.0,0.0,0.0,0.0,0.0,0.0,0.0,0.0,0.0,0.0,0.0,0.0,0.0,0.0,0.0,0.0,0.0,0.0,0.0,0.0,0.0,0.0,0.0,0.0,-0.6599,-0.6664,-0.6902,-0.6886,-0.7011,-0.7375,-0.7174,-0.7113,-0.7333,-0.6973,0.0,0.0,0.0,0.0,0.0,0.0,0.0,0.0,0.0,0.0,0.0,0.0,0.0,0.0,0.0,0.0,0.0,0.0,0.0,0.0,0.0,0.0,0.0,0.0,0.0,0.0,0.0,0.0,0.0,0.0,0.0,0.0,0.0,0.0,0.0,0.0,0.0,0.0,0.0,0.0,0.0,0.0,0.0,0.0,0.0,0.0,0.0,0.0,0.0,0.0,0.0,0.0,0.0,0.0,0.0,0.0,0.0,0.0,0.0,0.0,0.0,0.0,0.0,0.0,0.0,0.0,0.0,0.0,0.0,0.0,0.0,0.0,0.0,0.0,0.0,0.0,0.0,0.0,0.0,0.0,0.0,0.0,0.0,0.0,0.0,0.0,0.0,0.0,0.0,0.0,0.0,0.0,0.0,0.0,0.0,0.0,0.0,0.0,0.0,0.0,0.0,0.0,-0.6047,-0.5893,-0.6647,-0.6708,-0.6823,-0.7103,-0.7103,-0.7203,-0.7473,-0.7108,0.0,0.0,0.0,0.0,0.0,0.0,0.0,0.0,0.0,0.0,0.0,0.0,0.0,0.0,0.0,0.0,0.0,0.0,0.0,0.0,0.0,0.0,0.0,0.0,0.0,0.0,0.0,0.0,0.0,0.0,0.0,0.0,0.0,0.0,0.0,0.0,0.0,0.0,0.0,0.0,0.0,0.0,0.0,0.0,0.0,0.0,0.0,0.0,0.0,0.0,0.0,0.0,0.0,0.0,0.0,0.0,0.0,0.0,0.0,0.0,0.0,0.0,0.0,0.0,0.0,0.0,0.0,0.0,0.0,0.0,0.0,0.0,0.0,0.0,0.0,0.0,0.0,0.0,0.0,0.0,0.0,0.0,0.0,0.0,0.0,0.0,0.0,0.0,0.0,0.0,0.0,0.0,0.0,0.0,0.0,0.0,0.0,0.0,0.0,0.0,0.0,0.0,-0.6123,-0.6027,0.0,-0.6531,-0.6661,-0.6839,-0.7004,-0.7119,-0.7126,0.0,0.0,0.0,0.0,0.0,0.0,0.0,0.0,0.0,0.0,0.0,0.0,0.0,0.0,0.0,0.0,0.0,0.0,0.0,0.0,0.0,0.0,0.0,0.0,0.0,0.0,0.0,0.0,0.0,0.0,0.0,0.0,0.0,0.0,0.0,0.0,0.0,0.0,0.0,0.0,0.0,0.0,0.0,0.0,0.0,0.0,0.0,0.0,0.0,0.0,0.0,0.0,0.0,0.0,0.0,0.0,0.0,0.0,0.0,0.0,0.0,0.0,0.0,0.0,0.0,0.0,0.0,0.0,0.0,0.0,0.0,0.0,0.0,0.0,0.0,0.0,0.0,0.0,0.0,0.0,0.0,0.0,0.0,0.0,0.0,0.0,0.0,0.0,0.0,0.0,0.0,0.0,0.0,0.0,0.0,0.0,0.0,0.0,0.0,0.0,0.0,0.0,-0.6341,-0.6193,-0.6154,0.0,-0.6495,-0.6634,-0.6734,-0.6909,-0.7032,-0.7077,0.0,0.0,0.0,0.0,0.0,0.0,0.0,0.0,0.0,0.0,0.0,0.0,0.0,0.0,0.0,0.0,0.0,0.0,0.0,0.0,0.0,0.0,0.0,0.0,0.0,0.0,0.0,0.0,0.0,0.0,0.0,0.0,0.0,0.0,0.0,0.0,0.0,0.0,0.0,0.0,0.0,0.0,0.0,0.0,0.0,0.0,0.0,0.0,0.0,0.0,0.0,0.0,0.0,0.0,0.0,0.0,0.0,0.0,0.0,0.0,0.0,0.0,0.0,0.0,0.0,0.0,0.0,0.0,0.0,0.0,0.0,0.0,0.0,0.0,0.0,0.0,0.0,0.0,0.0,0.0,0.0,0.0,0.0,0.0,0.0,0.0,0.0,0.0,0.0,0.0,0.0,0.0,0.0,0.0,0.0,0.0,0.0,0.0,0.0,0.0,0.0,0.0,-0.6401,-0.6235,-0.6167,-0.6386,-0.6653,-0.6805,-0.6805,-0.6805,-0.7006,0.0,0.0,0.0,0.0,0.0,0.0,0.0,0.0,0.0,0.0,0.0,0.0,0.0,0.0,0.0,0.0,0.0,0.0,0.0,0.0,0.0,0.0,0.0,0.0,0.0,0.0,0.0,0.0,0.0,0.0,0.0,0.0,0.0,0.0,0.0,0.0,0.0,0.0,0.0,0.0,0.0,0.0,0.0,0.0,0.0,0.0,0.0,0.0,0.0,0.0,0.0,0.0,0.0,0.0,0.0,0.0,0.0,0.0,0.0,0.0,0.0,0.0,0.0,0.0,0.0,0.0,0.0,0.0,0.0,0.0,0.0,0.0,0.0,0.0,0.0,0.0,0.0,0.0,0.0,0.0,0.0,0.0,0.0,0.0,0.0,0.0,0.0,0.0,0.0,0.0,0.0,0.0,0.0,0.0,0.0,0.0,0.0,0.0,0.0,0.0,0.0,0.0,0.0,-0.6827,-0.6523,-0.6325,-0.6383,-0.6653,-0.6732,-0.6522,-0.6702,-0.6849,-0.693,0.0,0.0,0.0,0.0,0.0,0.0,0.0,0.0,0.0,0.0,0.0,0.0,0.0,0.0,0.0,0.0,0.0,0.0,0.0,0.0,0.0,0.0,0.0,0.0,0.0,0.0,0.0,0.0,0.0,0.0,0.0,0.0,0.0,0.0,0.0,0.0,0.0,0.0,0.0,0.0,0.0,0.0,0.0,0.0,0.0,0.0,0.0,0.0,0.0,0.0,0.0,0.0,0.0,0.0,0.0,0.0,0.0,0.0,0.0,0.0,0.0,0.0,0.0,0.0,0.0,0.0,0.0,0.0,0.0,0.0,0.0,0.0,0.0,0.0,0.0,0.0,0.0,0.0,0.0,0.0,0.0,0.0,0.0,0.0,0.0,0.0,0.0,0.0,0.0,0.0,0.0,0.0,0.0,0.0,0.0,0.0,0.0,0.0,0.0,0.0,0.0,0.0,-0.6918,-0.6618,-0.6395,-0.6395,-0.6534,-0.6564,-0.6407,-0.6556,-0.6647,-0.6663,0.0,0.0,0.0,0.0,0.0,0.0,0.0,0.0,0.0,0.0,0.0,0.0,0.0,0.0,0.0,0.0,0.0,0.0,0.0,0.0,0.0,0.0,0.0,0.0,0.0,0.0,0.0,0.0,0.0,0.0,0.0,0.0,0.0,0.0,0.0,0.0,0.0,0.0,0.0,0.0,0.0,0.0,0.0,0.0,0.0,0.0,0.0,0.0,0.0,0.0,0.0,0.0,0.0,0.0,0.0,0.0,0.0,0.0,0.0,0.0,0.0,0.0,0.0,0.0,0.0,0.0,0.0,0.0,0.0,0.0,0.0,0.0,0.0,0.0,0.0,0.0,0.0,0.0,0.0,0.0,0.0,0.0,0.0,0.0,0.0,0.0,0.0,0.0,0.0,0.0,0.0,0.0,0.0,0.0,0.0,0.0,0.0,0.0,0.0,0.0,0.0,0.0,-0.6864,-0.6592,-0.6395,-0.6395,-0.6395,-0.6395,-0.6395,-0.6395,-0.6441,-0.6537,0.0,0.0,0.0,0.0,0.0,0.0,0.0,0.0,0.0,0.0,0.0,0.0,0.0,0.0,0.0,0.0,0.0,0.0,0.0,0.0,0.0,0.0,0.0,0.0,0.0,0.0,0.0,0.0,0.0,0.0,0.0,0.0,0.0,0.0,0.0,0.0,0.0,0.0,0.0,0.0,0.0,0.0,0.0,0.0,0.0,0.0,0.0,0.0,0.0,0.0,0.0,0.0,0.0,0.0,0.0,0.0,0.0,0.0,0.0,0.0,-1.034,0.0,0.0,0.0,0.0,0.0,0.0,0.0,0.0,0.0,0.0,0.0,0.0,0.0,0.0,0.0,0.0,0.0,0.0,0.0,0.0,0.0,0.0,0.0,0.0,0.0,0.0,0.0,0.0,0.0,0.0,0.0,0.0,0.0,0.0,0.0,0.0,0.0,0.0,0.0,0.0,0.0,-0.7275,-0.6769,-0.6395,-0.6395,-0.6395,-0.6395,-0.6395,-0.6395,-0.634,-0.6222,0.0,0.0,0.0,0.0,0.0,0.0,0.0,0.0,0.0,0.0,0.0,0.0,0.0,0.0,0.0,0.0,0.0,0.0,0.0,0.0,0.0,0.0,0.0,0.0,0.0,0.0,0.0,0.0,0.0,0.0,0.0,0.0,0.0,0.0,0.0,0.0,0.0,0.0,0.0,0.0,0.0,0.0,0.0,0.0,0.0,0.0,0.0,0.0,0.0,0.0,0.0,0.0,0.0,0.0,0.0,0.0,0.0,0.0,0.0,0.0,0.0,-1.0858,0.0,0.0,0.0,0.0,0.0,0.0,0.0,0.0,0.0,0.0,0.0,0.0,0.0,0.0,0.0,0.0,0.0,0.0,0.0,0.0,0.0,0.0,0.0,0.0,0.0,0.0,0.0,0.0,0.0,0.0,0.0,0.0,0.0,0.0,0.0,0.0,0.0,0.0,0.0,0.0,-0.729,-0.6783,-0.6395,-0.6395,-0.6395,-0.6395,-0.6395,-0.6395,-0.6295,-0.6075,-0.5982,0.0,0.0,0.0,0.0,0.0,0.0,0.0,0.0,0.0,0.0,0.0,0.0,0.0,0.0,0.0,0.0,0.0,0.0,0.0,0.0,0.0,0.0,0.0,0.0,0.0,0.0,0.0,0.0,0.0,0.0,0.0,0.0,0.0,0.0,0.0,0.0,0.0,0.0,0.0,0.0,0.0,0.0,0.0,0.0,0.0,0.0,0.0,0.0,0.0,0.0,0.0,0.0,0.0,0.0,-1.3645,-1.3981,-1.4509,-1.4443,-1.3945,-1.4216,-1.3067,-1.1011,0.0,0.0,0.0,0.0,0.0,0.0,0.0,0.0,0.0,0.0,0.0,0.0,0.0,0.0,0.0,0.0,0.0,0.0,0.0,0.0,0.0,0.0,0.0,0.0,0.0,-0.7896,-0.7886,0.0,0.0,0.0,0.0,0.0,0.0,0.0,0.0,0.0,0.0,0.0,0.0,-0.7139,-0.6714,-0.6395,-0.6395,-0.6395,-0.6395,-0.6395,-0.6395,-0.6295,-0.6009,-0.5855,-0.5656,0.0,0.0,0.0,0.0,0.0,0.0,0.0,0.0,0.0,0.0,0.0,0.0,0.0,0.0,0.0,0.0,0.0,0.0,0.0,0.0,0.0,0.0,0.0,0.0,0.0,0.0,0.0,0.0,0.0,0.0,0.0,0.0,-1.2204,-1.1114,0.0,0.0,0.0,0.0,0.0,0.0,0.0,0.0,0.0,0.0,0.0,0.0,0.0,0.0,-1.3697,-1.3404,-1.3555,-1.4108,-1.4967,-1.551,-1.5908,-1.7155,-1.7684,-1.7604,-1.7655,0.0,-1.2606,-1.1399,0.0,0.0,0.0,0.0,0.0,0.0,0.0,0.0,0.0,0.0,0.0,0.0,0.0,0.0,0.0,0.0,0.0,0.0,0.0,0.0,0.0,0.0,-0.7475,-0.732,-0.7485,-0.7557,0.0,-0.7481,-0.7828,-0.7453,0.0,0.0,0.0,0.0,0.0,0.0,0.0,0.0,-0.689,-0.6599,-0.6395,-0.6395,-0.6395,-0.6395,-0.6395,-0.6395,-0.6295,-0.6009,-0.5759,-0.564,-0.5653,-0.5335,0.0,0.0,0.0,0.0,0.0,0.0,0.0,0.0,0.0,0.0,0.0,0.0,0.0,0.0,0.0,0.0,0.0,0.0,0.0,0.0,0.0,0.0,0.0,0.0,0.0,0.0,0.0,0.0,0.0,-1.1304,-1.1509,-1.0389,-1.1056,-1.1151,0.0,0.0,0.0,0.0,0.0,0.0,0.0,0.0,0.0,-1.3126,-1.4421,-1.5223,-1.5362,-1.5863,-1.6257,-1.6496,-1.6948,-1.7225,-1.7385,-1.8043,-1.8299,-1.8299,-1.8299,-1.7421,-1.5884,-1.455,-1.3448,-1.2604,0.0,0.0,0.0,0.0,0.0,-1.1863,-1.1595,0.0,0.0,0.0,0.0,0.0,0.0,0.0,0.0,0.0,0.0,0.0,0.0,0.0,0.0,-0.8476,-0.8534,-0.8672,-0.8268,-0.8204,-0.8031,0.0,-0.729,-0.7333,-0.7376,0.0,0.0,0.0,0.0,0.0,-0.6823,-0.6558,-0.6395,-0.6395,-0.6395,-0.6395,-0.6395,-0.627,-0.6125,-0.5997,-0.5602,-0.5425,-0.5535,-0.5316,-0.532,0.0,0.0,0.0,0.0,0.0,0.0,0.0,0.0,0.0,0.0,0.0,0.0,0.0,0.0,0.0,0.0,0.0,0.0,0.0,0.0,0.0,0.0,0.0,0.0,0.0,0.0,0.0,0.0,-1.1224,-1.1545,-1.0485,-1.1363,-1.1701,0.0,0.0,0.0,0.0,0.0,0.0,-1.285,-1.4055,-1.4761,-1.4761,-1.6235,-1.6989,-1.6989,-1.8028,-1.8591,-1.8672,-1.8672,-1.8716,-1.8796,-1.8796,-1.8796,-1.8796,-1.8796,-1.8796,-1.8672,-1.704,-1.5579,-1.4426,-1.4292,-1.4302,-1.4258,-1.3937,-1.3916,-1.3931,-1.3609,-1.3653,-1.3857,-1.3857,0.0,-1.4291,-1.446,0.0,0.0,0.0,0.0,-1.1288,-0.9787,0.0,-1.0923,-0.9378,-0.9289,-0.9455,-0.9069,-0.879,-0.8347,0.0,-0.7339,-0.7338,-0.7315,0.0,0.0,0.0,0.0,-0.6987,-0.6914,-0.6738,-0.6617,-0.6617,-0.6617,-0.6617,-0.6617,-0.6422,-0.6301,-0.6301,-0.5809,-0.5546,-0.5654,-0.5391,-0.5297,-0.5378,0.0,0.0,0.0,0.0,0.0,0.0,0.0,0.0,0.0,0.0,0.0,0.0,0.0,0.0,0.0,0.0,0.0,0.0,0.0,0.0,0.0,0.0,0.0,0.0,0.0,0.0,0.0,0.0,0.0,-1.2499,-1.298,0.0,0.0,0.0,0.0,-1.4196,-1.4342,-1.4596,-1.5185,-1.6177,-1.6756,-1.6756,-1.8033,-1.8664,-1.8664,-1.9038,-1.9434,-1.9742,-1.9742,-1.985,-2.0081,-2.0081,-2.0081,-2.0081,-2.0081,-2.0081,-1.9891,-1.7279,-1.5973,-1.546,-1.4145,-1.3717,-1.3795,-1.3454,-1.3607,-1.3931,-1.3609,-1.3506,-1.3521,-1.3521,-1.3536,-1.366,-1.432,-1.4229,0.0,0.0,-1.3272,-1.3073,-1.1056,-1.0779,-1.0637,-0.9176,-0.9039,-0.9115,-0.8711,-0.8912,-0.8877,0.0,-0.7481,-0.7279,-0.7534,0.0,-0.7577,-0.7577,-0.7565,-0.7461,-0.7212,-0.717,-0.7164,-0.7164,-0.7164,-0.7164,-0.7164,-0.7151,-0.7139,-0.7139,-0.6641,-0.6334,-0.6352,-0.5725,-0.5456,-0.5579,-0.5394,0.0,0.0,0.0,0.0,0.0,0.0,0.0,0.0,0.0,0.0,0.0,0.0,0.0,0.0,0.0,0.0,0.0,0.0,0.0,0.0,0.0,0.0,0.0,0.0,0.0,0.0,0.0,0.0,-1.3492,-1.4406,0.0,0.0,-1.3747,-1.4192,-1.5028,-1.57,-1.6191,-1.6586,-1.7772,-1.8561,-1.8774,-1.9228,-1.9513,-1.9718,-1.9835,-1.9952,-2.0069,-2.0069,-2.0128,-2.0183,-2.0183,-2.0183,-2.0183,-2.0183,-2.0183,-2.011,-1.919,-1.8621,-1.8286,-1.7778,-1.7472,-1.7293,-1.6972,-1.6928,-1.7026,-1.6704,-1.6726,-1.6938,-1.7143,-1.7216,-1.7062,-1.6294,-1.5951,-1.5583,-1.4128,-1.4441,-1.4799,-1.3101,-1.2713,-1.2421,-1.1018,-1.0065,-0.9447,-0.9118,-0.8912,-0.8717,-0.8369,-0.8063,-0.7739,-0.7413,-0.734,-0.734,-0.734,-0.734,-0.7303,-0.7212,-0.72,-0.72,-0.72,-0.72,-0.72,-0.72,-0.7048,-0.6968,-0.706,-0.6737,-0.6656,-0.6912,-0.6686,-0.6619,-0.6756,-0.6695,-0.6479,0.0,0.0,0.0,0.0,0.0,0.0,0.0,0.0,0.0,0.0,0.0,0.0,0.0,0.0,0.0,0.0,0.0,0.0,0.0,0.0,0.0,0.0,0.0,0.0,0.0,0.0,-1.4348,-1.4457,-1.5518,-1.6023,-1.5482,-1.5628,-1.6024,-1.6835,-1.7479,-1.8025,-1.8242,-1.9133,-1.9696,-1.9916,-2.0033,-2.0186,-2.0343,-2.0453,-2.0567,-2.0567,-2.0567,-2.0567,-2.0567,-2.0567,-2.0567,-2.0567,-2.0567,-2.0567,-2.0567,-2.0567,-2.0377,-2.0077,-1.9967,-1.9791,-1.9579,-1.936,-1.9272,-1.925,-1.903,-1.9096,-1.9316,-1.9528,-1.9528,-1.9294,-1.8209,-1.7765,-1.7305,-1.6007,-1.6142,-1.6347,-1.4923,-1.416,-1.3352,-1.1784,-1.0417,-0.9411,-0.9028,-0.8792,-0.8591,-0.8505,-0.8266,-0.7945,-0.7509,-0.7449,-0.7454,-0.757,-0.7509,-0.7479,-0.757,-0.7503,-0.7449,-0.7449,-0.7449,-0.7449,-0.7449,-0.7261,-0.7236,-0.7398,-0.7142,-0.7142,-0.7453,-0.7369,-0.7391,-0.7457,-0.7338,-0.7086,-0.6724,0.0,0.0,0.0,0.0,0.0,0.0,0.0,0.0,0.0,0.0,0.0,0.0,0.0,0.0,0.0,0.0,0.0,0.0,0.0,0.0,0.0,0.0,0.0,-1.3162,-1.475,-1.584,-1.5528,-1.636,-1.7101,-1.7377,-1.7366,-1.8072,-1.9713,-1.9837,-1.993,-2.0183,-2.0205,-2.0212,-2.0212,-2.0574,-2.0742,-2.0742,-2.1064,-2.1225,-2.1225,-2.1233,-2.124,-2.124,-2.124,-2.124,-2.124,-2.1233,-2.1225,-2.1225,-2.1211,-2.102,-2.0706,-2.0321,-2.019,-2.0183,-2.0183,-2.0183,-2.0183,-2.0183,-2.0183,-2.0183,-2.0183,-2.0025,-1.983,-1.983,-1.9406,-1.8957,-1.895,-1.8524,-1.7777,-1.6448,-1.4907,-1.3203,-1.1333,-0.9988,-0.8981,-0.8433,-0.8512,-0.8608,-0.8327,-0.8075,-0.7901,-0.7901,-0.7901,-0.7985,-0.8243,-0.8063,0.0,-0.8243,-0.8057,-0.7907,-0.7913,-0.7907,-0.7907,-0.7913,-0.7907,-0.7981,-0.8195,-0.7952,-0.7879,-0.7999,-0.7762,-0.7621,-0.7621,-0.7236,-0.7094,-0.7223,0.0,0.0,0.0,0.0,0.0,0.0,0.0,0.0,0.0,0.0,0.0,0.0,0.0,0.0,0.0,0.0,0.0,0.0,0.0,0.0,0.0,0.0,-1.636,-1.5578,-1.6154,-1.6908,-1.7765,-1.8306,-1.8738,-1.906,-1.9301,-1.957,-2.0077,-2.0325,-2.0501,-2.0589,-2.0808,-2.094,-2.094,-2.1028,-2.1079,-2.1079,-2.1401,-2.1562,-2.1569,-2.1803,-2.1913,-2.1913,-2.1913,-2.1913,-2.1906,-2.1664,-2.1562,-2.154,-2.1306,-2.1159,-2.1042,-2.0713,-2.0387,-2.0183,-2.0183,-2.0183,-2.0183,-2.0183,-2.0183,-2.0183,-2.0183,-2.0179,-2.0106,-2.0106,-1.9993,-1.9812,-1.9582,-1.9419,-1.9179,-1.8621,-1.6718,-1.4699,-1.3499,-1.1304,-0.9312,-0.849,-0.8201,-0.8093,-0.8021,-0.7949,-0.7901,-0.7901,-0.7901,-0.7925,-0.7997,-0.7949,0.0,-0.7997,-0.7949,-0.7973,-0.8165,-0.8015,-0.7979,-0.8165,-0.8009,-0.7981,0.0,-0.8126,-0.8162,-0.828,-0.8307,-0.8268,-0.8171,-0.7835,-0.7565,0.0,0.0,0.0,0.0,0.0,0.0,0.0,0.0,0.0,0.0,0.0,0.0,0.0,0.0,0.0,0.0,0.0,0.0,0.0,0.0,0.0,0.0,-1.7203,-1.8413,-1.8309,-1.8077,-1.8245,-1.9089,-1.9484,-1.9806,-2.0135,-2.0333,-2.0494,-2.0633,-2.0823,-2.0925,-2.0925,-2.124,-2.1415,-2.1415,-2.1547,-2.162,-2.162,-2.1803,-2.1898,-2.1906,-2.2096,-2.2184,-2.2184,-2.2184,-2.2184,0.0,-2.1986,-2.1898,-2.1884,-2.1693,-2.162,0.0,0.0,0.0,0.0,0.0,-2.0647,-2.0647,-2.0647,-2.0647,-2.0647,-2.0647,-2.0497,-2.0387,-2.0387,-2.0292,-2.0183,-2.0012,-1.9895,-1.9778,-1.9621,-1.7519,-1.5331,-1.4683,-1.2231,-0.9829,-0.8914,-0.85,-0.8223,-0.7946,0.0,0.0,-0.7901,-0.7901,-0.7937,-0.8045,-0.7973,-0.7937,0.0,-0.7967,-0.7961,-0.8111,-0.7991,-0.7961,-0.8117,-0.7991,0.0,0.0,0.0,-0.8268,-0.8395,-0.8474,0.0,0.0,0.0,-0.7729,0.0,0.0,0.0,0.0,-0.702,-0.7009,0.0,0.0,0.0,0.0,0.0,0.0,0.0,0.0,0.0,0.0,0.0,0.0,0.0,0.0,0.0,0.0,-1.8844,-2.033,-2.1165,-2.035,-1.9701,-1.9889,-2.012,-2.0365,-2.075,-2.0779,-2.0896,-2.1189,-2.124,-2.1269,-2.1269,0.0,0.0,0.0,0.0,-2.2184,-2.2184,-2.2213,-2.2235,-2.2235,-2.2271,-2.2286,-2.2286,-2.2286,-2.2286,-2.2286,-2.225,-2.2235,-2.2228,-2.2198,-2.2184,-2.2125,-2.1503,-2.1269,-2.1262,-2.1218,-2.1211,0.0,0.0,0.0,0.0,-2.1211,-2.1013,-2.0779,-2.0779,-2.0574,-2.0292,-2.0292,-2.0113,-1.9941,-1.9941,-1.7846,-1.5562,-1.5255,-1.2855,-1.0376,-0.9515,-0.9093,-0.8713,-0.8115,-0.7991,-0.7991,-0.7991,-0.7937,-0.7979,-0.8213,-0.8051,0.0,-0.8213,-0.8045,-0.7913,-0.7943,0.0,0.0,-0.7943,-0.7919,-0.7981,-0.8141,-0.8168,-0.8215,-0.8368,-0.8348,-0.8342,-0.8342,-0.7943,-0.7696,-0.7643,-0.7321,-0.7139,-0.7112,-0.7112,-0.7112,0.0,0.0,0.0,0.0,0.0,0.0,0.0,0.0,0.0,0.0,0.0,0.0,0.0,0.0,0.0,-1.9364,-2.1862,-2.3746,-2.3627,-2.2627,-2.1534,-2.0634,-2.0589,-2.0757,-2.1086,-2.1115,-2.1137,-2.1203,-2.1452,-2.1606,-2.1606,-2.1913,0.0,-2.2089,-2.2154,-2.2184,-2.2184,-2.2418,-2.2535,-2.2542,0.0,0.0,-2.293,-2.293,-2.293,-2.2915,-2.2652,-2.2535,-2.252,-2.2286,-2.2184,-2.214,-2.1752,-2.1606,-2.1569,-2.1306,-2.1211,-2.1211,-2.1211,-2.1211,-2.1211,-2.1211,-2.1167,-2.1115,-2.1115,-2.1072,0.0,-2.102,-2.0964,-2.0907,-2.0907,-1.8804,-1.6501,-1.5873,-1.3113,-1.0398,-0.9693,-0.9109,-0.8701,-0.8566,-0.856,-0.856,-0.856,-0.8177,-0.7919,-0.7967,-0.7931,-0.7919,-0.7967,-0.7931,-0.7979,-0.8195,-0.8027,-0.7985,-0.8195,-0.8021,-0.7928,-0.7955,-0.7955,-0.8035,-0.8215,-0.8088,-0.8008,-0.8008,-0.7901,-0.7708,-0.7365,-0.7413,-0.73,-0.7112,-0.7112,-0.7112,0.0,0.0,0.0,0.0,0.0,0.0,0.0,0.0,0.0,0.0,0.0,-1.6554,0.0,0.0,-2.1528,-2.196,-2.3886,-2.5316,-2.5112,-2.4233,-2.3361,-2.276,-2.2226,-2.191,-2.2078,-2.2246,-2.213,-2.151,-2.1759,-2.1942,-2.1942,-2.2235,-2.2403,-2.2403,-2.2564,-2.2645,-2.2645,-2.2791,-2.2864,-2.2871,-2.3201,-2.3354,-2.3354,-2.3354,-2.3354,-2.3332,-2.301,-2.2864,-2.2857,-2.2703,-2.2645,-2.2615,-2.2286,-2.2074,-2.192,-2.1759,-2.1591,-2.1452,-2.1452,-2.135,-2.1211,-2.1211,-2.1211,-2.1211,-2.1211,-2.1211,-2.1211,-2.1211,-2.1211,-2.1211,-2.1211,-1.9645,-1.786,-1.6856,-1.4762,-1.2613,-1.116,-1.0463,-0.9958,-0.9488,-0.9144,-0.8903,-0.8903,-0.8578,-0.8243,-0.8117,-0.7985,-0.7901,-0.7901,-0.7901,-0.7949,-0.8081,-0.7979,-0.7955,-0.8087,-0.7973,-0.7901,-0.7901,-0.7901,-0.7955,-0.8035,-0.7955,-0.7901,-0.7901,-0.7842,-0.7702,-0.7494,-0.744,-0.7338,-0.7198,-0.7139,-0.7112,0.0,0.0,0.0,0.0,0.0,0.0,0.0,0.0,-1.7128,-1.9134,-1.935,-1.9512,-2.0657,-2.2208,-2.3541,-2.4163,-2.5465,-2.6379,-2.6379,-2.5594,-2.5194,-2.5494,-2.4298,-2.3473,-2.3473,-2.3796,-2.3494,-2.2243,-2.2498,-2.2564,-2.2271,-2.2557,-2.2718,-2.2718,-2.3032,-2.3201,-2.3201,-2.3267,-2.3296,-2.3303,-2.3567,-2.3691,-2.3691,-2.3691,-2.3691,-2.3676,-2.3347,-2.3164,-2.3106,-2.3106,-2.3106,-2.3084,-2.282,-2.2571,-2.2352,-2.2228,-2.2015,-2.1789,-2.1789,-2.162,-2.1386,-2.132,-2.1306,-2.1291,-2.1233,-2.1211,-2.1211,-2.1211,-2.1211,-2.1211,-2.1211,-2.0201,-1.8855,-1.7545,-1.6126,-1.4544,-1.2501,-1.1785,-1.1242,-1.0438,-0.9775,-0.9364,-0.9278,-0.8987,-0.8692,-0.8433,-0.8141,-0.7973,-0.7973,-0.7931,-0.7901,-0.7901,-0.7901,-0.7901,-0.7901,-0.7901,-0.7901,-0.7901,-0.7901,-0.7877,-0.785,-0.7871,-0.7877,-0.785,-0.7732,-0.7673,-0.762,-0.7399,-0.7266,-0.7191,-0.7122,-0.7085,-1.3926,-1.4956,-1.6678,-1.7162,-1.8327,-1.9366,0.0,0.0,-2.0129,-2.0391,-2.0904,-2.1317,-2.1464,-2.3486,-2.5131,-2.5227,-2.6824,-2.8053,-2.8053,-2.7041,-2.6819,-2.8234,-2.6493,-2.5153,-2.5153,-2.5486,-2.5177,-2.3901,-2.4106,-2.383,-2.2632,-2.2879,-2.3054,-2.3054,-2.3369,-2.3545,-2.3545,-2.383,-2.3976,-2.3976,-2.4013,-2.4027,-2.4027,-2.4027,-2.4027,-2.4013,-2.3684,-2.3376,-2.3106,-2.3106,-2.3106,-2.3106,-2.3069,-2.304,-2.2937,-2.2389,-2.2162,-2.2132,-2.2132,-2.2103,-2.2023,-2.1737,-2.1642,-2.1591,-2.1298,-2.1211,-2.1211,-2.1211,-2.1211,-2.1211,-2.1211,-2.0033,-1.8518,-1.7262,-1.5454,-1.3687,-1.2298,-1.1744,-1.137,-1.0976,-1.0587,-1.0262,-0.9945,-0.942,-0.8963,-0.8704,-0.8439,-0.8249,-0.8249,-0.8045,-0.7901,-0.7901,-0.7901,-0.7901,-0.7901,-0.7901,-0.7901,-0.7901,-0.7901,-0.782,-0.765,-0.7802,-0.7814,-0.7644,-0.7618,-0.7536,-0.7331,-0.7312,-0.7107,-0.6783,-0.6988,-0.7031,-1.7971,-1.8192,-1.8689,0.0,-2.0723,-2.1426,-2.1426,-2.1953,-2.2656,-2.3418,-2.4166,-2.4837,-2.509,-2.6024,-2.6822,0.0,-2.777,-2.8291,-2.8291,-2.8064,-2.8167,-2.8842,-2.8501,-2.7842,-2.6867,-2.715,-2.6851,-2.5561,-2.5784,-2.5751,-2.5206,-2.475,-2.45,-2.45,-2.4893,-2.5134,-2.5134,-2.5281,-2.535,-2.5286,-2.4662,-2.4364,-2.4364,-2.4364,-2.4262,-2.4071,-2.394,-2.3691,-2.3391,-2.3391,-2.3281,-2.3106,-2.3106,-2.3106,-2.3076,-2.282,-2.2601,-2.244,-2.244,-2.233,-2.2162,-2.2023,-2.1979,-2.192,-2.1591,-2.1496,-2.1452,-2.1262,-2.1211,-2.1211,-2.1211,-2.0706,-1.9681,-1.7618,-1.6626,-1.554,-1.3345,-1.2734,-1.2516,-1.217,-1.1693,-1.1204,-1.0882,-1.0295,-0.9799,-0.9488,-0.8931,-0.8487,-0.8309,-0.8195,-0.8069,-0.7919,-0.7901,-0.7862,-0.7731,-0.7713,-0.7647,-0.7496,-0.749,-0.7527,-0.7595,-0.7679,-0.7685,-0.7595,-0.7595,-0.7416,-0.7014,-0.7039,-0.6934,-0.6632,-0.6786,-0.6788,-2.0089,-2.0274,-2.041,-2.1728,-2.2646,-2.3252,-2.3369,-2.3975,-2.4805,-2.5869,-2.668,-2.7295,-2.766,-2.7816,-2.7939,-2.8242,-2.8291,-2.8291,-2.8291,-2.8652,-2.8965,-2.9082,-2.9746,-2.9775,-2.8784,-2.8864,-2.8507,-2.7254,-2.7389,-2.7418,-2.7158,-2.6492,-2.6129,-2.6289,-2.6701,-2.6697,-2.6319,-2.6415,-2.6269,-2.5895,-2.5106,-2.4767,-2.4767,-2.5093,-2.5302,-2.5432,-2.5432,-2.5232,-2.4916,-2.4916,-2.4464,-2.3856,-2.4222,-2.3796,-2.3168,-2.3542,-2.3261,-2.2754,-2.2754,-2.2615,-2.2425,-2.2337,-2.2301,-2.225,-2.1928,-2.1767,-2.165,-2.1408,-2.1276,-2.1211,-2.1211,-2.1211,-2.0552,-1.7899,-1.7508,-1.6908,-1.4099,-1.3453,-1.3331,-1.2976,-1.2449,-1.1953,-1.1614,-1.1055,-1.0502,-1.0085,-0.9482,-0.892,-0.8566,-0.8403,-0.8219,-0.8027,-0.7943,-0.7844,-0.7697,-0.7685,-0.757,-0.7328,-0.7309,-0.7328,-0.7376,-0.7449,-0.7449,-0.7376,-0.7376,-0.7188,-0.6801,-0.6768,-0.6668,-0.6512,-0.656,-0.6511,-1.8217,-1.9609,-2.0899,-2.2168,-2.375,-2.5107,-2.5489,-2.5986,-2.6435,-2.6885,-2.7334,-2.7699,-2.7718,-2.7998,-2.8281,-2.8291,-2.8291,-2.8291,-2.8291,-2.8652,-2.9082,-2.9502,-2.9932,-3.0371,0.0,-3.0801,-3.0255,-2.8902,-2.8852,-2.8487,-2.765,-2.7561,-2.7732,-2.8226,-2.8549,-2.8039,-2.6686,-2.6954,-2.6396,-2.5165,-2.5105,-2.5105,-2.5105,-2.6411,-2.7597,-2.8682,-2.8682,-2.8468,-2.818,-2.818,-2.7135,-2.5752,-2.6988,-2.5668,-2.323,-2.4579,-2.4209,-2.3091,-2.3091,-2.3091,-2.3025,-2.271,-2.2608,-2.2557,-2.2257,-2.195,-2.1693,-2.1686,-2.1452,-2.1211,-2.1211,-2.1211,-2.0552,-1.7899,-1.7286,-1.6586,-1.4055,-1.3499,-1.3411,-1.3054,-1.2734,-1.2382,-1.2032,-1.1424,-1.0791,-1.02,-1.0028,-0.9762,-0.9138,-0.8632,-0.8285,-0.8279,-0.8051,-0.7895,-0.7889,-0.7889,-0.7802,-0.7601,-0.7583,-0.7358,-0.6854,-0.7079,-0.7091,-0.6835,-0.6829,-0.6829,-0.6795,-0.655,-0.6375,-0.6309,-0.6304,-0.6271,-1.9453,-2.1064,-2.2656,-2.4248,-2.5303,-2.6055,-2.6484,-2.6924,-2.7275,-2.7422,-2.7109,-2.6816,-2.6816,-2.6934,-2.7031,-2.7031,-2.7744,-2.8291,-2.8291,-2.8906,-2.9404,-2.9551,-3.0215,0.0,0.0,0.0,0.0,-3.0274,-3.0464,-3.0496,-3.0208,-2.9854,-2.9753,-2.9888,-3.0274,-3.0214,-2.9754,-2.9821,-2.9687,-2.923,-2.8262,-2.7808,-2.7816,-2.8271,-2.873,-2.9068,-2.9068,-2.8918,-2.8639,-2.8639,-2.8162,-2.7411,-2.754,-2.6991,-2.5993,-2.5336,-2.4826,-2.4278,-2.3417,-2.3106,-2.3091,-2.2981,-2.2945,-2.2886,-2.2571,-2.2396,-2.222,-2.1811,-2.162,-2.1481,-2.1269,-2.1211,-2.0772,-1.9038,-1.7955,-1.6812,-1.5145,-1.4106,-1.3462,-1.3353,-1.3223,-1.3049,-1.2725,-1.2304,-1.1614,-1.0522,-0.9812,-0.9327,-0.9138,-0.8945,-0.8698,-0.8327,-0.8213,-0.8042,-0.7739,-0.7709,-0.7594,-0.7352,-0.717,-0.7072,-0.7072,-0.6987,-0.6902,-0.6811,-0.6805,-0.663,-0.6282,-0.6493,-0.6418,-0.6049,-0.6218,-0.6183,-2.1163,-2.2637,-2.3929,-2.5528,-2.6289,-2.6728,-2.7148,-2.7461,-2.7757,-2.7861,-2.709,-2.6387,-2.6387,-2.583,-2.5411,-2.5664,-2.6141,-2.6742,-2.7519,-2.8296,-2.8998,-2.9512,-3.0351,-3.0889,0.0,0.0,0.0,-3.0889,-3.1279,-3.1592,-3.1738,-3.1584,-3.1502,-3.1652,-3.1905,-3.1845,-3.1313,-3.1313,-3.1056,-3.054,-2.9639,-2.9444,-2.9965,-2.9965,-3.0225,-3.0678,-3.016,-3.0148,-3.0383,-2.9348,-2.8738,-2.8432,-2.812,-2.7231,-2.611,-2.5458,-2.4866,-2.4278,-2.3417,-2.3106,-2.3106,-2.3106,-2.3106,-2.3069,-2.2857,-2.2718,-2.2535,-2.214,-2.1869,-2.165,-2.1437,-2.1298,-2.0881,-1.9586,-1.8277,-1.6936,-1.5659,-1.4414,-1.3492,-1.3492,-1.3492,-1.3433,-1.3221,-1.2799,-1.2131,-1.1016,-1.0155,-0.9511,-0.9257,-0.9155,-0.8969,-0.8632,-0.8512,-0.8283,-0.7897,-0.7854,-0.7703,-0.7364,-0.7182,-0.7079,-0.706,-0.6896,-0.6763,-0.6671,-0.6665,-0.6493,-0.6132,-0.6339,-0.6281,-0.5946,-0.6016,-0.5952,-2.3037,-2.416,-2.4824,-2.6133,-2.6758,-2.7168,-2.7598,-2.7748,-2.7783,-2.8096,-2.7139,-2.623,0.0,0.0,-2.3699,-2.428,-2.385,-2.417,-2.62,-2.7011,-2.7936,0.0,0.0,0.0,0.0,0.0,0.0,-3.0918,0.0,-3.1738,-3.2178,-3.2598,-3.3008,-3.3408,-3.3418,-3.2765,-3.1442,-3.1378,-3.0734,-2.9378,-2.9378,-3.0095,-3.1378,-3.1378,-3.2164,-3.3355,-3.1973,-3.2174,-3.3165,-3.0419,-2.9172,-2.8918,-2.8682,-2.6648,-2.4015,-2.5101,-2.4508,-2.319,-2.3113,-2.3106,-2.3106,-2.3106,-2.3106,-2.3106,-2.3106,-2.2893,-2.2645,-2.2623,-2.2198,-2.1737,-2.1708,-2.1467,-2.0918,-1.9674,-1.8328,-1.695,-1.5746,-1.4457,-1.3492,-1.3492,-1.3492,-1.3492,-1.3492,-1.2978,-1.2311,-1.1647,-1.0982,-1.0272,-0.9617,-0.9281,-0.9113,-0.9095,-0.8878,-0.8614,-0.8315,-0.8291,-0.8096,-0.765,-0.7601,-0.737,-0.6872,-0.6823,-0.669,-0.6419,-0.6401,-0.6395,-0.6395,-0.6165,-0.6024,-0.5996,-0.5766,-0.5627,-2.3877,-2.5059,-2.6123,-2.71,-2.7474,-2.7607,-2.8037,-2.8135,-2.7803,-2.6631,-2.5352,-2.4062,0.0,0.0,0.0,-2.3935,-2.5693,0.0,-2.7744,-2.8491,0.0,-2.9531,0.0,-3.0889,-3.0889,-3.0889,0.0,0.0,-3.1758,-3.2187,-3.2607,-3.3037,-3.331,-3.3418,-3.3418,-3.3228,-3.2892,-3.2892,-3.2702,-3.231,-3.231,-3.2511,-3.2892,-3.2892,-3.3092,-3.3355,-3.3029,-3.3092,-3.3292,-3.1515,-3.0735,-3.0554,-2.9162,-2.8098,-2.7169,-2.596,-2.5219,-2.4734,-2.3499,-2.3106,-2.3106,-2.3106,-2.3106,-2.3106,-2.3106,-2.3054,-2.2937,-2.2689,-2.2506,-2.2279,-2.1818,-2.1635,-2.143,-2.0852,-1.8986,-1.7191,-1.687,-1.5079,-1.3492,-1.3492,-1.3492,-1.3492,-1.3492,-1.315,-1.274,-1.2297,-1.1445,-1.0627,-0.9957,-0.9609,-0.933,-0.9119,-0.9041,-0.8812,-0.8327,-0.8291,-0.8175,-0.7844,-0.7685,-0.7534,-0.7401,-0.7018,-0.6775,-0.6708,-0.6492,-0.6395,-0.6395,-0.6522,-0.6462,-0.6225,-0.6202,-0.5982,-2.4951,-2.5957,-2.6826,-2.7552,-2.7855,-2.7803,-2.7285,-2.7168,-2.668,-2.4961,-2.3574,0.0,-2.1375,0.0,0.0,0.0,0.0,0.0,-2.7353,-2.814,-2.8826,0.0,-3.0351,0.0,-3.0889,-3.0889,-3.1143,0.0,-3.2031,-3.2353,-3.2773,-3.3193,-3.3418,-3.3418,-3.3418,-3.3418,-3.3418,-3.3418,-3.3418,-3.3418,-3.3418,-3.3418,-3.3418,-3.3418,-3.3092,-3.2438,0.0,-3.1534,-3.1396,-2.9435,-2.8912,-2.9279,-2.7703,-2.6952,-2.6703,-2.5556,-2.4912,-2.4566,-2.3636,-2.323,-2.3106,-2.3106,-2.3106,-2.3106,-2.3106,-2.3106,-2.3069,-2.2886,-2.2732,-2.2542,-2.2191,-2.2008,-2.1825,-2.1503,-1.9433,-1.7501,-1.7315,-1.5313,-1.3492,-1.3492,-1.3492,-1.3492,-1.3492,-1.3345,-1.3099,-1.2784,-1.2116,-1.1404,-1.0712,-0.9947,-0.9456,-0.93,-0.9281,-0.9113,-0.8692,-0.8656,-0.8548,-0.8255,-0.8045,-0.7846,-0.7731,-0.7352,-0.7097,-0.6981,-0.672,-0.6564,-0.6564,-0.6601,-0.6474,-0.618,-0.6202,-0.6085,-2.5957,-2.6699,-2.7119,-2.7559,-2.7978,-2.7842,-2.6074,-2.5693,-2.5118,-2.3188,0.0,-2.0956,-2.0722,-2.0731,-2.1049,-2.1902,0.0,-2.4265,-2.6347,-2.7169,-2.8038,-2.9424,-3.0293,-3.082,-3.0889,-3.0947,-3.1309,-3.2109,-3.2217,-3.2441,-3.2861,-3.3223,-3.3418,-3.3418,-3.3418,-3.3418,-3.3418,-3.3418,-3.3418,-3.3418,-3.3418,-3.3418,-3.3418,-3.3418,-3.2702,-3.1515,0.0,0.0,-2.9248,-2.6694,-2.6234,-2.6953,-2.5644,-2.4951,-2.4627,-2.465,-2.421,-2.3713,-2.3625,-2.3413,-2.3164,-2.312,-2.3106,-2.3106,-2.3106,-2.3106,-2.3106,-2.3106,-2.2908,-2.2674,-2.2637,-2.2432,-2.2162,-2.184,-1.974,-1.7735,-1.741,-1.5343,-1.3492,-1.3492,-1.3492,-1.3492,-1.3492,-1.3492,-1.3397,-1.3111,-1.2756,-1.2277,-1.162,-1.0421,-0.9602,-0.957,-0.9534,-0.9402,-0.9119,-0.9095,-0.8987,-0.8722,-0.8493,-0.8225,-0.7961,-0.7744,-0.7522,-0.7261,-0.6993,-0.686,-0.686,-0.6643,-0.6419,-0.6165,-0.6194,-0.6203,-2.6211,-2.6699,-2.7119,-2.7559,-2.7978,-2.7842,-2.6074,-2.5693,0.0,0.0,-2.0303,-1.9717,-1.8311,-1.9153,-2.0713,-2.2574,0.0,0.0,0.0,0.0,-2.8861,0.0,0.0,0.0,0.0,0.0,0.0,0.0,0.0,0.0,-3.3291,-3.3379,-3.3418,-3.3418,-3.3418,-3.3418,-3.3418,-3.3418,-3.3418,-3.3418,-3.3418,-3.3418,-3.3418,-3.3418,-3.3292,-3.3029,0.0,0.0,-3.0798,-2.9182,-2.7941,-2.6953,-2.5644,-2.509,-2.5009,-2.4671,-2.4496,-2.432,-2.3779,-2.3559,-2.3464,-2.3201,-2.3106,-2.3106,-2.3106,-2.3106,-2.3106,-2.3106,-2.3069,-2.2959,-2.2689,-2.2586,-2.2469,-2.2169,-1.9908,-1.7801,-1.7743,-1.5504,-1.3492,-1.3492,-1.3492,-1.3492,-1.3492,-1.3492,-1.3477,-1.3418,-1.2899,-1.2459,-1.2333,-1.1154,-1.0199,-0.9868,-0.9642,-0.9402,-0.9119,-0.9095,-0.8987,-0.8722,-0.8662,-0.8524,-0.8237,-0.7973,-0.7756,-0.7534,-0.7267,-0.7133,-0.7133,-0.7303,-0.7255,-0.6996,-0.7212,-0.7102,-2.6269,-2.6533,-2.6787,-2.7217,-2.748,-2.6943,-2.4326,0.0,0.0,0.0,-1.8227,-1.7974,-1.7197,-1.8613,0.0,-2.1592,0.0,0.0,0.0,0.0,0.0,0.0,0.0,0.0,0.0,0.0,0.0,0.0,0.0,0.0,-3.3398,-3.3418,-3.3418,-3.3418,-3.3418,-3.3418,-3.3418,-3.3418,-3.3418,-3.3418,-3.3418,-3.3418,-3.3418,-3.3418,-3.2575,-3.1203,-3.1203,0.0,-2.7998,-2.7344,-2.6694,-2.5973,-2.5315,-2.5127,-2.5105,-2.4951,-2.4782,-2.4503,-2.402,-2.3735,-2.3545,-2.3215,-2.3106,-2.3106,-2.3106,-2.3106,-2.3106,-2.3106,-2.3106,-2.3069,-2.2915,-2.2871,-2.2798,-2.2484,-2.0062,-1.7633,-1.6967,-1.5072,-1.3492,-1.3492,-1.3492,-1.3492,-1.3492,-1.3492,-1.3492,-1.3492,-1.3223,-1.2863,-1.2459,-1.1717,-1.102,-1.0498,-1.0132,-0.9865,-0.9733,-0.9594,-0.9468,-0.9336,-0.9065,-0.8854,-0.8728,-0.8447,-0.8271,-0.8166,-0.7906,-0.7774,-0.7774,-0.7762,-0.7695,-0.7568,-0.7576,-0.7525,-2.6162,-2.6318,-2.6465,-2.6797,-2.6943,-2.6113,-2.2666,-2.1885,0.0,-1.7324,-1.656,-1.656,-1.656,-1.7959,-1.9385,0.0,-2.2793,-2.501,0.0,0.0,0.0,0.0,0.0,0.0,0.0,0.0,0.0,0.0,0.0,0.0,-3.3408,-3.3418,-3.3418,-3.3418,-3.3418,-3.3418,-3.3418,-3.3418,-3.3418,-3.3418,-3.3418,-3.3418,-3.3418,-3.3418,-3.2046,-2.9639,-2.9639,0.0,0.0,-2.5517,-2.539,-2.5127,-2.5127,-2.5127,-2.5127,-2.5127,-2.4958,-2.462,-2.4218,-2.3918,-2.364,-2.3237,-2.3106,-2.3106,-2.3106,-2.3106,-2.3106,-2.3106,-2.3106,-2.3106,-2.3106,-2.3106,-2.2959,-2.2359,-2.0018,-1.7552,-1.6206,-1.464,-1.3492,-1.3492,-1.3492,-1.3492,-1.3492,-1.3492,-1.3492,-1.3492,-1.3535,-1.3309,-1.2636,-1.2249,-1.1842,-1.1259,-1.0678,-1.0292,-1.0292,-1.0106,-0.9991,-0.9991,-0.9588,-0.933,-0.9269,-0.9017,-0.8854,-0.8794,-0.8536,-0.8375,-0.8375,-0.8225,-0.8123,-0.8063,-0.7961,-0.7967,-2.5732,-2.6084,-2.6396,-2.6435,-2.6728,-2.6113,-2.2666,0.0,-2.0791,-1.6956,-1.6153,-1.6153,-1.6153,-1.632,-1.723,-1.959,-2.0576,-2.2148,0.0,0.0,0.0,0.0,0.0,0.0,0.0,0.0,0.0,0.0,0.0,0.0,0.0,-3.3418,-3.3418,-3.3418,-3.3418,-3.3418,-3.3418,-3.3418,-3.3418,-3.3418,-3.3418,-3.3418,-3.3418,-3.3418,-3.2565,-3.112,0.0,0.0,0.0,-2.6886,-2.6167,-2.5127,-2.5127,-2.5127,-2.5127,-2.5127,-2.5105,-2.4987,-2.4298,-2.4064,-2.394,-2.331,-2.3106,-2.3106,-2.3106,-2.3106,-2.3106,-2.3106,-2.3106,-2.3106,-2.3106,-2.3106,-2.2732,-2.1247,-1.9542,-1.783,-1.6257,-1.464,-1.3492,-1.3492,-1.3492,-1.3492,-1.3492,-1.3492,-1.3492,-1.3492,-1.3645,-1.3681,-1.3419,-1.2872,-1.2435,-1.2188,-1.1043,-1.0292,-1.0292,-1.0274,-1.0256,-1.0256,-1.0214,-1.0075,-0.9841,-0.9582,-0.9324,-0.9065,-0.8806,-0.8674,-0.8674,-0.8884,-0.8866,-0.8644,-0.8854,-0.8836,-2.5479,-2.5859,-2.5996,-2.5996,-2.5527,-2.4375,-2.174,0.0,-1.9121,-1.626,-1.5674,-1.5674,-1.5674,-1.5919,-1.6604,-1.8135,-1.9394,0.0,-2.2721,0.0,0.0,0.0,0.0,0.0,0.0,0.0,0.0,0.0,0.0,0.0,0.0,-3.3418,-3.3418,-3.3418,-3.3418,-3.3418,-3.3418,-3.3418,-3.3418,-3.3418,-3.3418,-3.3418,-3.3355,-3.2502,-3.1387,-2.9956,0.0,0.0,0.0,-2.5906,-2.5584,-2.5127,-2.5127,-2.5127,-2.5127,-2.5127,-2.5127,-2.5031,-2.4313,-2.4086,-2.3976,-2.3318,-2.3106,-2.3106,-2.3106,-2.3106,-2.3106,-2.3106,-2.3106,-2.3106,-2.3106,-2.3106,-2.2945,-2.2315,-2.0186,-1.813,-1.7486,-1.5321,-1.3492,-1.3492,-1.3492,-1.3492,-1.3492,-1.3492,-1.3492,-1.3492,-1.3572,-1.3492,-1.32,-1.2709,-1.2342,-1.215,-1.1436,-1.0906,-1.0797,-1.0724,-1.0668,-1.0562,-1.0382,-1.025,-1.0148,-1.0039,-0.9931,-0.9817,-0.9715,-0.966,-0.966,-0.9769,-0.9763,-0.966,-0.9606,-0.9444,-2.4873,-2.5391,-2.5693,-2.5693,-2.4756,-2.3223,0.0,0.0,-1.7983,-1.5859,-1.541,-1.541,-1.541,-1.5664,-1.6193,-1.7041,-1.8301,-1.9648,-2.1005,0.0,0.0,0.0,0.0,0.0,0.0,0.0,0.0,0.0,0.0,0.0,0.0,-3.3418,-3.3418,-3.3418,-3.3418,-3.3418,-3.3418,-3.3418,-3.3418,-3.3418,-3.3418,-3.3418,-3.3355,-3.2365,-3.0936,-2.9125,0.0,0.0,0.0,-2.5127,-2.5127,-2.5127,-2.5127,-2.5127,-2.5127,-2.5127,-2.5127,-2.5031,-2.4313,-2.4086,-2.3976,-2.3318,-2.3106,-2.3106,-2.3106,-2.3106,-2.3106,-2.3106,-2.3106,-2.3106,-2.3106,-2.3106,-2.3106,-2.3106,-2.072,-1.8445,-1.8445,-1.5987,-1.3755,-1.366,-1.3638,-1.3609,-1.3514,-1.3492,-1.3492,-1.3492,-1.3564,-1.3455,-1.3119,-1.2783,-1.2489,-1.2224,-1.1855,-1.1558,-1.1298,-1.1236,-1.1167,-1.1015,-1.0766,-1.0633,-1.0633,-1.0484,-1.0406,-1.0406,-1.0334,-1.0292,-1.0292,-1.0292,-1.0292,-1.0286,-1.0027,-0.9763,-2.3691,-2.4756,-2.5693,-2.5693,-2.4756,-2.3223,0.0,0.0,-1.7983,-1.5859,-1.541,-1.541,-1.541,-1.5391,-1.5683,-1.656,-1.7119,-1.8301,-2.083,0.0,0.0,0.0,0.0,0.0,0.0,0.0,0.0,0.0,0.0,0.0,0.0,-3.3418,-3.3418,-3.3418,-3.3418,-3.3418,-3.3418,-3.3418,-3.3418,-3.3418,-3.3418,-3.3418,-3.3418,-3.3355,-3.1854,0.0,0.0,0.0,0.0,-2.5127,-2.5127,-2.5127,-2.5127,-2.5127,-2.5127,-2.5127,-2.5127,-2.5031,-2.4313,-2.4086,-2.3976,-2.3318,-2.3106,-2.3106,-2.3106,-2.3106,-2.3106,-2.3106,-2.3106,-2.3106,-2.3106,-2.3106,-2.3106,-2.3106,-2.0896,-1.8782,-1.8782,-1.6551,-1.4401,-1.4078,-1.3975,-1.3872,-1.355,-1.3492,-1.3492,-1.3492,-1.3681,-1.3717,-1.3528,-1.3309,-1.3046,-1.2636,-1.2415,-1.212,-1.1744,-1.17,-1.17,-1.17,-1.1515,-1.1403,-1.1403,-1.0931,-1.0719,-1.0719,-1.043,-1.0292,-1.0292,-1.0292,-1.0292,-1.0286,-1.0027,-0.9763,-2.0947,-2.1843,-2.2477,-2.1863,-2.1445,-2.0732,-1.918,-1.8013,-1.6941,-1.5644,-1.541,-1.541,-1.541,-1.541,-1.5801,-1.6982,-1.7295,-1.8003,0.0,0.0,0.0,0.0,0.0,0.0,0.0,0.0,0.0,0.0,0.0,0.0,0.0,0.0,-3.3418,-3.3418,-3.3418,-3.3418,-3.3418,-3.3418,-3.3418,-3.3418,-3.3418,-3.3418,-3.3355,-3.1405,0.0,0.0,0.0,0.0,0.0,-2.5127,-2.5127,-2.5127,-2.5127,-2.5127,-2.5127,-2.5127,-2.5127,-2.5031,-2.4313,-2.4086,-2.3976,-2.3318,-2.3106,-2.3106,-2.3106,-2.3106,-2.3106,-2.3106,-2.3106,-2.3106,-2.3106,-2.3106,-2.3106,-2.3106,-2.1576,-1.9872,-1.8979,-1.7201,-1.5458,-1.4216,-1.3982,-1.3879,-1.355,-1.3492,-1.3492,-1.3492,-1.3564,-1.3572,-1.3499,-1.32,-1.2936,-1.2826,-1.2342,-1.1939,-1.1724,-1.1818,-1.1855,-1.1706,-1.1632,-1.1558,-1.1409,-1.1255,-1.1095,-1.0991,-1.0906,-1.0864,-1.0864,-1.0864,-1.0864,-1.0858,-1.0563,-1.0394,-1.8789,-1.9913,-2.0605,-2.0264,-1.9795,0.0,0.0,-1.7217,-1.6279,-1.5566,-1.541,-1.541,-1.541,-1.541,-1.5791,-1.6953,-1.7275,-1.7998,0.0,0.0,0.0,0.0,0.0,0.0,0.0,0.0,0.0,0.0,0.0,0.0,0.0,0.0,-3.3418,-3.3418,-3.3418,-3.3418,-3.3418,-3.3418,-3.3418,-3.3418,-3.3418,-3.3418,-3.3355,-3.1598,0.0,0.0,0.0,0.0,0.0,-2.5127,-2.5127,-2.5127,-2.5127,-2.5127,-2.5127,-2.5127,-2.5127,-2.5046,-2.4452,-2.4188,-2.3991,-2.3464,-2.3208,-2.3106,-2.3106,-2.3106,-2.3106,-2.3106,-2.3106,-2.3106,-2.3106,-2.3106,-2.3106,-2.3106,-2.1979,-2.0552,-1.925,-1.7794,-1.6301,-1.4766,-1.4322,-1.41,-1.3837,-1.3682,-1.3608,-1.3608,-1.3608,-1.3637,-1.371,-1.3382,-1.3083,-1.301,-1.258,-1.2177,-1.1953,-1.1843,-1.1719,-1.1575,-1.1539,-1.1395,-1.1214,-1.1142,-1.1046,-1.096,-1.0966,-1.1015,-1.1111,-1.1111,-1.1057,-1.096,-1.0797,-1.0575,0.0,-1.8623,-1.9678,-2.0019,-1.9297,0.0,-1.793,-1.6946,0.0,-1.5498,-1.541,-1.542,-1.5449,-1.5459,-1.5722,-1.6648,-1.7187,0.0,0.0,0.0,0.0,0.0,0.0,0.0,0.0,0.0,0.0,0.0,0.0,0.0,0.0,0.0,-3.3418,-3.3418,-3.3418,-3.3418,-3.3418,-3.3418,-3.3418,-3.3418,-3.3418,-3.3418,-3.3418,-3.3155,0.0,0.0,0.0,0.0,0.0,-2.5127,-2.5127,-2.5127,-2.5127,-2.5127,-2.5127,-2.5127,-2.5127,-2.5075,-2.4753,-2.4371,-2.4057,-2.3713,-2.3391,-2.3135,-2.312,-2.3106,-2.3106,-2.3106,-2.3106,-2.3106,-2.3106,-2.3106,-2.3106,-2.3106,-2.2206,-2.0991,-1.9696,-1.8386,-1.7035,-1.5711,-1.4956,-1.4501,-1.4321,-1.4051,-1.382,-1.3797,-1.3797,-1.3863,-1.4057,-1.3775,-1.3455,-1.3236,-1.2989,-1.2718,-1.2345,-1.177,-1.1422,-1.1422,-1.123,-1.1046,-1.0914,-1.0748,-1.0651,-1.0689,-1.0689,-1.0773,-1.1057,-1.1057,-1.093,-1.0653,-1.0653,-1.0394,-1.4404,0.0,-1.6338,-1.5751,-1.6385,-1.6941,0.0,-1.6075,-1.5968,-1.5498,-1.541,-1.5508,-1.588,-1.5938,-1.6339,-1.751,0.0,0.0,0.0,0.0,0.0,0.0,0.0,0.0,0.0,0.0,0.0,0.0,0.0,0.0,0.0,0.0,-3.3418,-3.3418,-3.3418,-3.3418,-3.3418,-3.3418,-3.3418,-3.3418,-3.3418,-3.3418,-3.3355,-3.1139,0.0,0.0,0.0,0.0,-2.5127,-2.5127,-2.5127,-2.5127,-2.5127,-2.5127,-2.5127,-2.5127,-2.5127,-2.5075,-2.4753,-2.4518,-2.4357,-2.3779,-2.3545,-2.3435,-2.3186,-2.3106,-2.3106,-2.3106,-2.3106,-2.3106,-2.3106,-2.3106,-2.3106,-2.3106,-2.2879,-2.2315,-2.1035,-1.9733,-1.8442,-1.7041,-1.5841,-1.4949,-1.4396,-1.4231,-1.4104,-1.3827,-1.3797,-1.3863,-1.4057,-1.3891,-1.3645,-1.3455,-1.2949,-1.2478,-1.2221,-1.195,-1.1764,-1.1764,-1.1481,-1.1252,-1.1046,-1.0914,-1.0773,-1.0627,-1.0458,-1.0418,-1.0478,-1.0478,-1.0448,-1.0382,-1.0382,-1.0322,-1.3223,-1.415,-1.5059,-1.4757,-1.5576,-1.6299,-1.582,-1.5732,-1.5693,-1.5459,-1.541,-1.5547,0.0,-1.6261,0.0,0.0,0.0,0.0,0.0,0.0,0.0,0.0,0.0,0.0,0.0,0.0,0.0,0.0,0.0,0.0,0.0,0.0,-3.3418,-3.3418,-3.3418,-3.3418,-3.3418,-3.3418,-3.3418,-3.3418,-3.3418,-3.3418,-3.3355,-3.179,0.0,0.0,0.0,0.0,-2.5127,-2.5127,-2.5127,-2.5127,-2.5127,-2.5127,-2.5127,-2.5127,-2.5127,-2.5097,-2.4921,-2.476,-2.4488,-2.3984,-2.3823,-2.3786,-2.361,-2.3449,-2.3303,-2.3149,-2.3106,-2.3106,-2.3106,-2.3106,-2.3106,-2.3106,-2.3106,-2.2762,-2.1489,-2.0248,-1.9094,-1.783,-1.6428,-1.5334,-1.508,-1.4683,-1.4388,-1.4184,-1.396,-1.3863,-1.4057,-1.3855,-1.3608,-1.3499,-1.3006,-1.2619,-1.2396,-1.2087,-1.1785,-1.1483,-1.1316,-1.1062,-1.0731,-1.0565,-1.0428,-1.0282,-1.0301,-1.0292,-1.0292,-1.0292,-1.0292,-1.0292,-1.0292,-1.0292,-1.2959,-1.4053,-1.5186,-1.5205,-1.5644,-1.6075,-1.6007,-1.5684,-1.541,-1.541,-1.541,-1.5586,0.0,-1.6572,0.0,0.0,0.0,0.0,0.0,0.0,0.0,0.0,0.0,0.0,0.0,0.0,0.0,0.0,0.0,0.0,0.0,0.0,0.0,-3.3418,-3.3418,-3.3418,-3.3418,-3.3418,-3.3418,-3.3418,-3.3418,-3.3418,-3.3418,-3.3165,0.0,0.0,0.0,0.0,-2.5127,-2.5127,-2.5127,-2.5127,-2.5127,-2.5127,-2.5127,-2.5127,-2.5127,-2.5127,-2.5127,-2.4943,-2.4591,-2.4262,-2.4159,-2.4145,-2.4101,-2.3888,-2.361,-2.3332,-2.3186,-2.3106,-2.3106,-2.3106,-2.3106,-2.3106,-2.3106,-2.2813,-2.173,-2.0597,-1.9553,-1.85,-1.7028,-1.5955,-1.5927,-1.5281,-1.4758,-1.4614,-1.4221,-1.3952,-1.4065,-1.3783,-1.3564,-1.3564,-1.3193,-1.2856,-1.2673,-1.2258,-1.1774,-1.1162,-1.1042,-1.0797,-1.0314,-1.0142,-1.0,-0.9874,-1.0097,-1.0212,-1.0178,-1.0178,-1.0196,-1.0238,-1.0238,-1.0256,-1.3311,-1.5156,-1.6553,-1.4747,-1.5205,-1.5997,-1.5596,-1.5459,-1.541,-1.541,-1.541,-1.5771,0.0,-1.7236,-1.7686,0.0,0.0,0.0,0.0,0.0,0.0,0.0,0.0,0.0,0.0,0.0,0.0,0.0,0.0,0.0,0.0,0.0,0.0,-3.3418,-3.3418,-3.3418,-3.3418,-3.3418,-3.3418,-3.3418,-3.3418,-3.3418,-3.3355,-3.2174,-3.0743,0.0,0.0,-2.6568,-2.5127,-2.5127,-2.5127,-2.5127,-2.5127,-2.5127,-2.5127,-2.5127,-2.5127,-2.5127,-2.5127,-2.509,-2.4995,-2.4598,-2.4496,-2.4444,-2.4166,-2.4049,-2.3998,-2.3947,-2.3537,-2.3106,-2.3106,-2.3106,-2.3106,-2.3106,-2.3106,-2.3054,-2.2857,-2.1818,-2.0696,-1.9782,-1.8548,-1.7276,-1.6089,-1.5786,-1.5451,-1.4728,-1.4523,-1.4385,-1.4132,-1.3891,-1.3761,-1.3761,-1.3382,-1.3083,-1.2863,-1.2631,-1.2272,-1.1792,-1.1269,-1.0797,-1.0314,-1.0269,-1.0104,-0.9828,-0.9839,-0.9799,-0.9636,-0.9636,-0.9751,-0.9961,-0.9961,-1.0081,-1.3041,-1.4651,-1.6161,-1.5545,-1.7142,-1.8799,-1.8568,-1.8369,-1.7998,-1.7262,-1.7344,0.0,0.0,0.0,0.0,0.0,0.0,0.0,0.0,0.0,0.0,0.0,0.0,0.0,0.0,0.0,0.0,0.0,0.0,0.0,0.0,0.0,0.0,0.0,-3.3418,-3.3418,-3.3418,-3.3418,-3.3418,-3.3418,-3.3418,-3.3418,-3.3355,-3.2702,-3.1267,-2.9191,0.0,-2.7028,-2.5127,-2.5127,-2.5127,-2.5127,-2.5127,-2.5127,-2.5127,-2.5127,-2.5127,-2.5127,-2.5127,-2.5127,-2.5097,-2.4951,-2.4899,-2.487,-2.4723,-2.4481,-2.4349,-2.4349,-2.3874,-2.3369,-2.3369,-2.3245,-2.3106,-2.3106,-2.3106,-2.3106,-2.3106,-2.2163,-2.1089,-2.0091,-1.8946,-1.7779,-1.6549,-1.6085,-1.5771,-1.5382,-1.479,-1.4388,-1.4236,-1.3851,-1.3645,-1.3645,-1.3382,-1.3156,-1.3083,-1.2783,-1.2403,-1.1926,-1.1316,-1.0863,-1.0536,-1.0386,-1.0149,-0.9804,-0.9947,-0.9923,-0.9727,-0.9865,-0.9997,-1.0118,-1.0118,-1.0256,-1.2966,-1.4278,-1.5837,-1.6616,-1.8472,-2.0294,-2.0937,-2.0508,-1.9834,-1.9309,-1.9512,0.0,0.0,0.0,0.0,0.0,0.0,0.0,0.0,0.0,0.0,0.0,0.0,0.0,0.0,0.0,0.0,0.0,0.0,0.0,0.0,0.0,0.0,0.0,-3.3418,-3.3418,-3.3418,-3.3418,-3.3418,-3.3418,-3.3418,-3.3418,-3.3418,-3.3418,-3.2046,-2.9705,-2.9313,-2.7808,-2.5517,-2.5255,-2.5127,-2.5127,-2.5127,-2.5127,-2.5127,-2.5127,-2.5127,-2.5127,-2.5127,-2.5127,-2.5127,-2.5127,-2.5127,-2.5127,-2.5127,-2.4951,-2.4753,-2.4753,-2.4269,-2.3793,-2.364,-2.3413,-2.3201,-2.3128,-2.3106,-2.3106,-2.3106,-2.2451,-2.1541,-2.0497,-1.9418,-1.835,-1.7247,-1.6517,-1.6077,-1.5964,-1.5248,-1.4659,-1.4462,-1.4095,-1.3806,-1.3733,-1.3607,-1.3459,-1.334,-1.2998,-1.2641,-1.2234,-1.1598,-1.1129,-1.0994,-1.0719,-1.0438,-1.0214,-1.0326,-1.0266,-1.0065,-1.023,-1.0328,-1.0382,-1.0382,-1.0527,-1.3645,-1.508,-1.6645,-1.7494,-1.7348,-1.7652,-2.0106,-1.9355,-1.874,-2.0615,-2.1034,0.0,0.0,0.0,0.0,0.0,0.0,0.0,0.0,0.0,0.0,0.0,0.0,0.0,0.0,0.0,0.0,0.0,0.0,0.0,0.0,0.0,0.0,0.0,0.0,-3.3418,-3.3418,-3.3418,-3.3418,-3.3418,-3.3418,-3.3418,-3.3418,-3.3418,-3.2565,-3.1056,-2.977,-2.8337,-2.6886,-2.5577,-2.5127,-2.5127,-2.5127,-2.5127,-2.5127,-2.5127,-2.5127,-2.5127,-2.5127,-2.5127,-2.5127,-2.5127,-2.5127,-2.5127,-2.5127,-2.5105,-2.509,-2.509,-2.4833,-2.4357,-2.3757,-2.3581,-2.3486,-2.3179,-2.3106,-2.3106,-2.3106,-2.3032,-2.2654,-2.1586,-2.0542,-1.9463,-1.8349,-1.7314,-1.6535,-1.6131,-1.6011,-1.5703,-1.4951,-1.4812,-1.4681,-1.4428,-1.4438,-1.4236,-1.3793,-1.3551,-1.3355,-1.3113,-1.2328,-1.1839,-1.1804,-1.1489,-1.1352,-1.1488,-1.1045,-1.0751,-1.0544,-1.039,-1.0418,-1.0653,-1.0653,-1.0791,-1.3317,-1.5196,-1.7145,-1.7581,-1.7992,-1.8994,-2.1582,-2.208,-2.2227,-2.3003,-2.3608,0.0,0.0,0.0,0.0,0.0,0.0,0.0,0.0,0.0,0.0,0.0,0.0,0.0,0.0,0.0,0.0,0.0,0.0,0.0,0.0,0.0,0.0,0.0,0.0,-3.3418,-3.3418,-3.3418,-3.3418,-3.3418,-3.3418,-3.3418,-3.3418,-3.3418,-3.2183,-2.9956,-2.9444,-2.7941,-2.5846,-2.5322,-2.5127,-2.5127,-2.5127,-2.5127,-2.5127,-2.5127,-2.5127,-2.5127,-2.5127,-2.5127,-2.5127,-2.5127,-2.5127,-2.5127,-2.5127,-2.5127,-2.5127,-2.5127,-2.5031,-2.4789,-2.4064,-2.3749,-2.3515,-2.3186,-2.3106,-2.3106,-2.3106,-2.3106,-2.2786,-2.1726,-2.0679,-1.9663,-1.8621,-1.7588,-1.6834,-1.667,-1.6402,-1.6052,-1.5757,-1.5406,-1.5082,-1.4794,-1.4589,-1.4387,-1.4066,-1.3824,-1.3581,-1.3391,-1.2813,-1.2449,-1.2449,-1.1993,-1.1686,-1.1615,-1.1446,-1.1176,-1.0858,-1.0953,-1.0973,-1.0966,-1.0966,-1.1015,-1.3528,-1.5196,-1.7038,-1.7681,-1.8537,-1.9962,-2.2682,-2.3486,-2.3965,-2.5185,-2.5713,-2.5752,-2.5146,0.0,0.0,0.0,0.0,0.0,0.0,0.0,0.0,0.0,0.0,0.0,0.0,0.0,0.0,0.0,0.0,0.0,0.0,0.0,0.0,0.0,0.0,0.0,-3.3418,-3.3418,-3.3418,-3.3418,-3.3418,-3.3418,-3.3418,-3.3418,-3.2384,-3.0484,-2.9583,-2.8139,-2.6308,-2.5457,-2.5127,-2.5127,-2.5127,-2.5127,-2.5127,-2.5127,-2.5127,-2.5127,-2.5127,-2.5127,-2.5127,-2.5127,-2.5127,-2.5127,-2.5127,-2.5127,-2.5127,-2.5127,-2.5127,-2.4995,-2.4379,-2.3991,-2.3669,-2.334,-2.3186,-2.3106,-2.3106,-2.3106,-2.2911,-2.2142,-2.1207,-2.0187,-1.918,-1.8151,-1.7401,-1.71,-1.6741,-1.6504,-1.6417,-1.6095,-1.5802,-1.5514,-1.5157,-1.4885,-1.475,-1.4408,-1.4111,-1.3783,-1.3465,-1.3238,-1.3072,-1.2496,-1.2155,-1.2107,-1.185,-1.1607,-1.1318,-1.1433,-1.1409,-1.1186,-1.1186,-1.1149,-1.4519,-1.5196,-1.6232,-1.7962,-1.8769,-1.9955,-2.3115,-2.2822,-2.3018,-2.6926,-2.7002,-2.6406,-2.6387,0.0,0.0,0.0,0.0,0.0,0.0,0.0,0.0,0.0,0.0,0.0,0.0,0.0,0.0,0.0,0.0,0.0,0.0,0.0,0.0,0.0,0.0,0.0,-3.3418,-3.3418,-3.3418,-3.3418,-3.3418,-3.3418,-3.3418,-3.3418,-3.3418,-3.3228,-3.0419,-2.9182,-2.8986,-2.6241,-2.5127,-2.5127,-2.5127,-2.5127,-2.5127,-2.5127,-2.5127,-2.5127,-2.5127,-2.5127,-2.5127,-2.5127,-2.5127,-2.5127,-2.5127,-2.5127,-2.5127,-2.5127,-2.5127,-2.5053,-2.4657,-2.4327,-2.4005,-2.3676,-2.3347,-2.3106,-2.3106,-2.3106,-2.3106,-2.3106,-2.2245,-2.1219,-2.0284,-1.9225,-1.822,-1.7333,-1.7183,-1.7137,-1.6948,-1.6903,-1.6876,-1.6824,-1.6285,-1.5913,-1.5884,-1.5388,-1.4915,-1.444,-1.4398,-1.4143,-1.362,-1.3073,-1.2938,-1.32,-1.2423,-1.2009,-1.2003,-1.1781,-1.1595,-1.1409,-1.1409,-1.1298,-1.4519,-1.6612,-1.8644,-1.844,0.0,0.0,-2.4346,-2.4441,-2.493,0.0,-2.791,-2.7451,-2.6553,0.0,0.0,0.0,0.0,0.0,0.0,0.0,0.0,0.0,0.0,0.0,0.0,0.0,0.0,0.0,0.0,0.0,0.0,0.0,0.0,0.0,0.0,0.0,-3.3418,-3.3418,-3.3418,-3.3418,-3.3418,-3.3418,-3.3418,-3.3418,-3.2829,-3.1909,-3.1056,-2.9565,-2.761,-2.5846,-2.5127,-2.5127,-2.5127,-2.5127,-2.5127,-2.5127,-2.5127,-2.5127,-2.5127,-2.5127,-2.5127,-2.5127,-2.5127,-2.5127,-2.5127,-2.5127,-2.5127,-2.5127,-2.5127,-2.5105,-2.5009,-2.4671,-2.4284,-2.3727,-2.3347,-2.3106,-2.3106,-2.3106,-2.3106,-2.3106,-2.2324,-2.1347,-2.0361,-1.9361,-1.8393,-1.7419,-1.7279,-1.7233,-1.7186,-1.7042,-1.6957,-1.7049,-1.675,-1.646,-1.6214,-1.5846,-1.5347,-1.4664,-1.4482,-1.428,-1.3961,-1.3581,-1.332,-1.3213,-1.2781,-1.2399,-1.2003,-1.1929,-1.1818,-1.1595,-1.1484,-1.1372,-1.5964,-1.8008,0.0,-2.043,-2.2288,-2.4404,-2.583,0.0,0.0,0.0,0.0,-2.8057,0.0,0.0,0.0,0.0,0.0,0.0,0.0,0.0,0.0,0.0,0.0,0.0,0.0,0.0,0.0,0.0,0.0,0.0,0.0,0.0,0.0,0.0,0.0,0.0,-3.3174,-3.334,-3.3418,-3.3418,-3.3418,-3.3418,-3.3418,-3.3418,-3.2956,-3.21,-3.1506,-2.9687,-2.702,-2.6234,-2.5584,-2.5127,-2.5127,-2.5127,-2.5127,-2.5127,-2.5127,-2.5127,-2.5127,-2.5127,-2.5127,-2.5127,-2.5127,-2.5127,-2.5127,-2.5127,-2.5127,-2.5127,-2.5127,-2.5127,-2.5127,-2.4877,-2.4437,-2.391,-2.3537,-2.3267,-2.3135,-2.3106,-2.3106,-2.3106,-2.2652,-2.195,-2.0984,-2.0057,-1.9133,-1.8057,-1.7574,-1.7333,-1.7426,-1.7311,-1.7331,-1.7659,-1.7356,-1.7076,-1.6967,-1.659,-1.6021,-1.5233,-1.5007,-1.4698,-1.425,-1.3836,-1.3467,-1.322,-1.2945,-1.2599,-1.2114,-1.2114,-1.2003,-1.1818,-1.1595,-1.1484,-1.812,-1.9338,-2.0771,-2.3144,-2.4199,0.0,-2.7207,-2.7988,-2.8291,-2.8291,0.0,0.0,0.0,0.0,0.0,0.0,0.0,0.0,0.0,0.0,0.0,0.0,0.0,0.0,0.0,0.0,0.0,0.0,0.0,0.0,0.0,0.0,0.0,0.0,0.0,0.0,-3.2744,-3.3154,-3.3369,0.0,-3.3408,-3.3418,-3.3418,-3.3418,-3.3418,-3.3292,-3.1781,-2.9687,-2.7278,-2.702,-2.6167,-2.5127,-2.5127,-2.5127,-2.5127,-2.5127,-2.5127,-2.5127,-2.5127,-2.5127,-2.5127,-2.5127,-2.5127,-2.5127,-2.5127,-2.5127,-2.5127,-2.5127,-2.5127,-2.5127,-2.5127,-2.484,-2.4532,-2.4203,-2.3859,-2.3515,-2.3215,-2.3128,-2.3106,-2.3106,-2.3106,-2.2806,-2.1854,-2.105,-2.0132,-1.8869,-1.7952,-1.7473,-1.7721,-1.7721,-1.7916,-1.8435,-1.8002,-1.7757,-1.7967,-1.7486,-1.6841,-1.6036,-1.577,-1.529,-1.4495,-1.3952,-1.3493,-1.322,-1.2971,-1.2663,-1.2305,-1.2305,-1.2224,-1.2003,-1.1781,-1.1595,-1.8047,-2.0216,0.0,-2.3101,-2.4883,-2.667,-2.7532,-2.7988,-2.8291,-2.8291,0.0,0.0,0.0,0.0,0.0,0.0,0.0,0.0,0.0,0.0,0.0,0.0,0.0,0.0,0.0,0.0,0.0,0.0,0.0,0.0,0.0,0.0,0.0,0.0,0.0,-3.2305,-3.2305,-3.2725,-3.293,0.0,-3.3262,-3.3418,-3.3418,-3.3418,-3.3418,-3.3292,-3.0743,-2.9313,-2.86,-2.6435,-2.539,-2.5127,-2.5127,-2.5127,-2.5127,-2.5127,-2.5127,-2.5127,-2.5127,-2.5127,-2.5127,-2.5127,-2.5127,-2.5127,-2.5127,-2.5127,-2.5127,-2.5127,-2.5127,-2.5127,-2.5127,-2.5075,-2.4936,-2.454,-2.402,-2.3574,-2.3508,-2.3288,-2.3106,-2.3106,-2.3106,-2.2806,-2.1854,-2.0938,-1.9751,-1.816,-1.7943,-1.7947,-1.7994,-1.7994,-1.8141,-1.8481,-1.8365,-1.8209,-1.8028,-1.7889,-1.748,-1.6653,-1.6147,-1.5653,-1.5119,-1.4396,-1.3748,-1.322,-1.3146,-1.2846,-1.2305,-1.2305,-1.2268,-1.2224,-1.1855,-1.1669,-1.9102,-2.082,0.0,-2.4485,0.0,-2.7187,-2.7822,-2.8135,-2.8291,0.0,0.0,0.0,0.0,0.0,0.0,0.0,0.0,0.0,0.0,0.0,0.0,0.0,0.0,0.0,0.0,0.0,0.0,0.0,0.0,0.0,0.0,0.0,0.0,0.0,-3.1631,-3.1855,-3.1855,-3.2285,-3.2598,-3.2793,-3.3018,-3.3223,-3.3418,-3.3418,-3.3418,-3.3292,-3.1139,-2.9826,-2.906,-2.6961,-2.5712,-2.5127,-2.5127,-2.5127,-2.5127,-2.5127,-2.5127,-2.5127,-2.5127,-2.5127,-2.5127,-2.5127,-2.5127,-2.5127,-2.5127,-2.5127,-2.5127,-2.5127,-2.5127,-2.5127,-2.5127,-2.5127,-2.5083,-2.4907,-2.4423,-2.3976,-2.3662,-2.3464,-2.3296,-2.3135,-2.3106,-2.2952,-2.2462,-2.1296,-1.9999,-1.8754,-1.8305,-1.8133,-1.828,-1.828,-1.8373,-1.8604,-1.8651,-1.858,-1.8399,-1.8383,-1.7962,-1.7041,-1.6653,-1.6113,-1.5323,-1.4665,-1.4021,-1.3387,-1.3373,-1.312,-1.2549,-1.2549,-1.2445,-1.2305,-1.2159,-1.2074,-1.9865,-2.1073,-2.2399,-2.6103,-2.7012,0.0,-2.8096,-2.8291,0.0,0.0,0.0,0.0,0.0,0.0,0.0,0.0,0.0,0.0,0.0,0.0,0.0,0.0,0.0,0.0,0.0,0.0,0.0,0.0,0.0,0.0,0.0,0.0,-3.0889,-3.0889,-3.123,-3.1406,-3.1406,-3.1836,-3.2236,-3.2578,-3.2725,-3.2978,-3.331,-3.3389,-3.3418,-3.3292,-3.1643,-3.0281,-2.9051,-2.7411,-2.6107,-2.5127,-2.5127,-2.5127,-2.5127,-2.5127,-2.5127,-2.5127,-2.5127,-2.5127,-2.5127,-2.5127,-2.5127,-2.5127,-2.5127,-2.5127,-2.5127,-2.5127,-2.5127,-2.5127,-2.5127,-2.5127,-2.5127,-2.5127,-2.4914,-2.4488,-2.3888,-2.372,-2.3581,-2.3252,-2.3142,-2.3054,-2.2893,-2.1772,-2.0524,-1.9621,-1.888,-1.8426,-1.8543,-1.8574,-1.8612,-1.8781,-1.8781,-1.8781,-1.8781,-1.8781,-1.8387,-1.7417,-1.712,-1.6526,-1.55,-1.4889,-1.4299,-1.3766,-1.3653,-1.3373,-1.2864,-1.2864,-1.2737,-1.2465,-1.2535,-1.2582,-1.8311,0.0,-2.3564,0.0,-2.7012,-2.7246,0.0,0.0,0.0,0.0,0.0,0.0,0.0,0.0,0.0,0.0,0.0,0.0,0.0,0.0,0.0,0.0,0.0,0.0,0.0,0.0,0.0,0.0,0.0,0.0,0.0,-3.0889,-3.0889,-3.0889,-3.0947,-3.0976,-3.0976,-3.1396,-3.1631,-3.1699,-3.2441,-3.2822,-3.2891,-3.3252,-3.3418,-3.3228,-3.0613,-2.9378,-2.8994,-2.6435,-2.5255,-2.5127,-2.5127,-2.5127,-2.5127,-2.5127,-2.5127,-2.5127,-2.5127,-2.5127,-2.5127,-2.5127,-2.5127,-2.5127,-2.5127,-2.5127,-2.5127,-2.5127,-2.5127,-2.5127,-2.5127,-2.5127,-2.5127,-2.5127,-2.509,-2.4958,-2.4518,-2.4218,-2.3918,-2.3596,-2.3303,-2.2849,-2.203,-2.1898,-2.1324,-1.9727,-1.9576,-1.9462,-1.8854,-1.8743,-1.8781,-1.8781,-1.8781,-1.8781,-1.8781,-1.8781,-1.8581,-1.8018,-1.75,-1.6889,-1.6025,-1.5327,-1.4743,-1.4409,-1.386,-1.344,-1.3153,-1.3153,-1.3126,-1.3093,-1.2936,-1.2837,-1.8916,-2.125,-2.3711,0.0,-2.6836,-2.7178,-2.7803,0.0,0.0,0.0,0.0,0.0,0.0,0.0,0.0,0.0,0.0,0.0,0.0,0.0,0.0,0.0,0.0,0.0,0.0,0.0,0.0,0.0,0.0,0.0,-3.0889,-3.0889,-3.0889,-3.0889,-3.0889,-3.0889,-3.0889,-3.1074,-3.1289,-3.1523,-3.2148,-3.2568,-3.2803,-3.2988,-3.3203,-3.3292,-3.1258,-2.9965,-2.9051,-2.702,-2.5779,-2.5127,-2.5127,-2.5127,-2.5127,-2.5127,-2.5127,-2.5127,-2.5127,-2.5127,-2.5127,-2.5127,-2.5127,-2.5127,-2.5127,-2.5127,-2.5127,-2.5127,-2.5127,-2.5127,-2.5127,-2.5127,-2.5127,-2.5127,-2.5127,-2.5083,-2.4943,-2.465,-2.4203,-2.3691,-2.3479,-2.3193,-2.2593,-2.2275,-2.1725,-2.0507,-2.011,-1.961,-1.887,-1.8781,-1.8781,-1.8781,-1.8781,-1.8781,-1.8781,-1.8781,-1.8596,-1.8133,-1.7613,-1.7034,-1.6385,-1.5633,-1.5064,-1.4776,-1.4188,-1.3748,-1.3413,-1.3413,-1.3367,-1.3213,-1.3253,-1.3292,0.0,0.0,-2.2376,-2.5078,-2.6005,-2.6541,0.0,0.0,0.0,0.0,0.0,0.0,0.0,0.0,0.0,0.0,0.0,0.0,0.0,0.0,0.0,0.0,0.0,0.0,0.0,0.0,0.0,0.0,0.0,0.0,-3.0889,-3.0889,-3.0889,-3.0889,-3.0889,-3.0889,-3.0889,-3.0889,-3.1055,-3.1367,-3.1797,-3.2168,-3.2471,-3.2578,-3.2861,-3.3136,-3.1862,-3.0475,-2.9117,-2.7676,-2.6301,-2.5127,-2.5127,-2.5127,-2.5127,-2.5127,-2.5127,-2.5127,-2.5127,-2.5127,-2.5127,-2.5127,-2.5127,-2.5127,-2.5127,-2.5127,-2.5127,-2.5127,-2.5127,-2.5127,-2.5127,-2.5127,-2.5127,-2.5127,-2.5127,-2.5127,-2.5127,-2.487,-2.443,-2.394,-2.3779,-2.3618,-2.3288,-2.2828,-2.214,-2.1158,-2.0512,-1.9872,-1.8901,-1.8781,-1.8781,-1.8781,-1.8781,-1.8781,-1.8781,-1.8781,-1.8596,-1.8133,-1.7707,-1.7239,-1.6636,-1.5917,-1.5428,-1.5122,-1.4496,-1.4055,-1.3713,-1.364,-1.3533,-1.3434,-1.354,-1.3646,0.0,-1.81,0.0,-2.2935,-2.412,0.0,0.0,0.0,0.0,0.0,0.0,0.0,0.0,0.0,0.0,0.0,0.0,0.0,0.0,0.0,0.0,0.0,0.0,0.0,0.0,0.0,0.0,0.0,0.0,0.0,-3.0889,-3.0889,-3.0889,-3.0889,-3.0889,-3.0889,-3.0889,-3.0889,-3.0898,-3.0928,-3.1348,-3.1562,-3.1601,-3.2012,-3.2432,-3.278,-3.1741,-3.0475,-2.9117,-2.7676,-2.6301,-2.5127,-2.5127,-2.5127,-2.5127,-2.5127,-2.5127,-2.5127,-2.5127,-2.5127,-2.5127,-2.5127,-2.5127,-2.5127,-2.5127,-2.5127,-2.5127,-2.5127,-2.5127,-2.5127,-2.5127,-2.5127,-2.5127,-2.5127,-2.5127,-2.5127,-2.5127,-2.487,-2.4562,-2.4525,-2.4269,-2.3954,-2.3625,-2.353,-2.2939,-2.1239,-2.0962,-2.0427,-1.8996,-1.8781,-1.8781,-1.8781,-1.8781,-1.8781,-1.8781,-1.8781,-1.8596,-1.8133,-1.8087,-1.7613,-1.6629,-1.6241,-1.5844,-1.5371,-1.4796,-1.4355,-1.4062,-1.374,-1.374,-1.4035,-1.3726,-1.3753,0.0,0.0,0.0,-2.0904,-2.2887,-2.4425,0.0,0.0,0.0,0.0,0.0,0.0,0.0,0.0,0.0,0.0,0.0,0.0,0.0,0.0,0.0,0.0,0.0,0.0,0.0,0.0,0.0,0.0,0.0,0.0,-3.0889,-3.0889,-3.0889,-3.0889,-3.0889,-3.0889,-3.0889,-3.0889,-3.0889,-3.0889,-3.1045,-3.126,-3.1523,-3.168,-3.1982,-3.2412,-3.2315,-3.1602,-3.041,-2.9043,-2.761,-2.6301,-2.545,-2.5127,-2.5127,-2.5127,-2.5127,-2.5127,-2.5127,-2.5127,-2.5127,-2.5127,-2.5127,-2.5127,-2.5127,-2.5127,-2.5127,-2.5127,-2.5127,-2.5127,-2.5127,-2.5127,-2.5127,-2.5127,-2.5127,-2.5127,-2.5127,-2.5031,-2.4892,-2.4613,-2.4474,-2.4291,-2.3962,-2.391,-2.348,-2.2184,-2.1575,-2.0864,-1.9649,-1.9099,-1.8781,-1.8781,-1.8781,-1.8781,-1.8781,-1.8781,-1.8735,-1.855,-1.8272,-1.78,-1.7099,-1.6664,-1.6097,-1.5398,-1.501,-1.4569,-1.4088,-1.3746,-1.356,-1.3527,-1.3567,-1.366,-1.707,0.0,0.0,0.0,0.0,0.0,0.0,0.0,0.0,0.0,0.0,0.0,0.0,0.0,0.0,0.0,0.0,0.0,0.0,0.0,0.0,0.0,0.0,0.0,0.0,0.0,0.0,0.0,0.0,0.0,-3.0889,-3.0889,-3.0889,-3.0889,-3.0889,-3.0889,-3.0889,-3.0889,-3.0889,-3.0889,-3.0889,-3.1035,-3.1309,-3.1309,-3.1543,-3.1963,-3.2246,-3.1851,-3.1002,-2.9709,-2.8403,-2.6953,-2.5644,-2.5127,-2.5127,-2.5127,-2.5127,-2.5127,-2.5127,-2.5127,-2.5127,-2.5127,-2.5127,-2.5127,-2.5127,-2.5127,-2.5127,-2.5127,-2.5127,-2.5127,-2.5127,-2.5127,-2.5127,-2.5127,-2.5127,-2.5127,-2.5127,-2.5127,-2.5061,-2.4841,-2.4797,-2.4627,-2.4305,-2.4247,-2.3872,-2.2817,-2.2309,-2.1506,-2.0228,-1.9662,-1.9201,-1.8829,-1.8781,-1.8781,-1.8781,-1.8781,-1.8781,-1.8781,-1.8504,-1.8032,-1.7326,-1.7005,-1.6437,-1.5545,-1.5257,-1.4823,-1.4229,-1.3734,-1.3407,-1.3313,-1.3347,-1.3447,0.0,0.0,0.0,0.0,0.0,0.0,0.0,0.0,0.0,0.0,0.0,0.0,0.0,0.0,0.0,0.0,0.0,0.0,0.0,0.0,0.0,0.0,0.0,0.0,0.0,0.0,0.0,0.0,0.0,-3.0391,-3.085,-3.0889,-3.0889,-3.0889,-3.0889,-3.0889,-3.0889,-3.0889,-3.0889,-3.0889,-3.0889,-3.0889,-3.0889,-3.0889,-3.1113,-3.1504,-3.1514,-3.1226,-3.0663,-2.9651,-2.8452,-2.702,-2.5712,-2.5119,-2.5127,-2.5127,-2.5127,-2.5127,-2.5127,-2.5127,-2.5127,-2.5127,-2.5127,-2.5127,-2.5127,-2.5127,-2.5127,-2.5127,-2.5127,-2.5127,-2.5127,-2.5127,-2.5127,-2.5127,-2.5127,-2.5127,-2.5127,-2.5127,-2.5127,-2.5127,-2.5127,-2.5024,-2.4642,-2.4583,-2.429,-2.3202,-2.3041,-2.2377,-2.0662,-2.0426,-1.9984,-1.8948,-1.8835,-1.8781,-1.8781,-1.8781,-1.8781,-1.8781,-1.8781,-1.8311,-1.7326,-1.7279,-1.681,-1.5832,-1.5545,-1.511,-1.4529,-1.3654,-1.332,-1.358,-1.3079,-1.3093,-1.6839,0.0,0.0,0.0,0.0,0.0,0.0,0.0,0.0,0.0,0.0,0.0,0.0,0.0,0.0,0.0,0.0,0.0,0.0,0.0,0.0,0.0,0.0,0.0,0.0,0.0,0.0,0.0,-3.0029,-3.0254,-3.0381,-3.0703,-3.0889,-3.0889,-3.0889,-3.0889,-3.0889,-3.0889,-3.0889,-3.0889,-3.0889,-3.0889,-3.0889,-3.0889,-3.0957,-3.1074,-3.1387,-3.1401,-3.1239,-3.0544,-2.9646,-2.846,-2.7086,-2.5973,-2.5127,-2.5127,-2.5127,-2.5127,-2.5127,-2.5127,-2.5127,-2.5127,-2.5127,-2.5127,-2.5127,-2.5127,-2.5127,-2.5127,-2.5127,-2.5127,-2.5127,-2.5127,-2.5127,-2.5127,-2.5127,-2.5127,-2.5127,-2.5127,-2.5127,-2.5127,-2.5127,-2.5097,-2.5009,-2.4987,-2.4789,-2.426,-2.3695,-2.2909,-2.1694,-2.0909,-2.0078,-1.9296,-1.8986,-1.8781,-1.8781,-1.8658,-1.8566,-1.8566,-1.8419,-1.7986,-1.7326,-1.7153,-1.6784,-1.6123,-1.5644,-1.5211,-1.4836,-1.3955,-1.3413,-1.3327,-1.3373,-1.3601,-1.7357,-1.7222,0.0,0.0,0.0,0.0,0.0,-2.2584,0.0,0.0,0.0,0.0,0.0,0.0,0.0,0.0,0.0,0.0,0.0,0.0,0.0,0.0,0.0,0.0,0.0,0.0,0.0,0.0,-2.9531,-2.9824,-3.0176,-3.0635,-3.0889,-3.0889,-3.0889,-3.0889,-3.0889,-3.0889,-3.0889,-3.0889,-3.0889,-3.0889,-3.0889,-3.0889,-3.0889,-3.0898,-3.1152,-3.1357,-3.1493,-3.1171,-3.0185,-2.8765,-2.6964,-2.5779,-2.5127,-2.5127,-2.5127,-2.5127,-2.5127,-2.5127,-2.5127,-2.5127,-2.5127,-2.5127,-2.5127,-2.5127,-2.5127,-2.5127,-2.5127,-2.5127,-2.5127,-2.5127,-2.5127,-2.5127,-2.5127,-2.5127,-2.5127,-2.5127,-2.5127,-2.5127,-2.5127,-2.5127,-2.5127,-2.5127,-2.5061,-2.487,-2.4422,-2.3632,-2.2253,-2.1572,-2.0746,-1.9351,-1.9249,-1.9098,-1.872,-1.8699,-1.8621,-1.8342,-1.8187,-1.7846,-1.7326,-1.7113,-1.6744,-1.6224,-1.5765,-1.5378,-1.5008,-1.4202,-1.3614,-1.322,-1.3634,-1.3854,-1.7738,-1.7655,-1.785,0.0,0.0,0.0,-2.285,-2.3193,0.0,0.0,0.0,0.0,0.0,0.0,0.0,0.0,0.0,0.0,0.0,0.0,0.0,0.0,0.0,0.0,0.0,0.0,-2.8447,-2.8818,-2.8887,-2.9287,-3.0146,-3.0596,-3.084,-3.0889,-3.0889,-3.0889,-3.0889,-3.0889,-3.0889,-3.0889,-3.0889,-3.0889,-3.0889,-3.0889,-3.0889,-3.0889,-3.0889,-3.1103,-3.1396,-3.1186,-3.0187,-2.8635,-2.6382,-2.542,-2.5322,-2.5119,-2.5127,-2.5127,-2.5127,-2.5127,-2.5127,-2.5127,-2.5127,-2.5127,-2.5127,-2.5127,-2.5127,-2.5127,-2.5127,-2.5127,-2.5127,-2.5127,-2.5127,-2.5127,-2.5127,-2.5127,-2.5127,-2.5127,-2.5127,-2.5127,-2.5127,-2.5127,-2.5127,-2.5127,-2.5127,-2.5127,-2.5127,-2.4422,-2.2528,-2.2412,-2.1587,-1.937,-1.9522,-1.9477,-1.8645,-1.8808,-1.8752,-1.8216,-1.8069,-1.7813,-1.7337,-1.7041,-1.6697,-1.6224,-1.5933,-1.5558,-1.5055,-1.4422,-1.3848,-1.332,-1.3841,-1.3948,0.0,0.0,0.0,0.0,0.0,0.0,-1.956,-1.9819,-2.0359,0.0,0.0,0.0,0.0,0.0,0.0,0.0,0.0,0.0,0.0,0.0,0.0,0.0,0.0,0.0,0.0,0.0,-2.833,-2.8408,-2.873,-2.9287,-3.0146,-3.0283,-3.0508,-3.0879,-3.0889,-3.0889,-3.0889,-3.0889,-3.0889,-3.0889,-3.0889,-3.0889,-3.0889,-3.0889,-3.0889,-3.0889,-3.0889,-3.0937,-3.0859,-2.9025,-2.9057,-3.0149,-2.8558,-2.7417,-2.6561,-2.5517,-2.5127,-2.5127,-2.5127,-2.5127,-2.5127,-2.5127,-2.5127,-2.5127,-2.5127,-2.5127,-2.5127,-2.5127,-2.5127,-2.5127,-2.5127,-2.5127,-2.5127,-2.5127,-2.5127,-2.5127,-2.5127,-2.5127,-2.5127,-2.5127,-2.5127,-2.5127,-2.5127,-2.5127,-2.5127,-2.5127,-2.5127,-2.4753,-2.3777,-2.2811,-2.1759,-2.0712,-1.9806,-1.9195,-1.9016,-1.8874,-1.8686,-1.8577,-1.793,-1.7496,-1.74,-1.6728,-1.6319,-1.6224,-1.5933,-1.5658,-1.5311,-1.4723,-1.4255,-1.3921,-1.4035,-1.4055,0.0,0.0,0.0,-1.9229,0.0,0.0,0.0,-2.0236,-2.0529,0.0,0.0,0.0,0.0,0.0,0.0,0.0,0.0,0.0,0.0,0.0,0.0,0.0,0.0,0.0,0.0,0.0,-2.8291,-2.8291,-2.8682,-2.9101,-2.9531,-2.9961,-3.0303,-3.0537,-3.0771,-3.0889,-3.0889,-3.0889,-3.0889,-3.0889,-3.0889,-3.0889,-3.0889,-3.0889,-3.0889,-3.0889,-3.0889,-3.0889,-3.0791,-2.9645,-2.9962,-3.0803,-2.776,-2.628,-2.5804,-2.5263,-2.5127,-2.5127,-2.5127,-2.5127,-2.5127,-2.5127,-2.5127,-2.5127,-2.5127,-2.5127,-2.5127,-2.5127,-2.5127,-2.5127,-2.5127,-2.5127,-2.5127,-2.5127,-2.5127,-2.5127,-2.5127,-2.5127,-2.5127,-2.5127,-2.5127,-2.5127,-2.5127,-2.5127,-2.5127,-2.5127,-2.5127,-2.4775,-2.392,-2.3358,-2.2446,-2.0955,-2.0491,-1.9907,-1.8981,-1.8907,-1.8781,-1.8328,-1.7872,-1.7576,-1.7478,-1.694,-1.6497,-1.6258,-1.5953,-1.5711,-1.5611,-1.517,-1.4736,-1.4302,-1.4302,-1.4222,0.0,0.0,0.0,0.0,0.0,-1.9526,0.0,0.0,0.0,-2.243,0.0,0.0,0.0,0.0,0.0,0.0,0.0,0.0,0.0,0.0,0.0,0.0,0.0,0.0,0.0,0.0,-2.7939,-2.8271,-2.8301,-2.8486,-2.8896,-2.958,-3.0029,-3.0185,-3.0566,-3.0801,-3.0889,-3.0889,-3.0889,-3.0889,-3.0889,-3.0889,-3.0889,-3.0889,-3.0889,-3.0889,-3.0889,-3.0889,-3.0889,-3.0645,-3.0583,-3.0344,-2.6665,-2.5287,-2.5378,-2.5204,-2.5127,-2.5127,-2.5127,-2.5127,-2.5127,-2.5127,-2.5127,-2.5127,-2.5127,-2.5127,-2.5127,-2.5127,-2.5127,-2.5127,-2.5127,-2.5127,-2.5127,-2.5127,-2.5127,-2.5127,-2.5127,-2.5127,-2.5127,-2.5127,-2.5127,-2.5127,-2.5127,-2.5127,-2.5127,-2.5127,-2.5127,-2.4841,-2.3976,-2.3912,-2.3143,-2.1096,-2.1163,-2.0647,-1.8979,-1.9033,-1.8919,-1.8117,-1.7996,-1.7803,-1.7546,-1.7198,-1.6806,-1.6409,-1.6119,-1.5951,-1.5951,-1.5705,-1.5237,-1.4603,-1.4543,-1.4362,0.0,0.0,0.0,0.0,-2.0017,0.0,0.0,0.0,-1.956,-1.9158,0.0,0.0,0.0,0.0,0.0,0.0,0.0,0.0,0.0,0.0,0.0,0.0,0.0,0.0,0.0,0.0,0.0,-2.8174,-2.6934,-2.6873,-2.8818,-2.9014,-2.9414,-3.0176,-3.0244,-3.0478,-3.0889,-3.0889,-3.0889,-3.0889,-3.0889,-3.0889,-3.0889,-3.0889,-3.0889,-3.0889,-3.0889,-3.0889,-3.083,-2.9599,-2.867,-2.7956,-2.7701,-2.781,-2.7879,-2.5851,-2.5127,-2.5127,-2.5127,-2.5127,-2.5127,-2.5127,-2.5127,-2.5127,-2.5127,-2.5127,-2.5127,-2.5127,-2.5127,-2.5127,-2.5127,-2.5127,-2.5127,-2.5127,-2.5127,-2.5127,-2.5127,-2.5127,-2.5127,-2.5127,-2.5127,-2.5127,-2.5127,-2.5127,-2.5127,-2.5127,-2.5127,-2.5083,-2.4973,-2.4202,-2.3241,-2.2134,-2.1275,-2.0351,-1.9309,-1.925,-1.9154,-1.8814,-1.8278,-1.7874,-1.7575,-1.7056,-1.6744,-1.666,-1.662,-1.6607,-1.6607,-1.6313,-1.5785,-1.4955,-1.4643,-1.4362,0.0,0.0,0.0,0.0,0.0,0.0,0.0,0.0,-1.9201,0.0,0.0,0.0,0.0,0.0,0.0,0.0,0.0,0.0,0.0,0.0,0.0,0.0,0.0,0.0,0.0,0.0,0.0,0.0,0.0,-2.6512,-2.8457,-2.8789,-2.9199,-2.9814,-3.0068,-3.042,-3.0889,-3.0889,-3.0889,-3.0889,-3.0889,-3.0889,-3.0889,-3.0889,-3.0889,-3.0889,-3.0889,-3.0889,-3.083,-3.0274,-2.9476,-2.8578,-2.8159,-2.7266,-2.6152,-2.5398,-2.5127,-2.5127,-2.5127,-2.5127,-2.5127,-2.5127,-2.5127,-2.5127,-2.5127,-2.5127,-2.5127,-2.5127,-2.5127,-2.5127,-2.5127,-2.5127,-2.5127,-2.5127,-2.5127,-2.5127,-2.5127,-2.5127,-2.5127,-2.5127,-2.5127,-2.5127,-2.5127,-2.5127,-2.5127,-2.5127,-2.5127,-2.5127,-2.5127,-2.4701,-2.4079,-2.3106,-2.2147,-2.1174,-2.0201,-1.9601,-1.9116,-1.8646,-1.8102,-1.7714,-1.7617,-1.7224,-1.7018,-1.7018,-1.6794,-1.662,-1.6453,-1.6333,-1.5905,-1.5211,-1.4917,-1.4623,-2.2244,0.0,0.0,0.0,0.0,0.0,0.0,0.0,0.0,0.0,0.0,0.0,0.0,0.0,0.0,0.0,0.0,0.0,0.0,0.0,0.0,0.0,0.0,0.0,0.0,0.0,0.0,0.0,0.0,0.0,-2.8174,-2.8584,-2.8945,-2.9375,-2.9805,-3.0244,-3.0693,-3.083,-3.0889,-3.0889,-3.0889,-3.0889,-3.0889,-3.0889,-3.0889,-3.0889,-3.0889,-3.0889,-3.0898,-3.1016,-3.026,-2.8993,-2.8369,-2.6777,-2.4797,-2.5031,-2.5127,-2.5127,-2.5127,-2.5127,-2.5127,-2.5127,-2.5127,-2.5127,-2.5127,-2.5127,-2.5127,-2.5127,-2.5127,-2.5127,-2.5127,-2.5127,-2.5127,-2.5127,-2.5127,-2.5127,-2.5127,-2.5127,-2.5127,-2.5127,-2.5127,-2.5127,-2.5127,-2.5127,-2.5127,-2.5127,-2.5127,-2.5127,-2.5127,-2.5127,-2.4686,-2.3698,-2.2747,-2.1789,-2.0808,-1.9835,-1.9063,-1.8422,-1.7898,-1.7582,-1.7582,-1.7434,-1.732,-1.732,-1.6981,-1.676,-1.6683,-1.6442,-1.6092,-1.5745,-1.5291,-1.4923,0.0,0.0,0.0,-2.1473,0.0,0.0,0.0,0.0,-1.9772,0.0,0.0,0.0,0.0,0.0,-1.9046,-1.8592,0.0,0.0,0.0,0.0,0.0,0.0,0.0,0.0,0.0,0.0,0.0,0.0,0.0,0.0,-2.8115,-2.8301,-2.8506,-2.8926,-2.9365,-2.9795,-3.0215,-3.0664,-3.0889,-3.0889,-3.0889,-3.0889,-3.0889,-3.0889,-3.0889,-3.0889,-3.0889,-3.0889,-3.0928,-3.1328,-3.0129,-2.8072,-2.8439,-2.7139,-2.5112,-2.5119,-2.5127,-2.5127,-2.5127,-2.5127,-2.5127,-2.5127,-2.5127,-2.5127,-2.5127,-2.5127,-2.5127,-2.5127,-2.5127,-2.5127,-2.5127,-2.5127,-2.5127,-2.5127,-2.5127,-2.5127,-2.5127,-2.5127,-2.5127,-2.5127,-2.5127,-2.5127,-2.5127,-2.5127,-2.5127,-2.5127,-2.5127,-2.5127,-2.5127,-2.5127,-2.4686,-2.3698,-2.2747,-2.1789,-2.0808,-1.9835,-1.9063,-1.8422,-1.7898,-1.7582,-1.7582,-1.7575,-1.7569,-1.7569,-1.7333,-1.732,-1.7542,-1.6687,-1.6406,-1.6647,-1.5778,-1.5224,0.0,0.0,-2.5031,-2.2737,0.0,0.0,0.0,0.0,0.0,0.0,0.0,0.0,0.0,0.0,-1.9229,-1.9333,-1.8869,-1.8606,0.0,0.0,0.0,0.0,0.0,0.0,0.0,0.0,0.0,0.0,0.0,0.0,0.0,-2.8291,-2.8486,-2.8906,-2.9346,-2.9766,-3.0195,-3.0664,-3.0889,-3.0889,-3.0889,-3.0889,-3.0889,-3.0889,-3.0889,-3.0889,-3.0889,-3.0889,-3.0928,-3.1348,-3.0148,-2.8026,-2.8456,-2.7155,-2.5127,-2.5127,-2.5127,-2.5127,-2.5127,-2.5127,-2.5127,-2.5127,-2.5127,-2.5127,-2.5127,-2.5127,-2.5127,-2.5127,-2.5127,-2.5127,-2.5127,-2.5127,-2.5127,-2.5127,-2.5127,-2.5127,-2.5127,-2.5127,-2.5127,-2.5127,-2.5127,-2.5127,-2.5127,-2.5127,-2.5127,-2.5127,-2.5127,-2.5127,-2.5127,-2.5127,-2.4995,-2.4598,-2.3698,-2.2732,-2.1767,-1.9873,-1.8639,-1.8422,-1.7898,-1.7582,-1.7582,-1.7582,-1.7582,-1.7582,-1.7482,-1.744,-1.7347,-1.7052,-1.6851,-1.6693,-1.6206,-1.5712,-2.6524,-2.6616,0.0,-2.4072,-2.3737,0.0,-2.1322,0.0,0.0,0.0,0.0,0.0,0.0,0.0,-1.9457,-1.9124,-1.8883,-1.8748,0.0,-1.807,0.0,0.0,0.0,0.0,0.0,0.0,0.0,-2.4815,-2.4861,0.0,0.0,0.0,-2.8418,-2.8682,-2.9268,-2.9697,-2.9971,-3.0586,-3.0889,-3.0889,-3.0889,-3.0889,-3.0889,-3.0889,-3.0889,-3.0889,-3.0889,-3.0976,-3.1084,-3.1015,-2.9922,-2.8222,-2.8081,-2.688,-2.5127,-2.5127,-2.5127,-2.5127,-2.5127,-2.5127,-2.5127,-2.5127,-2.5127,-2.5127,-2.5127,-2.5127,-2.5097,-2.498,-2.5031,-2.5097,-2.498,-2.5039,-2.5127,-2.5127,-2.5127,-2.5127,-2.5127,-2.5127,-2.5127,-2.5127,-2.5127,-2.5127,-2.5127,-2.5127,-2.5127,-2.5127,-2.5127,-2.5127,-2.5127,-2.5127,-2.5127,-2.5127,-2.4181,-2.3069,-2.1774,-1.964,-1.8422,-1.8422,-1.7898,-1.7582,-1.7582,-1.7582,-1.7582,-1.7582,-1.7534,-1.744,-1.7353,-1.7146,-1.6947,-1.6854,-1.646,-1.6066]},{"header":{"parameterUnit":"m.s-1","parameterCategory":1,"la1":30.6,"la2":29.2853,"lo1":-89.7004,"lo2":-87.6739,"dy":0.0162,"dx":0.0183,"nx":112,"ny":82,"refTime":"2023-05-06T12:00:00:Z","depth":0,"parameterNumber":3,"parameterNumberName":"V-component_of_WINDS"},"data":[0.0,0.0,0.0,0.0,0.0,0.0,0.0,0.0,0.0,0.0,0.0,0.0,0.0,0.0,0.0,0.0,0.0,0.0,0.0,0.0,0.0,0.0,0.0,0.0,0.0,0.0,0.0,0.0,0.0,0.0,0.0,0.0,0.0,0.0,0.0,0.0,0.0,0.0,0.0,0.0,0.0,0.0,0.0,0.0,0.0,0.0,0.0,0.0,0.0,0.0,0.0,0.0,0.0,0.0,0.0,0.0,0.0,0.0,0.0,0.0,0.0,0.0,0.0,0.0,0.0,0.0,0.0,0.0,0.0,0.0,0.0,0.0,0.0,0.0,0.0,0.0,0.0,0.0,0.0,0.0,0.0,0.0,0.0,0.0,0.0,0.0,0.0,0.0,0.0,0.0,0.0,2.0335,2.038,2.0362,2.0472,1.9799,2.0136,2.1874,0.0,0.0,0.0,0.0,0.0,0.0,0.0,0.0,0.0,0.0,0.0,0.0,0.0,0.0,0.0,0.0,0.0,0.0,0.0,0.0,0.0,0.0,0.0,0.0,0.0,0.0,0.0,0.0,0.0,0.0,0.0,0.0,0.0,0.0,0.0,0.0,0.0,0.0,0.0,0.0,0.0,0.0,0.0,0.0,0.0,0.0,0.0,0.0,0.0,0.0,0.0,0.0,0.0,0.0,0.0,0.0,0.0,0.0,0.0,0.0,0.0,0.0,0.0,0.0,0.0,0.0,0.0,0.0,0.0,0.0,0.0,0.0,0.0,0.0,0.0,0.0,0.0,0.0,0.0,0.0,0.0,0.0,0.0,0.0,0.0,0.0,0.0,0.0,0.0,0.0,0.0,0.0,0.0,0.0,0.0,0.0,0.0,0.0,0.0,0.0,0.0,0.0,0.0,0.0,1.928,1.9485,1.8908,1.8779,1.9441,1.9386,2.006,2.1808,0.0,0.0,0.0,0.0,0.0,0.0,0.0,0.0,0.0,0.0,0.0,0.0,0.0,0.0,0.0,0.0,0.0,0.0,0.0,0.0,0.0,0.0,0.0,0.0,0.0,0.0,0.0,0.0,0.0,0.0,0.0,0.0,0.0,0.0,0.0,0.0,0.0,0.0,0.0,0.0,0.0,0.0,0.0,0.0,0.0,0.0,0.0,0.0,0.0,0.0,0.0,0.0,0.0,0.0,0.0,0.0,0.0,0.0,0.0,0.0,0.0,0.0,0.0,0.0,0.0,0.0,0.0,0.0,0.0,0.0,0.0,0.0,0.0,0.0,0.0,0.0,0.0,0.0,0.0,0.0,0.0,0.0,0.0,0.0,0.0,0.0,0.0,0.0,0.0,0.0,0.0,0.0,0.0,0.0,0.0,0.0,0.0,0.0,0.0,0.0,0.0,0.0,0.0,1.9136,1.9364,1.9315,1.8992,1.9121,1.9895,1.9546,1.9835,2.1113,2.13,0.0,0.0,0.0,0.0,0.0,0.0,0.0,0.0,0.0,0.0,0.0,0.0,0.0,0.0,0.0,0.0,0.0,0.0,0.0,0.0,0.0,0.0,0.0,0.0,0.0,0.0,0.0,0.0,0.0,0.0,0.0,0.0,0.0,0.0,0.0,0.0,0.0,0.0,0.0,0.0,0.0,0.0,0.0,0.0,0.0,0.0,0.0,0.0,0.0,0.0,0.0,0.0,0.0,0.0,0.0,0.0,0.0,0.0,0.0,0.0,0.0,0.0,0.0,0.0,0.0,0.0,0.0,0.0,0.0,0.0,0.0,0.0,0.0,0.0,0.0,0.0,0.0,0.0,0.0,0.0,0.0,0.0,0.0,0.0,0.0,0.0,0.0,0.0,0.0,0.0,0.0,0.0,0.0,0.0,0.0,0.0,0.0,0.0,0.0,0.0,0.0,0.0,1.8507,1.8753,1.9291,1.9379,1.9729,2.047,1.9982,2.0086,2.1147,2.1146,0.0,0.0,0.0,0.0,0.0,0.0,0.0,0.0,0.0,0.0,0.0,0.0,0.0,0.0,0.0,0.0,0.0,0.0,0.0,0.0,0.0,0.0,0.0,0.0,0.0,0.0,0.0,0.0,0.0,0.0,0.0,0.0,0.0,0.0,0.0,0.0,0.0,0.0,0.0,0.0,0.0,0.0,0.0,0.0,0.0,0.0,0.0,0.0,0.0,0.0,0.0,0.0,0.0,0.0,0.0,0.0,0.0,0.0,0.0,0.0,0.0,0.0,0.0,0.0,0.0,0.0,0.0,0.0,0.0,0.0,0.0,0.0,0.0,0.0,0.0,0.0,0.0,0.0,0.0,0.0,0.0,0.0,0.0,0.0,0.0,0.0,0.0,0.0,0.0,0.0,0.0,0.0,0.0,0.0,0.0,0.0,0.0,0.0,0.0,0.0,0.0,0.0,1.7438,1.6934,1.9235,1.9483,1.9815,2.0628,2.0628,2.1295,2.2914,2.2374,0.0,0.0,0.0,0.0,0.0,0.0,0.0,0.0,0.0,0.0,0.0,0.0,0.0,0.0,0.0,0.0,0.0,0.0,0.0,0.0,0.0,0.0,0.0,0.0,0.0,0.0,0.0,0.0,0.0,0.0,0.0,0.0,0.0,0.0,0.0,0.0,0.0,0.0,0.0,0.0,0.0,0.0,0.0,0.0,0.0,0.0,0.0,0.0,0.0,0.0,0.0,0.0,0.0,0.0,0.0,0.0,0.0,0.0,0.0,0.0,0.0,0.0,0.0,0.0,0.0,0.0,0.0,0.0,0.0,0.0,0.0,0.0,0.0,0.0,0.0,0.0,0.0,0.0,0.0,0.0,0.0,0.0,0.0,0.0,0.0,0.0,0.0,0.0,0.0,0.0,0.0,0.0,0.0,0.0,0.0,0.0,0.0,0.0,0.0,0.0,0.0,0.0,1.7908,1.7693,0.0,1.9172,1.9623,1.9933,2.0414,2.0973,2.1609,0.0,0.0,0.0,0.0,0.0,0.0,0.0,0.0,0.0,0.0,0.0,0.0,0.0,0.0,0.0,0.0,0.0,0.0,0.0,0.0,0.0,0.0,0.0,0.0,0.0,0.0,0.0,0.0,0.0,0.0,0.0,0.0,0.0,0.0,0.0,0.0,0.0,0.0,0.0,0.0,0.0,0.0,0.0,0.0,0.0,0.0,0.0,0.0,0.0,0.0,0.0,0.0,0.0,0.0,0.0,0.0,0.0,0.0,0.0,0.0,0.0,0.0,0.0,0.0,0.0,0.0,0.0,0.0,0.0,0.0,0.0,0.0,0.0,0.0,0.0,0.0,0.0,0.0,0.0,0.0,0.0,0.0,0.0,0.0,0.0,0.0,0.0,0.0,0.0,0.0,0.0,0.0,0.0,0.0,0.0,0.0,0.0,0.0,0.0,0.0,0.0,0.0,1.868,1.8441,1.8392,0.0,1.9411,1.99,1.9908,2.0426,2.0941,2.1461,0.0,0.0,0.0,0.0,0.0,0.0,0.0,0.0,0.0,0.0,0.0,0.0,0.0,0.0,0.0,0.0,0.0,0.0,0.0,0.0,0.0,0.0,0.0,0.0,0.0,0.0,0.0,0.0,0.0,0.0,0.0,0.0,0.0,0.0,0.0,0.0,0.0,0.0,0.0,0.0,0.0,0.0,0.0,0.0,0.0,0.0,0.0,0.0,0.0,0.0,0.0,0.0,0.0,0.0,0.0,0.0,0.0,0.0,0.0,0.0,0.0,0.0,0.0,0.0,0.0,0.0,0.0,0.0,0.0,0.0,0.0,0.0,0.0,0.0,0.0,0.0,0.0,0.0,0.0,0.0,0.0,0.0,0.0,0.0,0.0,0.0,0.0,0.0,0.0,0.0,0.0,0.0,0.0,0.0,0.0,0.0,0.0,0.0,0.0,0.0,0.0,0.0,1.9483,1.8839,1.8635,1.9509,2.0325,2.079,2.079,2.079,2.1484,0.0,0.0,0.0,0.0,0.0,0.0,0.0,0.0,0.0,0.0,0.0,0.0,0.0,0.0,0.0,0.0,0.0,0.0,0.0,0.0,0.0,0.0,0.0,0.0,0.0,0.0,0.0,0.0,0.0,0.0,0.0,0.0,0.0,0.0,0.0,0.0,0.0,0.0,0.0,0.0,0.0,0.0,0.0,0.0,0.0,0.0,0.0,0.0,0.0,0.0,0.0,0.0,0.0,0.0,0.0,0.0,0.0,0.0,0.0,0.0,0.0,0.0,0.0,0.0,0.0,0.0,0.0,0.0,0.0,0.0,0.0,0.0,0.0,0.0,0.0,0.0,0.0,0.0,0.0,0.0,0.0,0.0,0.0,0.0,0.0,0.0,0.0,0.0,0.0,0.0,0.0,0.0,0.0,0.0,0.0,0.0,0.0,0.0,0.0,0.0,0.0,0.0,0.0,2.033,1.971,1.9323,1.9571,2.0325,2.0567,1.9998,2.0474,2.1001,2.1488,0.0,0.0,0.0,0.0,0.0,0.0,0.0,0.0,0.0,0.0,0.0,0.0,0.0,0.0,0.0,0.0,0.0,0.0,0.0,0.0,0.0,0.0,0.0,0.0,0.0,0.0,0.0,0.0,0.0,0.0,0.0,0.0,0.0,0.0,0.0,0.0,0.0,0.0,0.0,0.0,0.0,0.0,0.0,0.0,0.0,0.0,0.0,0.0,0.0,0.0,0.0,0.0,0.0,0.0,0.0,0.0,0.0,0.0,0.0,0.0,0.0,0.0,0.0,0.0,0.0,0.0,0.0,0.0,0.0,0.0,0.0,0.0,0.0,0.0,0.0,0.0,0.0,0.0,0.0,0.0,0.0,0.0,0.0,0.0,0.0,0.0,0.0,0.0,0.0,0.0,0.0,0.0,0.0,0.0,0.0,0.0,0.0,0.0,0.0,0.0,0.0,0.0,2.0752,2.007,1.9609,1.9609,2.0036,2.0128,1.9646,2.0028,2.0307,2.0281,0.0,0.0,0.0,0.0,0.0,0.0,0.0,0.0,0.0,0.0,0.0,0.0,0.0,0.0,0.0,0.0,0.0,0.0,0.0,0.0,0.0,0.0,0.0,0.0,0.0,0.0,0.0,0.0,0.0,0.0,0.0,0.0,0.0,0.0,0.0,0.0,0.0,0.0,0.0,0.0,0.0,0.0,0.0,0.0,0.0,0.0,0.0,0.0,0.0,0.0,0.0,0.0,0.0,0.0,0.0,0.0,0.0,0.0,0.0,0.0,0.0,0.0,0.0,0.0,0.0,0.0,0.0,0.0,0.0,0.0,0.0,0.0,0.0,0.0,0.0,0.0,0.0,0.0,0.0,0.0,0.0,0.0,0.0,0.0,0.0,0.0,0.0,0.0,0.0,0.0,0.0,0.0,0.0,0.0,0.0,0.0,0.0,0.0,0.0,0.0,0.0,0.0,2.0893,2.014,1.9609,1.9609,1.9609,1.9609,1.9609,1.9609,1.9532,1.9397,0.0,0.0,0.0,0.0,0.0,0.0,0.0,0.0,0.0,0.0,0.0,0.0,0.0,0.0,0.0,0.0,0.0,0.0,0.0,0.0,0.0,0.0,0.0,0.0,0.0,0.0,0.0,0.0,0.0,0.0,0.0,0.0,0.0,0.0,0.0,0.0,0.0,0.0,0.0,0.0,0.0,0.0,0.0,0.0,0.0,0.0,0.0,0.0,0.0,0.0,0.0,0.0,0.0,0.0,0.0,0.0,0.0,0.0,0.0,0.0,2.5672,0.0,0.0,0.0,0.0,0.0,0.0,0.0,0.0,0.0,0.0,0.0,0.0,0.0,0.0,0.0,0.0,0.0,0.0,0.0,0.0,0.0,0.0,0.0,0.0,0.0,0.0,0.0,0.0,0.0,0.0,0.0,0.0,0.0,0.0,0.0,0.0,0.0,0.0,0.0,0.0,0.0,2.1663,2.0452,1.9609,1.9609,1.9609,1.9609,1.9609,1.9609,1.9298,1.8596,0.0,0.0,0.0,0.0,0.0,0.0,0.0,0.0,0.0,0.0,0.0,0.0,0.0,0.0,0.0,0.0,0.0,0.0,0.0,0.0,0.0,0.0,0.0,0.0,0.0,0.0,0.0,0.0,0.0,0.0,0.0,0.0,0.0,0.0,0.0,0.0,0.0,0.0,0.0,0.0,0.0,0.0,0.0,0.0,0.0,0.0,0.0,0.0,0.0,0.0,0.0,0.0,0.0,0.0,0.0,0.0,0.0,0.0,0.0,0.0,0.0,2.6874,0.0,0.0,0.0,0.0,0.0,0.0,0.0,0.0,0.0,0.0,0.0,0.0,0.0,0.0,0.0,0.0,0.0,0.0,0.0,0.0,0.0,0.0,0.0,0.0,0.0,0.0,0.0,0.0,0.0,0.0,0.0,0.0,0.0,0.0,0.0,0.0,0.0,0.0,0.0,0.0,2.1946,2.0571,1.9609,1.9609,1.9609,1.9609,1.9609,1.9609,1.923,1.8357,1.8757,0.0,0.0,0.0,0.0,0.0,0.0,0.0,0.0,0.0,0.0,0.0,0.0,0.0,0.0,0.0,0.0,0.0,0.0,0.0,0.0,0.0,0.0,0.0,0.0,0.0,0.0,0.0,0.0,0.0,0.0,0.0,0.0,0.0,0.0,0.0,0.0,0.0,0.0,0.0,0.0,0.0,0.0,0.0,0.0,0.0,0.0,0.0,0.0,0.0,0.0,0.0,0.0,0.0,0.0,3.3879,3.4712,3.591,3.5747,3.4516,3.5186,3.2343,2.7254,0.0,0.0,0.0,0.0,0.0,0.0,0.0,0.0,0.0,0.0,0.0,0.0,0.0,0.0,0.0,0.0,0.0,0.0,0.0,0.0,0.0,0.0,0.0,0.0,0.0,2.2771,2.2423,0.0,0.0,0.0,0.0,0.0,0.0,0.0,0.0,0.0,0.0,0.0,0.0,2.181,2.0511,1.9609,1.9609,1.9609,1.9609,1.9609,1.9609,1.923,1.8358,1.8223,1.7938,0.0,0.0,0.0,0.0,0.0,0.0,0.0,0.0,0.0,0.0,0.0,0.0,0.0,0.0,0.0,0.0,0.0,0.0,0.0,0.0,0.0,0.0,0.0,0.0,0.0,0.0,0.0,0.0,0.0,0.0,0.0,0.0,3.0206,2.7423,0.0,0.0,0.0,0.0,0.0,0.0,0.0,0.0,0.0,0.0,0.0,0.0,0.0,0.0,3.3795,3.3491,3.4083,3.5587,3.7515,3.8876,3.9747,4.2593,4.3769,4.357,4.3697,0.0,3.1202,2.8572,0.0,0.0,0.0,0.0,0.0,0.0,0.0,0.0,0.0,0.0,0.0,0.0,0.0,0.0,0.0,0.0,0.0,0.0,0.0,0.0,0.0,0.0,2.1863,2.111,2.1508,2.1793,0.0,2.1881,2.2733,2.2035,0.0,0.0,0.0,0.0,0.0,0.0,0.0,0.0,2.1049,2.0158,1.9609,1.9609,1.9609,1.9609,1.9609,1.9609,1.923,1.8358,1.7659,1.7554,1.8205,1.7587,0.0,0.0,0.0,0.0,0.0,0.0,0.0,0.0,0.0,0.0,0.0,0.0,0.0,0.0,0.0,0.0,0.0,0.0,0.0,0.0,0.0,0.0,0.0,0.0,0.0,0.0,0.0,0.0,0.0,2.7978,2.8485,2.5715,2.7278,2.7514,0.0,0.0,0.0,0.0,0.0,0.0,0.0,0.0,0.0,3.2488,3.5693,3.756,3.7904,3.9386,4.0491,4.1216,4.2213,4.2902,4.33,4.4657,4.5291,4.5291,4.5291,4.3118,3.9315,3.6125,3.3495,3.1392,0.0,0.0,0.0,0.0,0.0,2.9269,2.843,0.0,0.0,0.0,0.0,0.0,0.0,0.0,0.0,0.0,0.0,0.0,0.0,0.0,0.0,2.3934,2.3934,2.432,2.351,2.3574,2.3407,0.0,2.1946,2.2076,2.2452,0.0,0.0,0.0,0.0,0.0,2.0845,2.011,1.9609,1.9609,1.9609,1.9609,1.9609,1.9156,1.8711,1.8321,1.7114,1.6823,1.7689,1.7389,1.7959,0.0,0.0,0.0,0.0,0.0,0.0,0.0,0.0,0.0,0.0,0.0,0.0,0.0,0.0,0.0,0.0,0.0,0.0,0.0,0.0,0.0,0.0,0.0,0.0,0.0,0.0,0.0,0.0,2.7779,2.8576,2.595,2.8123,2.8871,0.0,0.0,0.0,0.0,0.0,0.0,3.1904,3.4787,3.6419,3.6419,4.0058,4.2049,4.2049,4.4621,4.6015,4.6214,4.6214,4.6323,4.6522,4.6522,4.6522,4.6522,4.6522,4.6522,4.6214,4.2176,3.868,3.5817,3.5597,3.5509,3.5401,3.4603,3.4443,3.448,3.3683,3.3791,3.4298,3.4298,0.0,3.5261,3.5677,0.0,0.0,0.0,0.0,3.0393,2.7448,0.0,3.0423,2.6391,2.605,2.6426,2.561,2.517,2.4413,0.0,2.2094,2.2012,2.2267,0.0,0.0,0.0,0.0,2.1346,2.1124,2.0585,2.0214,2.0214,2.0214,2.0214,2.0214,1.962,1.9249,1.9249,1.7745,1.7132,1.7795,1.7428,1.7599,1.8451,0.0,0.0,0.0,0.0,0.0,0.0,0.0,0.0,0.0,0.0,0.0,0.0,0.0,0.0,0.0,0.0,0.0,0.0,0.0,0.0,0.0,0.0,0.0,0.0,0.0,0.0,0.0,0.0,0.0,3.1034,3.2125,0.0,0.0,0.0,0.0,3.5025,3.5388,3.6127,3.7701,4.0039,4.1343,4.1343,4.4492,4.6196,4.6196,4.712,4.795,4.871,4.871,4.913,4.9858,4.9858,4.9858,4.9858,4.9858,4.9858,4.9387,4.3174,4.0037,3.8874,3.5908,3.4712,3.4576,3.3829,3.3999,3.448,3.3683,3.3429,3.3465,3.3465,3.3502,3.381,3.5333,3.5665,0.0,0.0,3.5615,3.5917,3.1329,3.0867,3.0565,2.6462,2.6158,2.6566,2.5754,2.616,2.5966,0.0,2.252,2.2237,2.3017,0.0,2.3147,2.3147,2.311,2.2794,2.2033,2.1903,2.1885,2.1885,2.1885,2.1885,2.1885,2.1848,2.181,2.181,2.0288,1.9423,1.9479,1.8019,1.7571,1.8391,1.8507,0.0,0.0,0.0,0.0,0.0,0.0,0.0,0.0,0.0,0.0,0.0,0.0,0.0,0.0,0.0,0.0,0.0,0.0,0.0,0.0,0.0,0.0,0.0,0.0,0.0,0.0,0.0,0.0,3.3393,3.5657,0.0,0.0,3.4132,3.5238,3.7196,3.8736,4.0075,4.118,4.3987,4.5796,4.6321,4.7443,4.8297,4.8804,4.9094,4.9383,4.9673,4.9673,4.9818,5.0112,5.0112,5.0112,5.0112,5.0112,5.0112,4.993,4.7648,4.6235,4.5401,4.4279,4.3518,4.2937,4.214,4.2031,4.214,4.1343,4.1397,4.1922,4.2429,4.2611,4.223,4.0202,3.9604,3.9183,3.7046,3.8368,3.9715,3.6613,3.6026,3.5197,3.1114,2.882,2.734,2.6482,2.616,2.5773,2.4921,2.4097,2.3299,2.2563,2.2423,2.2423,2.2423,2.2423,2.2312,2.2033,2.1996,2.1996,2.1996,2.1996,2.1996,2.1996,2.1532,2.1209,2.1178,2.0133,1.9748,2.0218,1.9697,1.9781,2.0641,2.0682,2.0627,0.0,0.0,0.0,0.0,0.0,0.0,0.0,0.0,0.0,0.0,0.0,0.0,0.0,0.0,0.0,0.0,0.0,0.0,0.0,0.0,0.0,0.0,0.0,0.0,0.0,0.0,3.5512,3.5783,3.8409,3.9659,3.8319,3.8681,3.9785,4.1669,4.3262,4.4474,4.5292,4.7355,4.8749,4.9293,4.9582,4.9963,5.051,5.0782,5.0904,5.0904,5.0904,5.0904,5.0904,5.0904,5.0904,5.0904,5.0904,5.0904,5.0904,5.0904,5.0434,4.9691,4.942,4.8985,4.846,4.7916,4.7699,4.7645,4.7102,4.7265,4.7808,4.8333,4.8333,4.7606,4.4927,4.3969,4.3375,4.1429,4.2465,4.3578,4.1001,3.9574,3.7706,3.3392,3.0145,2.7724,2.6595,2.618,2.5959,2.5699,2.4976,2.4095,2.3025,2.2839,2.294,2.3211,2.3025,2.2932,2.3211,2.3007,2.2839,2.2839,2.2839,2.2839,2.2839,2.2346,2.2025,2.1951,2.1192,2.0965,2.1416,2.1176,2.1313,2.189,2.193,2.1889,2.1738,0.0,0.0,0.0,0.0,0.0,0.0,0.0,0.0,0.0,0.0,0.0,0.0,0.0,0.0,0.0,0.0,0.0,0.0,0.0,0.0,0.0,0.0,0.0,3.2578,3.6508,3.9206,3.8553,4.0492,4.2193,4.3009,4.3118,4.4729,4.8637,4.8945,4.9329,5.0112,5.0166,5.0184,5.0184,5.0923,5.1339,5.1339,5.2136,5.2534,5.2534,5.2552,5.257,5.257,5.257,5.257,5.257,5.2552,5.2534,5.2534,5.2498,5.2027,5.1249,5.0456,5.013,5.0112,5.0112,5.0112,5.0112,5.0112,5.0112,5.0112,5.0112,4.9564,4.8927,4.8927,4.8487,4.7972,4.7954,4.8099,4.7547,4.4436,4.1236,3.7675,3.3032,2.9961,2.764,2.6052,2.6293,2.6591,2.5819,2.5039,2.45,2.45,2.45,2.476,2.5559,2.5001,0.0,2.5559,2.4983,2.4518,2.4537,2.4518,2.4518,2.4537,2.4518,2.4474,2.4403,2.3681,2.3211,2.3149,2.2384,2.1978,2.1978,2.2107,2.2584,2.3444,0.0,0.0,0.0,0.0,0.0,0.0,0.0,0.0,0.0,0.0,0.0,0.0,0.0,0.0,0.0,0.0,0.0,0.0,0.0,0.0,0.0,0.0,3.808,3.8195,3.9858,4.185,4.3969,4.5309,4.6377,4.7174,4.7772,4.859,4.9691,5.0307,5.0741,5.0959,5.1502,5.1828,5.1828,5.2045,5.2172,5.2172,5.2969,5.3367,5.3385,5.3965,5.4237,5.4237,5.4237,5.4237,5.4218,5.3621,5.3367,5.3313,5.2733,5.2371,5.2082,5.1267,5.0619,5.0112,5.0112,5.0112,5.0112,5.0112,5.0112,5.0112,5.0112,4.9945,4.9764,4.9764,4.9641,4.9503,4.9552,4.9616,4.9479,4.8669,4.4419,3.971,3.7342,3.2256,2.753,2.6033,2.5429,2.5094,2.4871,2.4648,2.45,2.45,2.45,2.4574,2.4797,2.4648,0.0,2.4797,2.4648,2.4723,2.5317,2.4853,2.4741,2.5317,2.4834,2.4474,0.0,2.4199,2.4043,2.3961,2.3704,2.3593,2.3647,2.3761,2.3992,0.0,0.0,0.0,0.0,0.0,0.0,0.0,0.0,0.0,0.0,0.0,0.0,0.0,0.0,0.0,0.0,0.0,0.0,0.0,0.0,0.0,0.0,3.8413,4.1723,4.3003,4.3778,4.5017,4.7246,4.8224,4.9021,4.9836,5.0325,5.0723,5.1067,5.1538,5.1792,5.1792,5.257,5.3005,5.3005,5.3331,5.3512,5.3512,5.3965,5.42,5.4218,5.4689,5.4907,5.4907,5.4907,5.4907,0.0,5.4418,5.42,5.4164,5.3693,5.3512,0.0,0.0,0.0,0.0,0.0,5.1104,5.1104,5.1104,5.1104,5.1104,5.1104,5.0891,5.0619,5.0619,5.0383,5.0112,5.0159,5.0185,5.021,5.0292,4.564,4.06,3.9404,3.3605,2.7951,2.6448,2.5495,2.4846,2.4547,0.0,0.0,2.45,2.45,2.4611,2.4946,2.4723,2.4611,0.0,2.4704,2.4685,2.515,2.4778,2.4685,2.5169,2.4778,0.0,0.0,0.0,2.4358,2.4294,2.4266,0.0,0.0,0.0,2.4513,0.0,0.0,0.0,0.0,2.4482,2.4445,0.0,0.0,0.0,0.0,0.0,0.0,0.0,0.0,0.0,0.0,0.0,0.0,0.0,0.0,0.0,0.0,4.0993,4.4481,4.6847,4.7653,4.8305,4.9072,4.98,5.0565,5.1357,5.143,5.1719,5.2444,5.257,5.2643,5.2643,0.0,0.0,0.0,0.0,5.4907,5.4907,5.4979,5.5033,5.5033,5.5124,5.516,5.516,5.516,5.516,5.516,5.507,5.5033,5.5015,5.4943,5.4907,5.4762,5.3222,5.2643,5.2625,5.2516,5.2498,0.0,0.0,0.0,0.0,5.2498,5.2009,5.143,5.143,5.0923,5.0383,5.0383,5.0413,5.0461,5.0461,4.5743,4.0805,4.0002,3.427,2.8606,2.7151,2.6222,2.5485,2.4882,2.4778,2.4778,2.4778,2.4611,2.4741,2.5466,2.4964,0.0,2.5466,2.4946,2.4537,2.463,0.0,0.0,2.463,2.4555,2.4474,2.4421,2.4412,2.4375,2.4303,2.433,2.4312,2.4312,2.4445,2.4503,2.452,2.4618,2.4692,2.47,2.47,2.47,0.0,0.0,0.0,0.0,0.0,0.0,0.0,0.0,0.0,0.0,0.0,0.0,0.0,0.0,0.0,3.8314,4.2675,4.6604,4.8713,4.9508,5.0121,5.0751,5.0959,5.1375,5.219,5.2263,5.2317,5.248,5.3096,5.3476,5.3476,5.4237,0.0,5.4671,5.4834,5.4907,5.4907,5.5486,5.5776,5.5794,0.0,0.0,5.6754,5.6754,5.6754,5.6717,5.6066,5.5776,5.574,5.516,5.4907,5.4798,5.3838,5.3476,5.3385,5.2733,5.2498,5.2498,5.2498,5.2498,5.2498,5.2498,5.2389,5.2263,5.2263,5.2154,0.0,5.2027,5.205,5.2073,5.2073,4.6835,4.1361,4.0685,3.4611,2.8764,2.7854,2.7125,2.6581,2.6461,2.6442,2.6442,2.6442,2.5355,2.4555,2.4704,2.4592,2.4555,2.4704,2.4592,2.4741,2.541,2.489,2.476,2.541,2.4871,2.4491,2.4482,2.4482,2.4456,2.4375,2.4438,2.4465,2.4465,2.45,2.4541,2.4666,2.4631,2.4645,2.47,2.47,2.47,0.0,0.0,0.0,0.0,0.0,0.0,0.0,0.0,0.0,0.0,0.0,3.2754,0.0,0.0,3.9961,4.1192,4.4923,4.799,4.902,4.9961,5.0675,5.0969,5.1268,5.1616,5.2012,5.2408,5.2774,5.3072,5.3856,5.4309,5.4309,5.5033,5.545,5.545,5.5848,5.6047,5.6047,5.641,5.6591,5.6609,5.7424,5.7804,5.7804,5.7804,5.7804,5.775,5.6953,5.6591,5.6573,5.6192,5.6047,5.5975,5.516,5.4635,5.4255,5.3856,5.344,5.3096,5.3096,5.2842,5.2498,5.2498,5.2498,5.2498,5.2498,5.2498,5.2498,5.2498,5.2498,5.2498,5.2498,4.8623,4.4204,4.225,3.7596,3.2858,3.0149,2.9343,2.892,2.8151,2.773,2.7501,2.7501,2.6498,2.5559,2.5169,2.476,2.45,2.45,2.45,2.4648,2.5057,2.4741,2.4667,2.5076,2.4723,2.45,2.45,2.45,2.4482,2.4456,2.4482,2.45,2.45,2.4498,2.4522,2.4607,2.4623,2.4674,2.4695,2.4692,2.47,0.0,0.0,0.0,0.0,0.0,0.0,0.0,0.0,3.2214,3.3562,3.5454,3.7184,3.8145,4.048,4.2689,4.393,4.6779,4.8839,4.8839,4.9827,5.0532,5.0579,5.1229,5.1655,5.1655,5.2366,5.308,5.37,5.4483,5.4983,5.5124,5.583,5.6228,5.6228,5.7007,5.7424,5.7424,5.7587,5.7659,5.7677,5.8329,5.8637,5.8637,5.8637,5.8637,5.8601,5.7786,5.7333,5.7188,5.7188,5.7188,5.7134,5.6482,5.5866,5.5323,5.5015,5.449,5.3929,5.3929,5.3512,5.2933,5.277,5.2733,5.2697,5.2552,5.2498,5.2498,5.2498,5.2498,5.2498,5.2498,4.9999,4.6667,4.3425,4.0165,3.657,3.2147,3.1313,3.0993,2.9579,2.8899,2.8501,2.8344,2.7659,2.6851,2.6052,2.5243,2.4723,2.4723,2.4592,2.45,2.45,2.45,2.45,2.45,2.45,2.45,2.45,2.45,2.4425,2.4249,2.4407,2.4425,2.4249,2.4246,2.4244,2.4261,2.4391,2.4431,2.4473,2.4636,2.4707,2.7932,2.9118,3.0637,3.0257,3.2066,3.3969,0.0,0.0,3.513,3.5318,3.6667,3.787,3.8033,4.1512,4.4419,4.4589,4.7051,4.8958,4.8958,4.9546,5.0044,5.0158,5.1165,5.1858,5.1858,5.2544,5.3233,5.384,5.4624,5.5299,5.5842,5.6627,5.7062,5.7062,5.784,5.8275,5.8275,5.8981,5.9343,5.9343,5.9434,5.947,5.947,5.947,5.947,5.9434,5.8619,5.7858,5.7188,5.7188,5.7188,5.7188,5.7098,5.7025,5.6772,5.5414,5.4852,5.478,5.478,5.4707,5.4508,5.3802,5.3566,5.344,5.2715,5.2498,5.2498,5.2498,5.2498,5.2498,5.2498,4.9582,4.5834,4.2592,3.8982,3.5311,3.1932,3.1307,3.1133,3.0258,3.0107,2.9909,2.9192,2.8462,2.7687,2.6888,2.607,2.5578,2.5578,2.4946,2.45,2.45,2.45,2.45,2.45,2.45,2.45,2.45,2.45,2.4156,2.337,2.4101,2.4138,2.3351,2.3359,2.3366,2.343,2.3457,2.352,2.3656,2.4369,2.4723,3.2757,3.2903,3.3118,0.0,3.5893,3.711,3.711,3.8024,3.9242,4.0561,4.2068,4.3237,4.3677,4.5303,4.6692,0.0,4.822,4.9001,4.9001,4.9603,5.0039,5.0082,5.1284,5.2088,5.2027,5.2716,5.3416,5.4045,5.4825,5.538,5.563,5.6752,5.737,5.737,5.8115,5.8501,5.8501,5.8842,5.9003,5.9031,5.9907,6.0303,6.0303,6.0303,6.005,5.9579,5.9253,5.8637,5.7895,5.7895,5.7623,5.7188,5.7188,5.7188,5.7116,5.6482,5.5939,5.554,5.554,5.5269,5.4852,5.4508,5.4399,5.4255,5.344,5.3204,5.3096,5.2625,5.2498,5.2498,5.2498,5.1249,4.8713,4.3607,4.1542,3.92,3.3662,3.2958,3.3145,3.2336,3.1909,3.1421,3.0624,2.9898,2.918,2.8357,2.7184,2.6219,2.5764,2.541,2.502,2.4555,2.45,2.4286,2.3795,2.3739,2.3535,2.307,2.3052,2.3081,2.3203,2.3545,2.3564,2.3203,2.3203,2.2994,2.2588,2.3112,2.3409,2.3516,2.4366,2.4791,3.4883,3.5204,3.5351,3.7635,3.9225,4.0273,4.0476,4.1525,4.2963,4.4807,4.621,4.7276,4.7787,4.8058,4.8392,4.8917,4.9001,4.9001,4.9001,4.9627,5.0168,5.0371,5.1522,5.236,5.2466,5.3024,5.3615,5.4219,5.4785,5.5294,5.5683,5.6651,5.7335,5.7519,5.8254,5.875,5.8941,5.9155,5.9349,5.9555,6.0611,6.1109,6.1109,6.0955,6.0339,5.9372,5.9372,5.8905,5.8169,5.8169,5.781,5.7239,5.7064,5.7095,5.7163,5.701,5.6682,5.6319,5.6319,5.5975,5.5504,5.5287,5.5196,5.507,5.4273,5.3874,5.3585,5.2987,5.2661,5.2498,5.2498,5.2498,5.0868,4.4441,4.3335,4.185,3.4896,3.3935,3.4171,3.3367,3.2858,3.2292,3.1481,3.079,3.0074,2.9289,2.8236,2.7249,2.6461,2.5959,2.5485,2.489,2.463,2.4231,2.3601,2.3564,2.3211,2.2386,2.233,2.2386,2.2534,2.2757,2.2757,2.2534,2.2534,2.2287,2.1734,2.2398,2.2876,2.3185,2.4063,2.4622,3.1633,3.3964,3.6107,3.8396,4.1136,4.3487,4.4259,4.501,4.5788,4.6566,4.7344,4.7855,4.7889,4.8494,4.8984,4.9001,4.9001,4.9001,4.9001,4.9627,5.0371,5.1099,5.1843,5.2604,0.0,5.3484,5.3749,5.4356,5.4405,5.5015,5.6378,5.6508,5.6859,5.7553,5.8373,5.9117,5.9762,6.054,6.1254,6.1896,6.1942,6.1942,6.1942,6.129,6.0207,5.8808,5.8808,5.8369,5.7618,5.7618,5.7535,5.7334,5.6741,5.6815,5.7138,5.6528,5.6688,5.7152,5.7152,5.7152,5.6989,5.621,5.5957,5.583,5.5088,5.4327,5.3693,5.3675,5.3096,5.2498,5.2498,5.2498,5.0868,4.4441,4.2919,4.118,3.4787,3.3411,3.3194,3.2411,3.2328,3.2151,3.1344,3.0655,2.9951,2.9208,2.9123,2.8862,2.8123,2.6665,2.5689,2.5671,2.4964,2.4481,2.4462,2.4462,2.4101,2.3221,2.3165,2.2479,2.0938,2.1625,2.1662,2.0882,2.0864,2.0864,2.0834,2.0933,2.1435,2.237,2.3222,2.414,3.3694,3.6485,3.9242,4.1999,4.3826,4.5128,4.5872,4.6633,4.7242,4.7496,4.6955,4.6447,4.6447,4.665,4.6819,4.6819,4.8054,4.9001,4.9001,5.0067,5.093,5.1183,5.2334,0.0,0.0,0.0,0.0,5.3783,5.4259,5.4734,5.5205,5.6593,5.7461,5.7721,5.8467,5.8981,5.9192,5.9487,5.9706,5.9931,6.0437,6.0669,6.0686,6.0454,6.0065,5.9598,5.9598,5.9127,5.8394,5.8394,5.8062,5.7469,5.6779,5.6588,5.6709,5.6407,5.642,5.6679,5.7061,5.7188,5.7152,5.688,5.679,5.6645,5.5866,5.5432,5.4997,5.3983,5.3512,5.3168,5.2643,5.2498,5.1411,4.712,4.444,4.1742,3.7486,3.4914,3.3321,3.3049,3.3038,3.2813,3.1996,3.1742,3.1272,3.013,2.9114,2.839,2.8123,2.7631,2.6869,2.5819,2.5466,2.4844,2.3731,2.3638,2.3285,2.246,2.1903,2.1606,2.1606,2.1346,2.1087,2.0808,2.079,2.0559,2.0075,2.1155,2.1932,2.238,2.3205,2.38,3.6563,3.9208,4.1551,4.4327,4.5534,4.6295,4.7022,4.7564,4.7956,4.8257,4.6921,4.5703,4.5703,4.4852,4.4236,4.4451,4.5506,4.667,4.7665,4.9134,5.0352,5.1116,5.257,5.3501,0.0,0.0,0.0,5.3501,5.4177,5.4718,5.4972,5.6542,5.7569,5.7844,5.8306,5.8651,5.8892,5.8892,5.9028,5.9297,5.9774,5.987,5.9611,5.9611,5.948,5.9247,5.9513,5.9168,5.852,5.9024,5.8759,5.7973,5.7496,5.7252,5.7128,5.6845,5.668,5.6679,5.7061,5.7188,5.7188,5.7188,5.7188,5.7098,5.6573,5.6228,5.5776,5.4798,5.4128,5.3585,5.3059,5.2715,5.1683,4.8478,4.5236,4.205,3.8879,3.5675,3.3393,3.3393,3.3393,3.3248,3.2723,3.2492,3.1913,3.0472,2.9492,2.8843,2.8597,2.8282,2.7706,2.6665,2.6293,2.5587,2.4214,2.4084,2.3619,2.2497,2.194,2.1625,2.1569,2.1068,2.066,2.0381,2.0363,2.0131,1.9672,2.0732,2.1463,2.1903,2.245,2.2911,3.9901,4.1847,4.2997,4.5263,4.6346,4.7056,4.78,4.7939,4.8122,4.8663,4.7005,4.5432,0.0,0.0,4.157,4.2161,4.2047,4.283,4.5495,4.7259,4.9002,0.0,0.0,0.0,0.0,0.0,0.0,5.3551,0.0,5.4972,5.5733,5.6461,5.7171,5.7865,5.7881,5.8209,5.8823,5.8858,5.9196,5.9902,5.9902,5.9546,5.8858,5.8858,5.8476,5.7918,5.8581,5.8493,5.8027,5.938,5.9481,5.8801,5.8808,5.8643,5.8336,5.7728,5.7388,5.7217,5.7206,5.7188,5.7188,5.7188,5.7188,5.7188,5.7188,5.6663,5.6047,5.5993,5.4943,5.3802,5.3729,5.3132,5.1774,4.8695,4.5363,4.2086,3.9096,3.5783,3.3393,3.3393,3.3393,3.3393,3.3393,3.2841,3.1864,3.0341,3.0277,3.0154,2.9487,2.8672,2.8152,2.8096,2.7427,2.6609,2.5782,2.5708,2.5011,2.337,2.3221,2.2516,2.0994,2.0845,2.0437,1.9683,1.9627,1.9609,1.9609,1.9702,2.0175,2.0997,2.1061,2.1563,4.1356,4.3403,4.5246,4.6938,4.7466,4.7817,4.8562,4.8731,4.8156,4.6126,4.391,4.1677,0.0,0.0,0.0,4.1457,4.4615,0.0,4.8054,4.9472,0.0,5.115,0.0,5.3501,5.3501,5.3501,0.0,0.0,5.5006,5.575,5.6478,5.7222,5.7695,5.7881,5.7881,5.7991,5.8137,5.8137,5.8244,5.844,5.844,5.8351,5.8137,5.8137,5.8046,5.7918,5.8082,5.8046,5.7954,5.8806,5.9042,5.885,5.8811,5.8743,5.8598,5.7797,5.7485,5.7397,5.726,5.7188,5.7188,5.7188,5.7188,5.7188,5.7188,5.7062,5.6772,5.6156,5.5703,5.5142,5.4001,5.3548,5.3041,5.1611,4.6993,4.2684,4.1886,3.7323,3.3393,3.3393,3.3393,3.3393,3.3393,3.2752,3.2137,3.1828,3.0918,3.001,2.9333,2.914,2.882,2.817,2.7929,2.7222,2.5819,2.5708,2.5253,2.4231,2.3564,2.3017,2.2609,2.1439,2.0697,2.0493,1.9906,1.9609,1.9609,2.0224,2.0653,2.093,2.0937,2.1122,4.3217,4.4959,4.6464,4.7601,4.8125,4.8156,4.7259,4.7056,4.621,4.3234,4.0832,0.0,3.7117,0.0,0.0,0.0,0.0,0.0,4.7378,4.8863,5.0181,0.0,5.257,0.0,5.3501,5.3501,5.394,0.0,5.548,5.6038,5.6765,5.7492,5.7881,5.7881,5.7881,5.7881,5.7881,5.7881,5.7881,5.7881,5.7881,5.7881,5.7881,5.7881,5.8046,5.8369,0.0,5.8841,5.8892,5.9853,6.0107,5.9864,6.0093,6.0006,5.9626,5.9127,5.8511,5.7873,5.7774,5.7496,5.7188,5.7188,5.7188,5.7188,5.7188,5.7188,5.7098,5.6645,5.6265,5.5794,5.4925,5.4472,5.4019,5.3222,4.8098,4.3317,4.2992,3.7902,3.3393,3.3393,3.3393,3.3393,3.3393,3.3031,3.2625,3.2351,3.1667,3.0913,3.0249,2.9728,2.9211,2.8728,2.8672,2.8152,2.6851,2.6739,2.6405,2.5596,2.4761,2.4148,2.3795,2.2542,2.168,2.1328,2.053,2.0128,2.0128,2.024,2.0301,2.0372,2.0366,2.0625,4.4959,4.6244,4.6972,4.7733,4.846,4.8223,4.5275,4.4615,4.3616,4.0062,0.0,3.6389,3.5983,3.6271,3.6921,3.8031,0.0,4.2889,4.5749,4.7416,4.9057,5.0963,5.2469,5.3382,5.3501,5.3602,5.4228,5.5615,5.5801,5.619,5.6917,5.7543,5.7881,5.7881,5.7881,5.7881,5.7881,5.7881,5.7881,5.7881,5.7881,5.7881,5.7881,5.7881,5.8244,5.8806,0.0,0.0,5.9966,6.121,6.143,6.1075,6.172,6.1562,6.0955,6.0819,5.9923,5.8691,5.8474,5.7949,5.7333,5.7224,5.7188,5.7188,5.7188,5.7188,5.7188,5.7188,5.6699,5.612,5.6029,5.5522,5.4852,5.4055,4.8858,4.3896,4.3227,3.7975,3.3393,3.3393,3.3393,3.3393,3.3393,3.3393,3.3158,3.2451,3.2383,3.2192,3.1603,3.0371,2.9553,2.9564,2.9452,2.9043,2.817,2.8096,2.7761,2.6944,2.6238,2.5503,2.4685,2.3832,2.298,2.2182,2.1365,2.0957,2.0957,2.037,2.0052,2.0009,2.0103,2.0529,4.5399,4.6244,4.6972,4.7733,4.846,4.8223,4.5275,4.4615,0.0,0.0,3.5165,3.415,3.1715,3.3258,3.5966,3.9199,0.0,0.0,0.0,0.0,5.0115,0.0,0.0,0.0,0.0,0.0,0.0,0.0,0.0,0.0,5.7662,5.7814,5.7881,5.7881,5.7881,5.7881,5.7881,5.7881,5.7881,5.7881,5.7881,5.7881,5.7881,5.7881,5.7954,5.8082,0.0,0.0,5.9163,5.9998,6.0608,6.1075,6.172,6.1906,6.1706,6.1064,6.0629,6.0194,5.8854,5.8311,5.8076,5.7424,5.7188,5.7188,5.7188,5.7188,5.7188,5.7188,5.7098,5.6826,5.6156,5.5903,5.5613,5.487,4.9275,4.4059,4.3914,3.8373,3.3393,3.3393,3.3393,3.3393,3.3393,3.3393,3.3357,3.3212,3.2746,3.2352,3.2233,3.1066,3.0261,3.0371,2.9787,2.9043,2.817,2.8096,2.7761,2.6944,2.6758,2.633,2.554,2.4723,2.3869,2.3017,2.22,2.1792,2.1792,2.2312,2.2245,2.1611,2.228,2.2356,4.55,4.5957,4.6397,4.7141,4.7597,4.6667,4.2134,0.0,0.0,0.0,3.165,3.121,2.9786,3.2239,0.0,3.7398,0.0,0.0,0.0,0.0,0.0,0.0,0.0,0.0,0.0,0.0,0.0,0.0,0.0,0.0,5.7848,5.7881,5.7881,5.7881,5.7881,5.7881,5.7881,5.7881,5.7881,5.7881,5.7881,5.7881,5.7881,5.7881,5.8315,5.8994,5.8994,0.0,6.056,6.0879,6.121,6.1561,6.1877,6.1996,6.1942,6.1562,6.1145,6.0647,5.9452,5.8746,5.8275,5.746,5.7188,5.7188,5.7188,5.7188,5.7188,5.7188,5.7188,5.7098,5.6717,5.6609,5.6428,5.5649,4.9655,4.3643,4.1995,3.7305,3.3393,3.3393,3.3393,3.3393,3.3393,3.3393,3.3393,3.3393,3.3143,3.297,3.3104,3.2192,3.1445,3.115,3.0839,3.0474,3.0065,2.9638,2.9248,2.8839,2.8003,2.7352,2.6962,2.6191,2.555,2.5132,2.4334,2.3925,2.3925,2.3888,2.3683,2.3293,2.3229,2.3246,4.5314,4.5585,4.5838,4.6413,4.6667,4.5229,3.9259,3.7905,0.0,3.0006,2.8756,2.8756,2.8756,3.1106,3.3575,0.0,3.9478,4.3318,0.0,0.0,0.0,0.0,0.0,0.0,0.0,0.0,0.0,0.0,0.0,0.0,5.7865,5.7881,5.7881,5.7881,5.7881,5.7881,5.7881,5.7881,5.7881,5.7881,5.7881,5.7881,5.7881,5.7881,5.8563,5.9774,5.9774,0.0,0.0,6.1794,6.1868,6.1996,6.1996,6.1996,6.1996,6.1996,6.158,6.0937,5.9941,5.9198,5.851,5.7514,5.7188,5.7188,5.7188,5.7188,5.7188,5.7188,5.7188,5.7188,5.7188,5.7188,5.6826,5.5341,4.9546,4.3444,4.0111,3.6236,3.3393,3.3393,3.3393,3.3393,3.3393,3.3393,3.3393,3.3393,3.3396,3.3466,3.3684,3.3203,3.2645,3.2127,3.1913,3.1794,3.1794,3.1218,3.0864,3.0864,2.9619,2.882,2.8635,2.7854,2.7352,2.7167,2.6368,2.5968,2.5968,2.5503,2.5187,2.5001,2.4501,2.4519,4.4682,4.5179,4.572,4.5788,4.6295,4.5229,3.9259,0.0,3.6011,2.9294,2.7908,2.7908,2.7908,2.8196,2.9768,3.3931,3.5639,3.8362,0.0,0.0,0.0,0.0,0.0,0.0,0.0,0.0,0.0,0.0,0.0,0.0,0.0,5.7881,5.7881,5.7881,5.7881,5.7881,5.7881,5.7881,5.7881,5.7881,5.7881,5.7881,5.7881,5.7881,5.8298,5.8994,0.0,0.0,0.0,6.1104,6.1458,6.1996,6.1996,6.1996,6.1996,6.1996,6.1942,6.1652,6.014,5.9561,5.9253,5.7695,5.7188,5.7188,5.7188,5.7188,5.7188,5.7188,5.7188,5.7188,5.7188,5.7188,5.6265,5.2589,4.8369,4.4132,4.0238,3.6236,3.3393,3.3393,3.3393,3.3393,3.3393,3.3393,3.3393,3.3393,3.3352,3.3337,3.3422,3.3532,3.3593,3.36,3.2532,3.1794,3.1794,3.1738,3.1682,3.1682,3.1552,3.1125,3.04,2.9601,2.8802,2.8003,2.7204,2.6795,2.6795,2.7445,2.739,2.6702,2.7352,2.7297,4.4242,4.479,4.5026,4.5026,4.4215,4.2219,3.756,0.0,3.3119,2.8163,2.7148,2.7148,2.7148,2.7503,2.8686,3.141,3.3592,0.0,3.9453,0.0,0.0,0.0,0.0,0.0,0.0,0.0,0.0,0.0,0.0,0.0,0.0,5.7881,5.7881,5.7881,5.7881,5.7881,5.7881,5.7881,5.7881,5.7881,5.7881,5.7881,5.7918,5.8334,5.8875,5.9594,0.0,0.0,0.0,6.159,6.1766,6.1996,6.1996,6.1996,6.1996,6.1996,6.1996,6.1761,6.0176,5.9615,5.9343,5.7713,5.7188,5.7188,5.7188,5.7188,5.7188,5.7188,5.7188,5.7188,5.7188,5.7188,5.679,5.5233,4.9963,4.4874,4.3281,3.792,3.3393,3.3393,3.3393,3.3393,3.3393,3.3393,3.3393,3.3393,3.3382,3.3393,3.3509,3.3657,3.3793,3.3842,3.3451,3.3196,3.3231,3.2762,3.2472,3.2507,3.2072,3.1663,3.1348,3.1013,3.0679,3.0326,3.001,2.9842,2.9842,3.0177,3.0158,2.9842,2.9675,2.9174,4.3081,4.409,4.4615,4.4615,4.2878,4.0223,0.0,0.0,3.1227,2.7469,2.6691,2.6691,2.6691,2.7131,2.7976,2.9516,3.1698,3.4032,3.6474,0.0,0.0,0.0,0.0,0.0,0.0,0.0,0.0,0.0,0.0,0.0,0.0,5.7881,5.7881,5.7881,5.7881,5.7881,5.7881,5.7881,5.7881,5.7881,5.7881,5.7881,5.7918,5.8388,5.9113,6.0048,0.0,0.0,0.0,6.1996,6.1996,6.1996,6.1996,6.1996,6.1996,6.1996,6.1996,6.1761,6.0176,5.9615,5.9343,5.7713,5.7188,5.7188,5.7188,5.7188,5.7188,5.7188,5.7188,5.7188,5.7188,5.7188,5.7188,5.7188,5.1285,4.5653,4.5653,3.9568,3.4045,3.381,3.3755,3.3683,3.3447,3.3393,3.3393,3.3393,3.3364,3.3408,3.352,3.3629,3.3739,3.3815,3.3947,3.4049,3.4136,3.358,3.3253,3.3283,3.2769,3.2484,3.2484,3.2265,3.2147,3.2147,3.1924,3.1794,3.1794,3.1794,3.1794,3.1775,3.0976,3.0158,4.1035,4.2878,4.4615,4.4615,4.2878,4.0223,0.0,0.0,3.1227,2.7469,2.6691,2.6691,2.6691,2.6725,2.7233,2.8756,2.9651,3.1698,3.6169,0.0,0.0,0.0,0.0,0.0,0.0,0.0,0.0,0.0,0.0,0.0,0.0,5.7881,5.7881,5.7881,5.7881,5.7881,5.7881,5.7881,5.7881,5.7881,5.7881,5.7881,5.7881,5.7918,5.8668,0.0,0.0,0.0,0.0,6.1996,6.1996,6.1996,6.1996,6.1996,6.1996,6.1996,6.1996,6.1761,6.0176,5.9615,5.9343,5.7713,5.7188,5.7188,5.7188,5.7188,5.7188,5.7188,5.7188,5.7188,5.7188,5.7188,5.7188,5.7188,5.1719,4.6486,4.6486,4.0836,3.5532,3.4736,3.4588,3.4335,3.3538,3.3393,3.3393,3.3393,3.3337,3.3322,3.3378,3.3466,3.3549,3.3684,3.3766,3.3873,3.3985,3.3979,3.3979,3.3979,3.4043,3.408,3.408,3.3393,3.299,3.299,3.2221,3.1794,3.1794,3.1794,3.1794,3.1775,3.0976,3.0158,3.6282,3.7929,3.9029,3.7963,3.7144,3.591,3.322,3.1278,2.9416,2.7165,2.6691,2.6691,2.6691,2.6691,2.7368,2.9414,2.9956,3.1103,0.0,0.0,0.0,0.0,0.0,0.0,0.0,0.0,0.0,0.0,0.0,0.0,0.0,0.0,5.7881,5.7881,5.7881,5.7881,5.7881,5.7881,5.7881,5.7881,5.7881,5.7881,5.7918,5.8909,0.0,0.0,0.0,0.0,0.0,6.1996,6.1996,6.1996,6.1996,6.1996,6.1996,6.1996,6.1996,6.1761,6.0176,5.9615,5.9343,5.7713,5.7188,5.7188,5.7188,5.7188,5.7188,5.7188,5.7188,5.7188,5.7188,5.7188,5.7188,5.7188,5.3403,4.9184,4.6975,4.2574,3.8139,3.5186,3.4606,3.4353,3.3538,3.3393,3.3393,3.3393,3.3364,3.3382,3.3411,3.3509,3.3591,3.3633,3.3231,3.3254,3.393,3.3959,3.3947,3.3998,3.4023,3.4049,3.4099,3.3883,3.3771,3.3826,3.3566,3.3436,3.3436,3.3436,3.3436,3.3417,3.263,3.2109,3.2544,3.4578,3.578,3.5098,3.4286,0.0,0.0,2.982,2.8197,2.6962,2.6691,2.6691,2.6691,2.6691,2.7351,2.9364,2.9922,3.1173,0.0,0.0,0.0,0.0,0.0,0.0,0.0,0.0,0.0,0.0,0.0,0.0,0.0,0.0,5.7881,5.7881,5.7881,5.7881,5.7881,5.7881,5.7881,5.7881,5.7881,5.7881,5.7918,5.8806,0.0,0.0,0.0,0.0,0.0,6.1996,6.1996,6.1996,6.1996,6.1996,6.1996,6.1996,6.1996,6.1797,6.052,5.9868,5.9379,5.8076,5.7442,5.7188,5.7188,5.7188,5.7188,5.7188,5.7188,5.7188,5.7188,5.7188,5.7188,5.7188,5.4399,5.0868,4.7645,4.4041,4.022,3.6206,3.5227,3.479,3.3927,3.3548,3.3367,3.3367,3.3367,3.3334,3.3304,3.3437,3.3534,3.3563,3.3205,3.323,3.3871,3.3329,3.298,3.303,3.3043,3.3093,3.3155,3.3179,3.3376,3.3733,3.3751,3.39,3.4197,3.4197,3.403,3.3733,3.3231,3.2667,0.0,3.2256,3.4083,3.4675,3.3423,0.0,3.1055,2.9277,0.0,2.6843,2.6691,2.6708,2.6759,2.6776,2.73,2.8908,2.977,0.0,0.0,0.0,0.0,0.0,0.0,0.0,0.0,0.0,0.0,0.0,0.0,0.0,0.0,0.0,5.7881,5.7881,5.7881,5.7881,5.7881,5.7881,5.7881,5.7881,5.7881,5.7881,5.7881,5.801,0.0,0.0,0.0,0.0,0.0,6.1996,6.1996,6.1996,6.1996,6.1996,6.1996,6.1996,6.1996,6.1869,6.1073,6.0321,5.9542,5.8691,5.7895,5.7261,5.7224,5.7188,5.7188,5.7188,5.7188,5.7188,5.7188,5.7188,5.7188,5.7188,5.4961,5.1955,4.8749,4.5508,4.2031,3.7929,3.6445,3.5555,3.4573,3.3818,3.3364,3.331,3.331,3.3262,3.3117,3.3256,3.3408,3.3495,3.3508,3.357,3.3688,3.2339,3.1488,3.1488,3.1495,3.1519,3.1585,3.1663,3.2066,3.2897,3.2897,3.328,3.403,3.403,3.364,3.2908,3.2908,3.2109,2.4949,0.0,2.8298,2.7351,2.8451,2.9416,0.0,2.7773,2.7587,2.6843,2.6691,2.686,2.7435,2.7536,2.8229,3.0328,0.0,0.0,0.0,0.0,0.0,0.0,0.0,0.0,0.0,0.0,0.0,0.0,0.0,0.0,0.0,0.0,5.7881,5.7881,5.7881,5.7881,5.7881,5.7881,5.7881,5.7881,5.7881,5.7881,5.7918,5.9028,0.0,0.0,0.0,0.0,6.1996,6.1996,6.1996,6.1996,6.1996,6.1996,6.1996,6.1996,6.1996,6.1869,6.1073,6.0683,6.0285,5.8854,5.8275,5.8003,5.7387,5.7188,5.7188,5.7188,5.7188,5.7188,5.7188,5.7188,5.7188,5.7188,5.6627,5.5233,5.2063,4.884,4.5359,4.1268,3.8362,3.6089,3.4648,3.4251,3.3944,3.3382,3.331,3.3262,3.3117,3.3229,3.3352,3.3408,3.2978,3.2721,3.2797,3.2502,3.232,3.232,3.1758,3.1446,3.1519,3.1585,3.1737,3.1992,3.2068,3.2184,3.237,3.237,3.2277,3.2072,3.2072,3.1886,2.2902,2.4509,2.6082,2.5625,2.6979,2.823,2.7402,2.7249,2.7182,2.6776,2.6691,2.6928,0.0,2.8094,0.0,0.0,0.0,0.0,0.0,0.0,0.0,0.0,0.0,0.0,0.0,0.0,0.0,0.0,0.0,0.0,0.0,0.0,5.7881,5.7881,5.7881,5.7881,5.7881,5.7881,5.7881,5.7881,5.7881,5.7881,5.7918,5.8702,0.0,0.0,0.0,0.0,6.1996,6.1996,6.1996,6.1996,6.1996,6.1996,6.1996,6.1996,6.1996,6.1924,6.1489,6.1091,6.0611,5.9361,5.8963,5.8872,5.8438,5.8039,5.7677,5.7297,5.7188,5.7188,5.7188,5.7188,5.7188,5.7188,5.7188,5.6337,5.3186,4.9959,4.6527,4.2781,3.9175,3.6457,3.5526,3.4803,3.4207,3.3826,3.3496,3.3262,3.3117,3.3244,3.3367,3.3411,3.3124,3.2981,3.3044,3.2763,3.2271,3.1549,3.1091,3.0705,3.0408,3.0466,3.072,3.118,3.1585,3.1794,3.1794,3.1794,3.1794,3.1794,3.1794,3.1794,2.2446,2.434,2.6302,2.6336,2.7097,2.7773,2.7655,2.7165,2.6691,2.6691,2.6691,2.6996,0.0,2.8704,0.0,0.0,0.0,0.0,0.0,0.0,0.0,0.0,0.0,0.0,0.0,0.0,0.0,0.0,0.0,0.0,0.0,0.0,0.0,5.7881,5.7881,5.7881,5.7881,5.7881,5.7881,5.7881,5.7881,5.7881,5.7881,5.8027,0.0,0.0,0.0,0.0,6.1996,6.1996,6.1996,6.1996,6.1996,6.1996,6.1996,6.1996,6.1996,6.1996,6.1996,6.1543,6.0864,6.005,5.9796,5.976,5.9651,5.9126,5.8438,5.775,5.7387,5.7188,5.7188,5.7188,5.7188,5.7188,5.7188,5.6464,5.3784,5.066,4.7352,4.3982,4.0237,3.7361,3.6629,3.5461,3.4559,3.4323,3.381,3.3373,3.3135,3.3274,3.3364,3.3364,3.3491,3.3601,3.3671,3.3116,3.2129,3.0668,3.0338,2.9866,2.9126,2.9145,2.9565,3.0389,3.1076,3.1429,3.144,3.144,3.1496,3.1626,3.1626,3.1682,2.3054,2.6251,2.867,2.5608,2.6336,2.7638,2.7012,2.6776,2.6691,2.6691,2.6691,2.7317,0.0,2.9854,3.0632,0.0,0.0,0.0,0.0,0.0,0.0,0.0,0.0,0.0,0.0,0.0,0.0,0.0,0.0,0.0,0.0,0.0,0.0,5.7881,5.7881,5.7881,5.7881,5.7881,5.7881,5.7881,5.7881,5.7881,5.7918,5.8493,5.9214,0.0,0.0,6.1286,6.1996,6.1996,6.1996,6.1996,6.1996,6.1996,6.1996,6.1996,6.1996,6.1996,6.1996,6.1906,6.167,6.0883,6.0629,6.0502,5.9814,5.9524,5.9398,5.9271,5.8257,5.7188,5.7188,5.7188,5.7188,5.7188,5.7188,5.7062,5.6573,5.4001,5.0746,4.732,4.3962,4.0577,3.7112,3.6306,3.5749,3.4487,3.4213,3.389,3.3191,3.3229,3.3325,3.3325,3.3437,3.3534,3.3619,3.3561,3.3153,3.2289,3.0962,2.9866,2.9126,2.91,2.9241,2.9479,2.962,2.9715,2.9768,2.9768,3.0121,3.0772,3.0772,3.1143,2.2759,2.5505,2.8062,2.7199,2.9841,3.256,3.2242,3.1816,3.1173,2.9974,3.004,0.0,0.0,0.0,0.0,0.0,0.0,0.0,0.0,0.0,0.0,0.0,0.0,0.0,0.0,0.0,0.0,0.0,0.0,0.0,0.0,0.0,0.0,0.0,5.7881,5.7881,5.7881,5.7881,5.7881,5.7881,5.7881,5.7881,5.7918,5.8244,5.896,6.0016,0.0,6.1063,6.1996,6.1996,6.1996,6.1996,6.1996,6.1996,6.1996,6.1996,6.1996,6.1996,6.1996,6.1996,6.1924,6.1562,6.1435,6.1362,6.1,6.0593,6.0267,6.0267,5.909,5.784,5.784,5.7532,5.7188,5.7188,5.7188,5.7188,5.7188,5.4683,5.1388,4.8059,4.4769,4.1381,3.7721,3.6773,3.627,3.5588,3.4842,3.4207,3.3846,3.3542,3.3352,3.3352,3.3437,3.3506,3.3534,3.3629,3.3396,3.2656,3.1091,3.005,2.9752,2.9329,2.9163,2.9302,2.9728,2.9983,3.0047,3.0474,3.0883,3.1255,3.1255,3.1682,2.2802,2.5044,2.764,2.9219,3.232,3.5238,3.6265,3.552,3.4353,3.3529,3.3795,0.0,0.0,0.0,0.0,0.0,0.0,0.0,0.0,0.0,0.0,0.0,0.0,0.0,0.0,0.0,0.0,0.0,0.0,0.0,0.0,0.0,0.0,0.0,5.7881,5.7881,5.7881,5.7881,5.7881,5.7881,5.7881,5.7881,5.7881,5.7881,5.8563,5.9741,5.9934,6.0669,6.1794,6.1923,6.1996,6.1996,6.1996,6.1996,6.1996,6.1996,6.1996,6.1996,6.1996,6.1996,6.1996,6.1996,6.1996,6.1996,6.1996,6.1562,6.1073,6.1073,6.0068,5.8891,5.851,5.7949,5.7424,5.7243,5.7188,5.7188,5.7188,5.522,5.249,4.9181,4.5885,4.2582,3.9313,3.7649,3.6755,3.6825,3.5921,3.5173,3.5022,3.456,3.4172,3.3991,3.3999,3.4058,3.4084,3.4195,3.4037,3.35,3.1757,3.0785,3.0833,3.006,2.9786,3.0091,3.0528,3.0795,3.0861,3.1485,3.1905,3.2072,3.2072,3.2518,2.4056,2.6655,2.927,3.0764,3.0353,3.0651,3.4737,3.3525,3.2459,3.5797,3.6524,0.0,0.0,0.0,0.0,0.0,0.0,0.0,0.0,0.0,0.0,0.0,0.0,0.0,0.0,0.0,0.0,0.0,0.0,0.0,0.0,0.0,0.0,0.0,0.0,5.7881,5.7881,5.7881,5.7881,5.7881,5.7881,5.7881,5.7881,5.7881,5.8298,5.9028,5.9709,6.0424,6.1104,6.1748,6.1996,6.1996,6.1996,6.1996,6.1996,6.1996,6.1996,6.1996,6.1996,6.1996,6.1996,6.1996,6.1996,6.1996,6.1996,6.1942,6.1906,6.1906,6.1272,6.0285,5.88,5.8365,5.813,5.7369,5.7188,5.7188,5.7188,5.7007,5.5896,5.2598,4.9289,4.5992,4.2709,3.9582,3.7578,3.7774,3.7719,3.7446,3.689,3.6777,3.6451,3.5711,3.5623,3.5683,3.5815,3.5886,3.5959,3.6028,3.3757,3.2417,3.243,3.1672,3.1618,3.244,3.185,3.1559,3.1628,3.1741,3.2184,3.2908,3.2908,3.3336,2.3658,2.6791,2.9997,3.1074,3.156,3.2899,3.7381,3.8244,3.8497,3.9943,4.0993,0.0,0.0,0.0,0.0,0.0,0.0,0.0,0.0,0.0,0.0,0.0,0.0,0.0,0.0,0.0,0.0,0.0,0.0,0.0,0.0,0.0,0.0,0.0,0.0,5.7881,5.7881,5.7881,5.7881,5.7881,5.7881,5.7881,5.7881,5.7881,5.851,5.9594,5.987,6.0608,6.1636,6.1895,6.1996,6.1996,6.1996,6.1996,6.1996,6.1996,6.1996,6.1996,6.1996,6.1996,6.1996,6.1996,6.1996,6.1996,6.1996,6.1996,6.1996,6.1996,6.1761,6.1163,5.9561,5.8782,5.8202,5.7387,5.7188,5.7188,5.7188,5.7188,5.6222,5.2942,5.0078,4.718,4.3868,4.106,3.93,3.9391,3.8995,3.8634,3.8396,3.8012,3.7448,3.6616,3.6109,3.5833,3.5939,3.6012,3.6083,3.6175,3.4848,3.4087,3.4087,3.2839,3.2327,3.2685,3.2434,3.2342,3.245,3.2974,3.34,3.3751,3.3751,3.39,2.4032,2.6791,2.981,3.1332,3.2598,3.4663,3.9385,4.0679,4.1508,4.3623,4.4536,4.4604,4.3555,0.0,0.0,0.0,0.0,0.0,0.0,0.0,0.0,0.0,0.0,0.0,0.0,0.0,0.0,0.0,0.0,0.0,0.0,0.0,0.0,0.0,0.0,0.0,5.7881,5.7881,5.7881,5.7881,5.7881,5.7881,5.7881,5.7881,5.8422,5.9347,5.9823,6.0516,6.1419,6.184,6.1996,6.1996,6.1996,6.1996,6.1996,6.1996,6.1996,6.1996,6.1996,6.1996,6.1996,6.1996,6.1996,6.1996,6.1996,6.1996,6.1996,6.1996,6.1996,6.167,6.0339,5.9379,5.8583,5.7768,5.7387,5.7188,5.7188,5.7188,5.653,5.4291,5.1677,4.8887,4.5879,4.3154,4.1245,4.0778,4.0293,3.9969,4.0004,3.9588,3.899,3.8158,3.7397,3.6959,3.6971,3.6812,3.676,3.6863,3.6377,3.6003,3.5793,3.4215,3.3508,3.3837,3.3348,3.3123,3.3223,3.3802,3.4099,3.4173,3.4173,3.4185,2.5468,2.6859,2.8763,3.1667,3.3005,3.4914,4.0037,3.9529,3.9868,4.6519,4.6769,4.5737,4.5703,0.0,0.0,0.0,0.0,0.0,0.0,0.0,0.0,0.0,0.0,0.0,0.0,0.0,0.0,0.0,0.0,0.0,0.0,0.0,0.0,0.0,0.0,0.0,5.7881,5.7881,5.7881,5.7881,5.7881,5.7881,5.7881,5.7881,5.7881,5.7991,5.938,5.9998,6.0093,6.1448,6.1996,6.1996,6.1996,6.1996,6.1996,6.1996,6.1996,6.1996,6.1996,6.1996,6.1996,6.1996,6.1996,6.1996,6.1996,6.1996,6.1996,6.1996,6.1996,6.1815,6.1027,6.0212,5.9416,5.8601,5.7786,5.7188,5.7188,5.7188,5.7188,5.7188,5.4544,5.1545,4.9121,4.5987,4.3316,4.1845,4.1611,4.163,4.1686,4.1705,4.1378,4.0492,3.9805,3.9387,3.9315,3.8693,3.8354,3.8494,3.851,3.8208,3.7547,3.5917,3.5426,3.6266,3.4719,3.3913,3.3895,3.3972,3.4036,3.4099,3.4099,3.4136,2.5468,2.9064,3.2537,3.2428,0.0,0.0,4.2168,4.2226,4.3071,0.0,4.8342,4.7547,4.5991,0.0,0.0,0.0,0.0,0.0,0.0,0.0,0.0,0.0,0.0,0.0,0.0,0.0,0.0,0.0,0.0,0.0,0.0,0.0,0.0,0.0,0.0,0.0,5.7881,5.7881,5.7881,5.7881,5.7881,5.7881,5.7881,5.7881,5.8173,5.8616,5.9028,5.9788,6.0759,6.1636,6.1996,6.1996,6.1996,6.1996,6.1996,6.1996,6.1996,6.1996,6.1996,6.1996,6.1996,6.1996,6.1996,6.1996,6.1996,6.1996,6.1996,6.1996,6.1996,6.1942,6.1706,6.1064,6.0104,5.8728,5.7786,5.7188,5.7188,5.7188,5.7188,5.7188,5.5081,5.2506,5.0081,4.7473,4.4957,4.2844,4.25,4.2519,4.2538,4.2049,4.1577,4.1286,4.0564,3.986,3.9264,3.9098,3.8835,3.8451,3.8478,3.8449,3.8358,3.7312,3.6597,3.6303,3.5234,3.4417,3.3895,3.3921,3.3959,3.4036,3.4074,3.4111,2.786,3.1348,0.0,3.5655,3.88,4.2269,4.4626,0.0,0.0,0.0,0.0,4.8595,0.0,0.0,0.0,0.0,0.0,0.0,0.0,0.0,0.0,0.0,0.0,0.0,0.0,0.0,0.0,0.0,0.0,0.0,0.0,0.0,0.0,0.0,0.0,0.0,5.7459,5.7746,5.7881,5.7881,5.7881,5.7881,5.7881,5.7881,5.8101,5.8511,5.8789,5.9706,6.1045,6.143,6.1766,6.1996,6.1996,6.1996,6.1996,6.1996,6.1996,6.1996,6.1996,6.1996,6.1996,6.1996,6.1996,6.1996,6.1996,6.1996,6.1996,6.1996,6.1996,6.1996,6.1996,6.1381,6.0484,5.918,5.8257,5.7587,5.7261,5.7188,5.7188,5.7188,5.6066,5.4327,5.1937,4.9488,4.706,4.4693,4.3498,4.29,4.2862,4.2445,4.21,4.1984,4.1264,4.0598,4.0093,3.9806,3.9407,3.8796,3.8842,3.8793,3.8627,3.7885,3.7125,3.6321,3.5445,3.4614,3.3855,3.3855,3.3895,3.3959,3.4036,3.4074,3.1464,3.358,3.5977,4.0087,4.1914,0.0,4.7124,4.8477,4.9001,4.9001,0.0,0.0,0.0,0.0,0.0,0.0,0.0,0.0,0.0,0.0,0.0,0.0,0.0,0.0,0.0,0.0,0.0,0.0,0.0,0.0,0.0,0.0,0.0,0.0,0.0,0.0,5.6714,5.7425,5.7797,0.0,5.7865,5.7881,5.7881,5.7881,5.7881,5.7954,5.8685,5.9706,6.0909,6.1045,6.1458,6.1996,6.1996,6.1996,6.1996,6.1996,6.1996,6.1996,6.1996,6.1996,6.1996,6.1996,6.1996,6.1996,6.1996,6.1996,6.1996,6.1996,6.1996,6.1996,6.1996,6.148,6.072,5.9905,5.9054,5.8202,5.746,5.7243,5.7188,5.7188,5.7188,5.6446,5.4092,5.1615,4.9057,4.6556,4.4293,4.2843,4.2783,4.2783,4.2724,4.2524,4.1902,4.1455,4.1321,4.0699,4.004,3.9443,3.9529,3.9319,3.864,3.7946,3.7199,3.6321,3.5518,3.4674,3.3807,3.3807,3.3815,3.3895,3.3972,3.4036,3.1258,3.5103,0.0,4.0113,4.3098,4.6194,4.7567,4.8477,4.9001,4.9001,0.0,0.0,0.0,0.0,0.0,0.0,0.0,0.0,0.0,0.0,0.0,0.0,0.0,0.0,0.0,0.0,0.0,0.0,0.0,0.0,0.0,0.0,0.0,0.0,0.0,5.5953,5.5953,5.6681,5.7036,0.0,5.7611,5.7881,5.7881,5.7881,5.7881,5.7954,5.9214,5.9934,6.0299,6.1343,6.1868,6.1996,6.1996,6.1996,6.1996,6.1996,6.1996,6.1996,6.1996,6.1996,6.1996,6.1996,6.1996,6.1996,6.1996,6.1996,6.1996,6.1996,6.1996,6.1996,6.1996,6.1869,6.1525,6.0738,5.9452,5.8347,5.8184,5.7641,5.7188,5.7188,5.7188,5.6446,5.4092,5.166,4.858,4.4251,4.3051,4.2668,4.2649,4.2649,4.2607,4.2503,4.2362,4.2004,4.1338,4.1142,4.0808,4.0203,4.0346,4.0121,3.9385,3.8761,3.7771,3.6321,3.6119,3.5293,3.3807,3.3807,3.382,3.3815,3.3947,3.4011,3.3085,3.6152,0.0,4.2516,0.0,4.709,4.8189,4.8731,4.9001,0.0,0.0,0.0,0.0,0.0,0.0,0.0,0.0,0.0,0.0,0.0,0.0,0.0,0.0,0.0,0.0,0.0,0.0,0.0,0.0,0.0,0.0,0.0,0.0,0.0,5.4786,5.5175,5.5175,5.5919,5.6461,5.6799,5.7188,5.7543,5.7881,5.7881,5.7881,5.7954,5.9028,5.9659,6.0079,6.1093,6.1692,6.1996,6.1996,6.1996,6.1996,6.1996,6.1996,6.1996,6.1996,6.1996,6.1996,6.1996,6.1996,6.1996,6.1996,6.1996,6.1996,6.1996,6.1996,6.1996,6.1996,6.1996,6.1887,6.1453,6.0448,5.9343,5.8565,5.8076,5.7659,5.7261,5.7188,5.6808,5.5595,5.2379,4.8732,4.4998,4.3386,4.2589,4.2548,4.2548,4.2508,4.2407,4.2387,4.2226,4.1815,4.1779,4.1558,4.1015,4.1089,4.0906,4.0311,3.9619,3.8524,3.6905,3.6868,3.6046,3.4362,3.4362,3.4192,3.3807,3.4336,3.4573,3.4493,3.6592,3.8894,4.5213,4.6786,0.0,4.8663,4.9001,0.0,0.0,0.0,0.0,0.0,0.0,0.0,0.0,0.0,0.0,0.0,0.0,0.0,0.0,0.0,0.0,0.0,0.0,0.0,0.0,0.0,0.0,0.0,0.0,5.3501,5.3501,5.4093,5.4397,5.4397,5.5141,5.5835,5.6427,5.6681,5.712,5.7695,5.7831,5.7881,5.7954,5.8737,5.9429,6.0062,6.0849,6.1505,6.1996,6.1996,6.1996,6.1996,6.1996,6.1996,6.1996,6.1996,6.1996,6.1996,6.1996,6.1996,6.1996,6.1996,6.1996,6.1996,6.1996,6.1996,6.1996,6.1996,6.1996,6.1996,6.1996,6.1471,6.0611,5.9126,5.8709,5.8365,5.755,5.7279,5.7062,5.6663,5.3218,4.955,4.6647,4.4479,4.3017,4.2519,4.2463,4.2425,4.2308,4.2308,4.2308,4.2308,4.2308,4.2161,4.1789,4.1848,4.1687,4.1183,4.0494,3.942,3.7951,3.7639,3.6743,3.5224,3.5224,3.4876,3.4247,3.5032,3.5409,3.1715,0.0,4.0815,0.0,4.6786,4.7192,0.0,0.0,0.0,0.0,0.0,0.0,0.0,0.0,0.0,0.0,0.0,0.0,0.0,0.0,0.0,0.0,0.0,0.0,0.0,0.0,0.0,0.0,0.0,0.0,0.0,5.3501,5.3501,5.3501,5.3602,5.3653,5.3653,5.438,5.4786,5.4905,5.619,5.685,5.6968,5.7594,5.7881,5.7991,5.9281,5.9902,6.0111,6.1343,6.1923,6.1996,6.1996,6.1996,6.1996,6.1996,6.1996,6.1996,6.1996,6.1996,6.1996,6.1996,6.1996,6.1996,6.1996,6.1996,6.1996,6.1996,6.1996,6.1996,6.1996,6.1996,6.1996,6.1996,6.1906,6.158,6.0683,5.9941,5.9198,5.8402,5.7677,5.6554,5.4526,5.3526,5.1481,4.6899,4.5839,4.476,4.2596,4.2346,4.2308,4.2308,4.2308,4.2308,4.2308,4.2308,4.2353,4.2447,4.2642,4.2468,4.1883,4.1269,4.0506,3.9588,3.8208,3.7052,3.6138,3.6138,3.6064,3.5973,3.6154,3.6251,3.2763,3.6806,4.1068,0.0,4.6481,4.7073,4.8156,0.0,0.0,0.0,0.0,0.0,0.0,0.0,0.0,0.0,0.0,0.0,0.0,0.0,0.0,0.0,0.0,0.0,0.0,0.0,0.0,0.0,0.0,0.0,5.3501,5.3501,5.3501,5.3501,5.3501,5.3501,5.3501,5.3822,5.4194,5.46,5.5683,5.641,5.6816,5.7137,5.7509,5.7954,5.8943,5.9611,6.0062,6.1045,6.1664,6.1996,6.1996,6.1996,6.1996,6.1996,6.1996,6.1996,6.1996,6.1996,6.1996,6.1996,6.1996,6.1996,6.1996,6.1996,6.1996,6.1996,6.1996,6.1996,6.1996,6.1996,6.1996,6.1996,6.1996,6.1887,6.1543,6.0819,5.9905,5.8637,5.8112,5.7406,5.5921,5.4448,5.2287,4.8753,4.6948,4.5101,4.2632,4.2308,4.2308,4.2308,4.2308,4.2308,4.2308,4.2308,4.2389,4.2589,4.2786,4.2831,4.2686,4.2093,4.1387,4.0598,3.8982,3.7771,3.6978,3.6978,3.6725,3.6303,3.6787,3.7022,0.0,0.0,3.8952,4.3436,4.5156,4.6087,0.0,0.0,0.0,0.0,0.0,0.0,0.0,0.0,0.0,0.0,0.0,0.0,0.0,0.0,0.0,0.0,0.0,0.0,0.0,0.0,0.0,0.0,0.0,0.0,5.3501,5.3501,5.3501,5.3501,5.3501,5.3501,5.3501,5.3501,5.3788,5.4329,5.5074,5.5716,5.6241,5.6427,5.6917,5.7683,5.853,5.933,6.003,6.0729,6.1401,6.1996,6.1996,6.1996,6.1996,6.1996,6.1996,6.1996,6.1996,6.1996,6.1996,6.1996,6.1996,6.1996,6.1996,6.1996,6.1996,6.1996,6.1996,6.1996,6.1996,6.1996,6.1996,6.1996,6.1996,6.1996,6.1996,6.1362,6.0466,5.9253,5.8854,5.8456,5.7641,5.5973,5.3616,5.0302,4.8178,4.5839,4.2703,4.2308,4.2308,4.2308,4.2308,4.2308,4.2308,4.2308,4.2389,4.2589,4.2747,4.2938,4.3196,4.2571,4.1961,4.1407,3.9827,3.8615,3.7804,3.7603,3.7309,3.6909,3.7327,3.7621,0.0,3.1588,0.0,3.9825,4.2095,0.0,0.0,0.0,0.0,0.0,0.0,0.0,0.0,0.0,0.0,0.0,0.0,0.0,0.0,0.0,0.0,0.0,0.0,0.0,0.0,0.0,0.0,0.0,0.0,0.0,5.3501,5.3501,5.3501,5.3501,5.3501,5.3501,5.3501,5.3501,5.3518,5.3568,5.4296,5.4668,5.4735,5.5446,5.6173,5.6919,5.8307,5.933,6.003,6.0729,6.1401,6.1996,6.1996,6.1996,6.1996,6.1996,6.1996,6.1996,6.1996,6.1996,6.1996,6.1996,6.1996,6.1996,6.1996,6.1996,6.1996,6.1996,6.1996,6.1996,6.1996,6.1996,6.1996,6.1996,6.1996,6.1996,6.1996,6.1362,6.0792,6.0701,6.0068,5.9289,5.8474,5.8239,5.6244,5.0649,4.9685,4.7832,4.2917,4.2308,4.2308,4.2308,4.2308,4.2308,4.2308,4.2308,4.2389,4.2589,4.2609,4.2786,4.3178,4.2448,4.2097,4.2231,4.0653,3.9441,3.8634,3.7878,3.7878,3.856,3.7841,3.7915,0.0,0.0,0.0,3.6667,4.0145,4.2843,0.0,0.0,0.0,0.0,0.0,0.0,0.0,0.0,0.0,0.0,0.0,0.0,0.0,0.0,0.0,0.0,0.0,0.0,0.0,0.0,0.0,0.0,0.0,0.0,5.3501,5.3501,5.3501,5.3501,5.3501,5.3501,5.3501,5.3501,5.3501,5.3501,5.3771,5.4143,5.46,5.4871,5.5395,5.6139,5.7117,5.8204,5.9363,6.0044,6.0759,6.1401,6.1822,6.1996,6.1996,6.1996,6.1996,6.1996,6.1996,6.1996,6.1996,6.1996,6.1996,6.1996,6.1996,6.1996,6.1996,6.1996,6.1996,6.1996,6.1996,6.1996,6.1996,6.1996,6.1996,6.1996,6.1996,6.1761,6.1417,6.0919,6.0575,6.0122,5.9307,5.918,5.7753,5.3556,5.1609,4.9153,4.519,4.3278,4.2308,4.2308,4.2308,4.2308,4.2308,4.2308,4.2328,4.2409,4.253,4.2709,4.2994,4.285,4.2628,4.2304,4.124,4.0029,3.8707,3.7896,3.7382,3.7165,3.7401,3.7658,2.8979,0.0,0.0,0.0,0.0,0.0,0.0,0.0,0.0,0.0,0.0,0.0,0.0,0.0,0.0,0.0,0.0,0.0,0.0,0.0,0.0,0.0,0.0,0.0,0.0,0.0,0.0,0.0,0.0,0.0,5.3501,5.3501,5.3501,5.3501,5.3501,5.3501,5.3501,5.3501,5.3501,5.3501,5.3501,5.3754,5.4228,5.4228,5.4634,5.5361,5.5852,5.702,5.8615,5.9586,6.0393,6.1075,6.172,6.1996,6.1996,6.1996,6.1996,6.1996,6.1996,6.1996,6.1996,6.1996,6.1996,6.1996,6.1996,6.1996,6.1996,6.1996,6.1996,6.1996,6.1996,6.1996,6.1996,6.1996,6.1996,6.1996,6.1996,6.1996,6.1833,6.129,6.1181,6.0955,6.0158,6.0013,5.8901,5.5598,5.3694,5.113,4.694,4.495,4.351,4.2415,4.2308,4.2308,4.2308,4.2308,4.2308,4.2308,4.243,4.2611,4.2882,4.3031,4.2959,4.2708,4.1919,4.0726,3.9093,3.7734,3.696,3.6703,3.667,3.6945,0.0,0.0,0.0,0.0,0.0,0.0,0.0,0.0,0.0,0.0,0.0,0.0,0.0,0.0,0.0,0.0,0.0,0.0,0.0,0.0,0.0,0.0,0.0,0.0,0.0,0.0,0.0,0.0,0.0,5.2638,5.3433,5.3501,5.3501,5.3501,5.3501,5.3501,5.3501,5.3501,5.3501,5.3501,5.3501,5.3501,5.3501,5.3501,5.389,5.4566,5.4583,5.5758,5.7822,5.9309,6.0326,6.1045,6.1692,6.1978,6.1996,6.1996,6.1996,6.1996,6.1996,6.1996,6.1996,6.1996,6.1996,6.1996,6.1996,6.1996,6.1996,6.1996,6.1996,6.1996,6.1996,6.1996,6.1996,6.1996,6.1996,6.1996,6.1996,6.1996,6.1996,6.1996,6.1996,6.1743,6.0991,6.0846,5.9743,5.6537,5.597,5.3856,4.8093,4.7259,4.596,4.2682,4.2305,4.2308,4.2308,4.2308,4.2308,4.2308,4.2308,4.2492,4.2882,4.2901,4.3087,4.3497,4.2708,4.1515,3.9918,3.7514,3.6721,3.7437,3.5811,3.5973,2.8094,0.0,0.0,0.0,0.0,0.0,0.0,0.0,0.0,0.0,0.0,0.0,0.0,0.0,0.0,0.0,0.0,0.0,0.0,0.0,0.0,0.0,0.0,0.0,0.0,0.0,0.0,0.0,5.2012,5.2401,5.2621,5.3179,5.3501,5.3501,5.3501,5.3501,5.3501,5.3501,5.3501,5.3501,5.3501,5.3501,5.3501,5.3501,5.3619,5.3822,5.4363,5.4941,5.5639,5.7597,5.9137,6.0344,6.1016,6.1561,6.1996,6.1996,6.1996,6.1996,6.1996,6.1996,6.1996,6.1996,6.1996,6.1996,6.1996,6.1996,6.1996,6.1996,6.1996,6.1996,6.1996,6.1996,6.1996,6.1996,6.1996,6.1996,6.1996,6.1996,6.1996,6.1996,6.1996,6.1924,6.1706,6.1652,6.1163,5.9671,5.7918,5.5306,5.1263,4.8667,4.6175,4.3468,4.2644,4.2308,4.2308,4.2405,4.2445,4.2445,4.2488,4.2631,4.2882,4.2994,4.316,4.3411,4.2693,4.1791,4.0763,3.834,3.6978,3.6615,3.6743,3.7367,2.8603,2.8661,0.0,0.0,0.0,0.0,0.0,3.8629,0.0,0.0,0.0,0.0,0.0,0.0,0.0,0.0,0.0,0.0,0.0,0.0,0.0,0.0,0.0,0.0,0.0,0.0,0.0,0.0,5.115,5.1657,5.2266,5.3061,5.3501,5.3501,5.3501,5.3501,5.3501,5.3501,5.3501,5.3501,5.3501,5.3501,5.3501,5.3501,5.3501,5.3518,5.3957,5.4313,5.4685,5.5945,5.7676,5.9636,6.092,6.1664,6.1996,6.1996,6.1996,6.1996,6.1996,6.1996,6.1996,6.1996,6.1996,6.1996,6.1996,6.1996,6.1996,6.1996,6.1996,6.1996,6.1996,6.1996,6.1996,6.1996,6.1996,6.1996,6.1996,6.1996,6.1996,6.1996,6.1996,6.1996,6.1996,6.1996,6.1833,6.1362,6.0069,5.7585,5.3231,5.0975,4.8142,4.3978,4.3361,4.3022,4.242,4.2749,4.2826,4.2564,4.2588,4.2689,4.2882,4.303,4.3196,4.3394,4.3023,4.2249,4.1095,3.9019,3.7404,3.6321,3.7459,3.8065,2.8805,2.8741,2.9057,0.0,0.0,0.0,3.8313,3.9472,0.0,0.0,0.0,0.0,0.0,0.0,0.0,0.0,0.0,0.0,0.0,0.0,0.0,0.0,0.0,0.0,0.0,0.0,4.9272,4.9915,5.0033,5.0727,5.2215,5.2993,5.3416,5.3501,5.3501,5.3501,5.3501,5.3501,5.3501,5.3501,5.3501,5.3501,5.3501,5.3501,5.3501,5.3501,5.3501,5.3873,5.4516,5.4703,5.6327,5.8874,6.0856,6.175,6.1895,6.1978,6.1996,6.1996,6.1996,6.1996,6.1996,6.1996,6.1996,6.1996,6.1996,6.1996,6.1996,6.1996,6.1996,6.1996,6.1996,6.1996,6.1996,6.1996,6.1996,6.1996,6.1996,6.1996,6.1996,6.1996,6.1996,6.1996,6.1996,6.1996,6.1996,6.1996,6.1996,6.0069,5.4724,5.3609,5.1011,4.4949,4.45,4.4135,4.288,4.3384,4.3514,4.2915,4.2829,4.2872,4.3046,4.3122,4.3215,4.3394,4.3481,4.2745,4.1224,3.9625,3.8046,3.6597,3.8028,3.8322,0.0,0.0,0.0,0.0,0.0,0.0,3.2634,3.323,3.4477,0.0,0.0,0.0,0.0,0.0,0.0,0.0,0.0,0.0,0.0,0.0,0.0,0.0,0.0,0.0,0.0,0.0,4.9069,4.9204,4.9763,5.0727,5.2215,5.2452,5.2841,5.3484,5.3501,5.3501,5.3501,5.3501,5.3501,5.3501,5.3501,5.3501,5.3501,5.3501,5.3501,5.3501,5.3501,5.3585,5.3856,5.5461,5.6874,5.807,5.9042,6.016,6.1268,6.1794,6.1996,6.1996,6.1996,6.1996,6.1996,6.1996,6.1996,6.1996,6.1996,6.1996,6.1996,6.1996,6.1996,6.1996,6.1996,6.1996,6.1996,6.1996,6.1996,6.1996,6.1996,6.1996,6.1996,6.1996,6.1996,6.1996,6.1996,6.1996,6.1996,6.1996,6.1996,6.0883,5.7758,5.5072,5.2209,4.8942,4.6378,4.4812,4.4527,4.4736,4.4836,4.4712,4.4239,4.3992,4.403,4.3579,4.3359,4.3394,4.3481,4.302,4.2066,4.0451,3.9166,3.8248,3.856,3.8615,0.0,0.0,0.0,3.1074,0.0,0.0,0.0,3.3595,3.4421,0.0,0.0,0.0,0.0,0.0,0.0,0.0,0.0,0.0,0.0,0.0,0.0,0.0,0.0,0.0,0.0,0.0,4.9001,4.9001,4.9678,5.0405,5.115,5.1894,5.2486,5.2892,5.3298,5.3501,5.3501,5.3501,5.3501,5.3501,5.3501,5.3501,5.3501,5.3501,5.3501,5.3501,5.3501,5.3501,5.3602,5.46,5.5472,5.6438,5.886,6.0261,6.0976,6.1751,6.1996,6.1996,6.1996,6.1996,6.1996,6.1996,6.1996,6.1996,6.1996,6.1996,6.1996,6.1996,6.1996,6.1996,6.1996,6.1996,6.1996,6.1996,6.1996,6.1996,6.1996,6.1996,6.1996,6.1996,6.1996,6.1996,6.1996,6.1996,6.1996,6.1996,6.1996,6.1127,5.865,5.6917,5.4356,5.028,4.8717,4.7183,4.5263,4.5506,4.5621,4.5363,4.5083,4.4906,4.4944,4.4711,4.4418,4.4069,4.3682,4.3313,4.2892,4.168,4.0487,3.9294,3.9294,3.9074,0.0,0.0,0.0,0.0,0.0,3.1786,0.0,0.0,0.0,3.7608,0.0,0.0,0.0,0.0,0.0,0.0,0.0,0.0,0.0,0.0,0.0,0.0,0.0,0.0,0.0,0.0,4.8392,4.8968,4.9018,4.934,5.005,5.1234,5.2012,5.2283,5.2942,5.3348,5.3501,5.3501,5.3501,5.3501,5.3501,5.3501,5.3501,5.3501,5.3501,5.3501,5.3501,5.3501,5.3501,5.3618,5.4193,5.5309,5.885,6.0303,6.0519,6.1606,6.1996,6.1996,6.1996,6.1996,6.1996,6.1996,6.1996,6.1996,6.1996,6.1996,6.1996,6.1996,6.1996,6.1996,6.1996,6.1996,6.1996,6.1996,6.1996,6.1996,6.1996,6.1996,6.1996,6.1996,6.1996,6.1996,6.1996,6.1996,6.1996,6.1996,6.1996,6.129,5.9343,5.8631,5.6393,5.1406,5.0935,4.9541,4.5962,4.6236,4.6388,4.5994,4.5832,4.5781,4.5859,4.5845,4.5553,4.4929,4.4287,4.3974,4.3974,4.3149,4.1864,4.012,3.9955,3.946,0.0,0.0,0.0,0.0,3.2034,0.0,0.0,0.0,3.2155,3.1964,0.0,0.0,0.0,0.0,0.0,0.0,0.0,0.0,0.0,0.0,0.0,0.0,0.0,0.0,0.0,0.0,0.0,4.8798,4.665,4.6663,4.9915,5.0253,5.0947,5.2266,5.2384,5.279,5.3501,5.3501,5.3501,5.3501,5.3501,5.3501,5.3501,5.3501,5.3501,5.3501,5.3501,5.3501,5.3534,5.4091,5.5074,5.6379,5.759,5.8469,5.9279,6.1274,6.1996,6.1996,6.1996,6.1996,6.1996,6.1996,6.1996,6.1996,6.1996,6.1996,6.1996,6.1996,6.1996,6.1996,6.1996,6.1996,6.1996,6.1996,6.1996,6.1996,6.1996,6.1996,6.1996,6.1996,6.1996,6.1996,6.1996,6.1996,6.1996,6.1996,6.1996,6.1887,6.1616,5.9715,5.7344,5.4611,5.2493,5.0212,4.7642,4.7497,4.7557,4.7609,4.7001,4.6717,4.6851,4.6231,4.5847,4.5773,4.5663,4.5626,4.5626,4.4819,4.3223,4.0948,4.023,3.946,0.0,0.0,0.0,0.0,0.0,0.0,0.0,0.0,3.0954,0.0,0.0,0.0,0.0,0.0,0.0,0.0,0.0,0.0,0.0,0.0,0.0,0.0,0.0,0.0,0.0,0.0,0.0,0.0,0.0,4.6036,4.9289,4.9864,5.0574,5.164,5.208,5.2689,5.3501,5.3501,5.3501,5.3501,5.3501,5.3501,5.3501,5.3501,5.3501,5.3501,5.3501,5.3501,5.3534,5.3783,5.4714,5.6088,5.7259,5.8639,6.0146,6.1505,6.1996,6.1996,6.1996,6.1996,6.1996,6.1996,6.1996,6.1996,6.1996,6.1996,6.1996,6.1996,6.1996,6.1996,6.1996,6.1996,6.1996,6.1996,6.1996,6.1996,6.1996,6.1996,6.1996,6.1996,6.1996,6.1996,6.1996,6.1996,6.1996,6.1996,6.1996,6.1996,6.1996,6.1136,5.9597,5.7188,5.4816,5.2408,4.9999,4.8514,4.7762,4.7947,4.7779,4.7696,4.7752,4.7002,4.6599,4.6599,4.614,4.5663,4.5204,4.4874,4.3699,4.1791,4.0983,4.0175,3.6122,0.0,0.0,0.0,0.0,0.0,0.0,0.0,0.0,0.0,0.0,0.0,0.0,0.0,0.0,0.0,0.0,0.0,0.0,0.0,0.0,0.0,0.0,0.0,0.0,0.0,0.0,0.0,0.0,0.0,4.8798,4.9509,5.0135,5.0879,5.1623,5.2384,5.3162,5.3399,5.3501,5.3501,5.3501,5.3501,5.3501,5.3501,5.3501,5.3501,5.3501,5.3501,5.3518,5.3721,5.4731,5.6293,5.7526,5.9271,6.1181,6.1761,6.1996,6.1996,6.1996,6.1996,6.1996,6.1996,6.1996,6.1996,6.1996,6.1996,6.1996,6.1996,6.1996,6.1996,6.1996,6.1996,6.1996,6.1996,6.1996,6.1996,6.1996,6.1996,6.1996,6.1996,6.1996,6.1996,6.1996,6.1996,6.1996,6.1996,6.1996,6.1996,6.1996,6.1996,6.11,5.8655,5.6301,5.3929,5.1502,4.9094,4.7783,4.7992,4.819,4.8306,4.8306,4.7736,4.7424,4.7424,4.6654,4.6049,4.5682,4.5021,4.4213,4.3259,4.2011,4.1001,0.0,0.0,0.0,3.4532,0.0,0.0,0.0,0.0,3.1565,0.0,0.0,0.0,0.0,0.0,3.3072,3.2364,0.0,0.0,0.0,0.0,0.0,0.0,0.0,0.0,0.0,0.0,0.0,0.0,0.0,0.0,4.8697,4.9018,4.9373,5.0101,5.0862,5.1606,5.2334,5.3112,5.3501,5.3501,5.3501,5.3501,5.3501,5.3501,5.3501,5.3501,5.3501,5.3501,5.3568,5.4262,5.5781,5.7715,5.847,6.0072,6.196,6.1978,6.1996,6.1996,6.1996,6.1996,6.1996,6.1996,6.1996,6.1996,6.1996,6.1996,6.1996,6.1996,6.1996,6.1996,6.1996,6.1996,6.1996,6.1996,6.1996,6.1996,6.1996,6.1996,6.1996,6.1996,6.1996,6.1996,6.1996,6.1996,6.1996,6.1996,6.1996,6.1996,6.1996,6.1996,6.11,5.8655,5.6301,5.3929,5.1502,4.9094,4.7783,4.7992,4.819,4.8306,4.8306,4.8288,4.8269,4.8269,4.7461,4.7424,4.8196,4.5847,4.5076,4.5736,4.3351,4.1827,0.0,0.0,4.1969,3.7286,0.0,0.0,0.0,0.0,0.0,0.0,0.0,0.0,0.0,0.0,3.3056,3.2018,3.2113,3.1904,0.0,0.0,0.0,0.0,0.0,0.0,0.0,0.0,0.0,0.0,0.0,0.0,0.0,4.9001,4.934,5.0067,5.0828,5.1555,5.23,5.3112,5.3501,5.3501,5.3501,5.3501,5.3501,5.3501,5.3501,5.3501,5.3501,5.3501,5.3568,5.4296,5.5816,5.7781,5.8505,6.0107,6.1996,6.1996,6.1996,6.1996,6.1996,6.1996,6.1996,6.1996,6.1996,6.1996,6.1996,6.1996,6.1996,6.1996,6.1996,6.1996,6.1996,6.1996,6.1996,6.1996,6.1996,6.1996,6.1996,6.1996,6.1996,6.1996,6.1996,6.1996,6.1996,6.1996,6.1996,6.1996,6.1996,6.1996,6.1996,6.1996,6.167,6.0883,5.8655,5.6265,5.3874,5.013,4.7929,4.7992,4.819,4.8306,4.8306,4.8306,4.8306,4.8306,4.8031,4.7755,4.7498,4.6691,4.614,4.5865,4.4525,4.3167,4.4694,4.5072,0.0,4.0062,3.9603,0.0,3.4625,0.0,0.0,0.0,0.0,0.0,0.0,0.0,3.3872,3.271,3.2624,3.2229,0.0,3.1064,0.0,0.0,0.0,0.0,0.0,0.0,0.0,4.2551,4.2953,0.0,0.0,0.0,4.9221,4.9678,5.0693,5.1437,5.1911,5.2976,5.3501,5.3501,5.3501,5.3501,5.3501,5.3501,5.3501,5.3501,5.3501,5.3653,5.3974,5.4958,5.6424,5.8185,5.9205,6.0552,6.1996,6.1996,6.1996,6.1996,6.1996,6.1996,6.1996,6.1996,6.1996,6.1996,6.1996,6.1996,6.1924,6.1634,6.1761,6.1924,6.1634,6.1779,6.1996,6.1996,6.1996,6.1996,6.1996,6.1996,6.1996,6.1996,6.1996,6.1996,6.1996,6.1996,6.1996,6.1996,6.1996,6.1996,6.1996,6.1996,6.1996,6.1996,5.985,5.7098,5.3892,5.018,4.7992,4.7992,4.819,4.8306,4.8306,4.8306,4.8306,4.8306,4.8012,4.7755,4.7516,4.6947,4.6562,4.6305,4.5223,4.414]}]]